<?xml version='1.0' encoding='UTF-8'?><gpx version="1.1" creator="JPX - https://github.com/jenetics/jpx" xmlns="http://www.topografix.com/GPX/1/1"><trk><trkseg><trkpt lat="45.4157204" lon="10.5130294"><ele>115.99999999999999</ele><time>2026-05-03T08:16:20.238Z</time></trkpt><trkpt lat="45.4157872" lon="10.5130257"><ele>116.0</ele><time>2026-05-03T08:16:21.238Z</time></trkpt><trkpt lat="45.4158694" lon="10.5130248"><ele>116.0</ele><time>2026-05-03T08:16:22.238Z</time></trkpt><trkpt lat="45.4159537" lon="10.5130154"><ele>116.0</ele><time>2026-05-03T08:16:23.238Z</time></trkpt><trkpt lat="45.4160457" lon="10.51301"><ele>115.99999999999999</ele><time>2026-05-03T08:16:24.238Z</time></trkpt><trkpt lat="45.4161375" lon="10.5129998"><ele>116.0</ele><time>2026-05-03T08:16:25.238Z</time></trkpt><trkpt lat="45.4162285" lon="10.5129887"><ele>115.99999999999999</ele><time>2026-05-03T08:16:26.239Z</time></trkpt><trkpt lat="45.4163167" lon="10.5129805"><ele>116.0</ele><time>2026-05-03T08:16:27.238Z</time></trkpt><trkpt lat="45.416398" lon="10.5129785"><ele>116.0</ele><time>2026-05-03T08:16:28.238Z</time></trkpt><trkpt lat="45.4164721" lon="10.512977"><ele>116.0</ele><time>2026-05-03T08:16:29.238Z</time></trkpt><trkpt lat="45.4165411" lon="10.5129734"><ele>115.99999999999999</ele><time>2026-05-03T08:16:30.238Z</time></trkpt><trkpt lat="45.4166053" lon="10.5129678"><ele>116.0</ele><time>2026-05-03T08:16:31.238Z</time></trkpt><trkpt lat="45.4167253" lon="10.5129547"><ele>115.99999999999999</ele><time>2026-05-03T08:16:33.238Z</time></trkpt><trkpt lat="45.4168029" lon="10.5129521"><ele>116.0</ele><time>2026-05-03T08:16:35.238Z</time></trkpt><trkpt lat="45.4168598" lon="10.5128442"><ele>116.0</ele><time>2026-05-03T08:16:45.238Z</time></trkpt><trkpt lat="45.4168743" lon="10.5127477"><ele>116.0</ele><time>2026-05-03T08:16:46.238Z</time></trkpt><trkpt lat="45.4169045" lon="10.5126223"><ele>115.99999999999999</ele><time>2026-05-03T08:16:47.238Z</time></trkpt><trkpt lat="45.4169328" lon="10.5125052"><ele>116.0</ele><time>2026-05-03T08:16:48.238Z</time></trkpt><trkpt lat="45.4169621" lon="10.5124078"><ele>115.99999999999999</ele><time>2026-05-03T08:16:49.238Z</time></trkpt><trkpt lat="45.4170151" lon="10.5122697"><ele>116.0</ele><time>2026-05-03T08:16:51.238Z</time></trkpt><trkpt lat="45.4170483" lon="10.5121741"><ele>116.0</ele><time>2026-05-03T08:16:53.239Z</time></trkpt><trkpt lat="45.4170715" lon="10.5120451"><ele>116.0</ele><time>2026-05-03T08:16:56.239Z</time></trkpt><trkpt lat="45.417074" lon="10.5119469"><ele>115.99999999999999</ele><time>2026-05-03T08:17:00.238Z</time></trkpt><trkpt lat="45.4171049" lon="10.5118311"><ele>116.0</ele><time>2026-05-03T08:17:03.239Z</time></trkpt><trkpt lat="45.417126" lon="10.5117328"><ele>115.8</ele><time>2026-05-03T08:17:05.239Z</time></trkpt><trkpt lat="45.4171589" lon="10.5116087"><ele>115.6</ele><time>2026-05-03T08:17:07.239Z</time></trkpt><trkpt lat="45.4171999" lon="10.5114738"><ele>115.4</ele><time>2026-05-03T08:17:09.238Z</time></trkpt><trkpt lat="45.4172458" lon="10.5113235"><ele>115.2</ele><time>2026-05-03T08:17:11.238Z</time></trkpt><trkpt lat="45.4172901" lon="10.5111703"><ele>115.0</ele><time>2026-05-03T08:17:13.238Z</time></trkpt><trkpt lat="45.4173281" lon="10.5110456"><ele>115.00000000000001</ele><time>2026-05-03T08:17:15.239Z</time></trkpt><trkpt lat="45.4173508" lon="10.5109535"><ele>115.0</ele><time>2026-05-03T08:17:17.238Z</time></trkpt><trkpt lat="45.4173899" lon="10.5108452"><ele>115.0</ele><time>2026-05-03T08:17:29.238Z</time></trkpt><trkpt lat="45.4174301" lon="10.5106901"><ele>115.0</ele><time>2026-05-03T08:17:31.239Z</time></trkpt><trkpt lat="45.4174525" lon="10.5105955"><ele>115.00000000000001</ele><time>2026-05-03T08:17:32.238Z</time></trkpt><trkpt lat="45.4174805" lon="10.5105055"><ele>115.0</ele><time>2026-05-03T08:17:33.238Z</time></trkpt><trkpt lat="45.4175041" lon="10.5104102"><ele>115.16666666666667</ele><time>2026-05-03T08:17:34.238Z</time></trkpt><trkpt lat="45.4175367" lon="10.510306"><ele>115.33333333333334</ele><time>2026-05-03T08:17:35.24Z</time></trkpt><trkpt lat="45.4175666" lon="10.5102038"><ele>115.5</ele><time>2026-05-03T08:17:36.239Z</time></trkpt><trkpt lat="45.4175945" lon="10.510107"><ele>115.66666666666666</ele><time>2026-05-03T08:17:37.239Z</time></trkpt><trkpt lat="45.4176225" lon="10.5099942"><ele>115.83333333333333</ele><time>2026-05-03T08:17:38.238Z</time></trkpt><trkpt lat="45.4176507" lon="10.5098961"><ele>116.0</ele><time>2026-05-03T08:17:39.238Z</time></trkpt><trkpt lat="45.4176789" lon="10.5098004"><ele>115.99999999999999</ele><time>2026-05-03T08:17:40.238Z</time></trkpt><trkpt lat="45.4177007" lon="10.5097145"><ele>116.0</ele><time>2026-05-03T08:17:41.239Z</time></trkpt><trkpt lat="45.4177341" lon="10.5095734"><ele>116.0</ele><time>2026-05-03T08:17:43.24Z</time></trkpt><trkpt lat="45.4177378" lon="10.5094744"><ele>116.0</ele><time>2026-05-03T08:17:45.238Z</time></trkpt><trkpt lat="45.4176777" lon="10.5094471"><ele>115.99999999999999</ele><time>2026-05-03T08:17:47.238Z</time></trkpt><trkpt lat="45.4175624" lon="10.5094569"><ele>116.0</ele><time>2026-05-03T08:17:49.238Z</time></trkpt><trkpt lat="45.4174878" lon="10.509467"><ele>116.19999999999999</ele><time>2026-05-03T08:17:50.238Z</time></trkpt><trkpt lat="45.4173769" lon="10.5094457"><ele>116.39999999999999</ele><time>2026-05-03T08:17:52.238Z</time></trkpt><trkpt lat="45.4173228" lon="10.5093634"><ele>116.6</ele><time>2026-05-03T08:17:54.238Z</time></trkpt><trkpt lat="45.4172913" lon="10.5092006"><ele>116.8</ele><time>2026-05-03T08:17:56.239Z</time></trkpt><trkpt lat="45.4172821" lon="10.5091003"><ele>117.0</ele><time>2026-05-03T08:17:57.238Z</time></trkpt><trkpt lat="45.4172527" lon="10.5089273"><ele>117.0</ele><time>2026-05-03T08:17:59.24Z</time></trkpt><trkpt lat="45.4172338" lon="10.5087615"><ele>116.99999999999999</ele><time>2026-05-03T08:18:01.238Z</time></trkpt><trkpt lat="45.4172172" lon="10.5086119"><ele>116.99999999999999</ele><time>2026-05-03T08:18:03.24Z</time></trkpt><trkpt lat="45.4172113" lon="10.5084426"><ele>117.0</ele><time>2026-05-03T08:18:05.239Z</time></trkpt><trkpt lat="45.4172034" lon="10.5083403"><ele>117.0</ele><time>2026-05-03T08:18:06.238Z</time></trkpt><trkpt lat="45.4171981" lon="10.5082362"><ele>117.14285714285715</ele><time>2026-05-03T08:18:07.239Z</time></trkpt><trkpt lat="45.4171936" lon="10.5081316"><ele>117.2857142857143</ele><time>2026-05-03T08:18:08.239Z</time></trkpt><trkpt lat="45.4171879" lon="10.5080307"><ele>117.42857142857143</ele><time>2026-05-03T08:18:09.238Z</time></trkpt><trkpt lat="45.4171861" lon="10.5079318"><ele>117.57142857142858</ele><time>2026-05-03T08:18:10.238Z</time></trkpt><trkpt lat="45.4171816" lon="10.507831"><ele>117.71428571428572</ele><time>2026-05-03T08:18:11.239Z</time></trkpt><trkpt lat="45.4171794" lon="10.5077264"><ele>117.85714285714286</ele><time>2026-05-03T08:18:12.238Z</time></trkpt><trkpt lat="45.417178" lon="10.507617"><ele>118.0</ele><time>2026-05-03T08:18:13.239Z</time></trkpt><trkpt lat="45.4171812" lon="10.5075114"><ele>118.00000000000001</ele><time>2026-05-03T08:18:14.238Z</time></trkpt><trkpt lat="45.4171803" lon="10.5074039"><ele>118.0</ele><time>2026-05-03T08:18:15.239Z</time></trkpt><trkpt lat="45.4171808" lon="10.5073014"><ele>118.0</ele><time>2026-05-03T08:18:16.239Z</time></trkpt><trkpt lat="45.4171854" lon="10.5072082"><ele>118.0</ele><time>2026-05-03T08:18:17.238Z</time></trkpt><trkpt lat="45.4172048" lon="10.5070519"><ele>118.00000000000001</ele><time>2026-05-03T08:18:19.238Z</time></trkpt><trkpt lat="45.4172584" lon="10.5069523"><ele>118.0</ele><time>2026-05-03T08:18:21.238Z</time></trkpt><trkpt lat="45.417366" lon="10.5068956"><ele>118.16666666666667</ele><time>2026-05-03T08:18:23.238Z</time></trkpt><trkpt lat="45.4174347" lon="10.5068815"><ele>118.33333333333334</ele><time>2026-05-03T08:18:24.238Z</time></trkpt><trkpt lat="45.4175122" lon="10.5068802"><ele>118.5</ele><time>2026-05-03T08:18:25.238Z</time></trkpt><trkpt lat="45.4175975" lon="10.5068773"><ele>118.66666666666666</ele><time>2026-05-03T08:18:26.238Z</time></trkpt><trkpt lat="45.4176808" lon="10.5068706"><ele>118.83333333333333</ele><time>2026-05-03T08:18:27.238Z</time></trkpt><trkpt lat="45.4177676" lon="10.5068605"><ele>119.0</ele><time>2026-05-03T08:18:28.239Z</time></trkpt><trkpt lat="45.4178546" lon="10.5068448"><ele>118.99999999999999</ele><time>2026-05-03T08:18:29.238Z</time></trkpt><trkpt lat="45.417942" lon="10.506831"><ele>119.0</ele><time>2026-05-03T08:18:30.238Z</time></trkpt><trkpt lat="45.4180222" lon="10.5068245"><ele>119.0</ele><time>2026-05-03T08:18:31.238Z</time></trkpt><trkpt lat="45.4181018" lon="10.506812"><ele>119.0</ele><time>2026-05-03T08:18:32.238Z</time></trkpt><trkpt lat="45.4181715" lon="10.5068066"><ele>118.99999999999999</ele><time>2026-05-03T08:18:33.239Z</time></trkpt><trkpt lat="45.4182402" lon="10.5067937"><ele>119.0</ele><time>2026-05-03T08:18:34.238Z</time></trkpt><trkpt lat="45.4183086" lon="10.5067865"><ele>118.80000000000001</ele><time>2026-05-03T08:18:35.24Z</time></trkpt><trkpt lat="45.418376" lon="10.5067755"><ele>118.60000000000001</ele><time>2026-05-03T08:18:36.239Z</time></trkpt><trkpt lat="45.4184956" lon="10.5067646"><ele>118.4</ele><time>2026-05-03T08:18:38.239Z</time></trkpt><trkpt lat="45.4186142" lon="10.5067377"><ele>118.2</ele><time>2026-05-03T08:18:40.238Z</time></trkpt><trkpt lat="45.4187145" lon="10.5067129"><ele>118.0</ele><time>2026-05-03T08:18:42.239Z</time></trkpt><trkpt lat="45.4187967" lon="10.5067046"><ele>118.00000000000001</ele><time>2026-05-03T08:18:44.24Z</time></trkpt><trkpt lat="45.4188608" lon="10.5066984"><ele>118.0</ele><time>2026-05-03T08:18:46.238Z</time></trkpt><trkpt lat="45.4189263" lon="10.5066613"><ele>118.0</ele><time>2026-05-03T08:18:51.238Z</time></trkpt><trkpt lat="45.4188801" lon="10.5065105"><ele>118.0</ele><time>2026-05-03T08:18:53.238Z</time></trkpt><trkpt lat="45.41884" lon="10.5064154"><ele>118.00000000000001</ele><time>2026-05-03T08:18:54.238Z</time></trkpt><trkpt lat="45.418789" lon="10.5062931"><ele>118.0</ele><time>2026-05-03T08:18:55.238Z</time></trkpt><trkpt lat="45.4187387" lon="10.5061732"><ele>118.0</ele><time>2026-05-03T08:18:56.239Z</time></trkpt><trkpt lat="45.4186869" lon="10.5060485"><ele>118.00000000000001</ele><time>2026-05-03T08:18:57.238Z</time></trkpt><trkpt lat="45.4186333" lon="10.50592"><ele>118.00000000000001</ele><time>2026-05-03T08:18:58.239Z</time></trkpt><trkpt lat="45.4185887" lon="10.5057975"><ele>118.0</ele><time>2026-05-03T08:18:59.238Z</time></trkpt><trkpt lat="45.4185415" lon="10.5056736"><ele>118.0</ele><time>2026-05-03T08:19:00.24Z</time></trkpt><trkpt lat="45.4184953" lon="10.5055523"><ele>118.0</ele><time>2026-05-03T08:19:01.238Z</time></trkpt><trkpt lat="45.4184512" lon="10.5054369"><ele>118.00000000000001</ele><time>2026-05-03T08:19:02.239Z</time></trkpt><trkpt lat="45.4183931" lon="10.5053166"><ele>118.00000000000001</ele><time>2026-05-03T08:19:03.238Z</time></trkpt><trkpt lat="45.4183384" lon="10.5051876"><ele>118.0</ele><time>2026-05-03T08:19:04.24Z</time></trkpt><trkpt lat="45.4182789" lon="10.5050537"><ele>118.0</ele><time>2026-05-03T08:19:05.238Z</time></trkpt><trkpt lat="45.4182273" lon="10.5049214"><ele>118.0</ele><time>2026-05-03T08:19:06.238Z</time></trkpt><trkpt lat="45.4181738" lon="10.5047925"><ele>118.00000000000001</ele><time>2026-05-03T08:19:07.238Z</time></trkpt><trkpt lat="45.4181178" lon="10.5046703"><ele>118.00000000000001</ele><time>2026-05-03T08:19:08.238Z</time></trkpt><trkpt lat="45.4180677" lon="10.5045542"><ele>118.0</ele><time>2026-05-03T08:19:09.239Z</time></trkpt><trkpt lat="45.4180218" lon="10.5044415"><ele>118.0</ele><time>2026-05-03T08:19:10.239Z</time></trkpt><trkpt lat="45.4179828" lon="10.504343"><ele>117.66666666666667</ele><time>2026-05-03T08:19:11.238Z</time></trkpt><trkpt lat="45.4179435" lon="10.5042535"><ele>117.33333333333334</ele><time>2026-05-03T08:19:12.238Z</time></trkpt><trkpt lat="45.4179046" lon="10.5041714"><ele>117.0</ele><time>2026-05-03T08:19:13.238Z</time></trkpt><trkpt lat="45.4178342" lon="10.5040277"><ele>116.66666666666666</ele><time>2026-05-03T08:19:15.24Z</time></trkpt><trkpt lat="45.4177753" lon="10.5039031"><ele>116.33333333333333</ele><time>2026-05-03T08:19:17.238Z</time></trkpt><trkpt lat="45.4177329" lon="10.5038327"><ele>116.0</ele><time>2026-05-03T08:19:25.238Z</time></trkpt><trkpt lat="45.4177825" lon="10.5039047"><ele>116.0</ele><time>2026-05-03T08:19:35.239Z</time></trkpt><trkpt lat="45.4178075" lon="10.5039901"><ele>116.0</ele><time>2026-05-03T08:19:44.238Z</time></trkpt><trkpt lat="45.4178652" lon="10.5041118"><ele>116.0</ele><time>2026-05-03T08:19:46.238Z</time></trkpt><trkpt lat="45.4179297" lon="10.5042497"><ele>116.0</ele><time>2026-05-03T08:19:48.239Z</time></trkpt><trkpt lat="45.4179879" lon="10.5043692"><ele>116.0</ele><time>2026-05-03T08:19:50.239Z</time></trkpt><trkpt lat="45.4180352" lon="10.5044941"><ele>116.4</ele><time>2026-05-03T08:19:52.239Z</time></trkpt><trkpt lat="45.4180774" lon="10.504628"><ele>116.8</ele><time>2026-05-03T08:19:54.238Z</time></trkpt><trkpt lat="45.4181355" lon="10.5047728"><ele>117.20000000000002</ele><time>2026-05-03T08:19:56.239Z</time></trkpt><trkpt lat="45.4182015" lon="10.504929"><ele>117.60000000000001</ele><time>2026-05-03T08:19:58.239Z</time></trkpt><trkpt lat="45.4182385" lon="10.5050191"><ele>118.0</ele><time>2026-05-03T08:19:59.238Z</time></trkpt><trkpt lat="45.4182788" lon="10.5051117"><ele>118.00000000000001</ele><time>2026-05-03T08:20:00.238Z</time></trkpt><trkpt lat="45.4183201" lon="10.5052033"><ele>118.0</ele><time>2026-05-03T08:20:01.239Z</time></trkpt><trkpt lat="45.418362" lon="10.505303"><ele>118.0</ele><time>2026-05-03T08:20:02.239Z</time></trkpt><trkpt lat="45.4184019" lon="10.5053955"><ele>118.0</ele><time>2026-05-03T08:20:03.239Z</time></trkpt><trkpt lat="45.4184428" lon="10.5054849"><ele>118.00000000000001</ele><time>2026-05-03T08:20:04.238Z</time></trkpt><trkpt lat="45.418482" lon="10.5055733"><ele>118.0</ele><time>2026-05-03T08:20:05.239Z</time></trkpt><trkpt lat="45.4185201" lon="10.5056634"><ele>118.00000000000001</ele><time>2026-05-03T08:20:06.239Z</time></trkpt><trkpt lat="45.418561" lon="10.5057558"><ele>118.0</ele><time>2026-05-03T08:20:07.239Z</time></trkpt><trkpt lat="45.4185992" lon="10.5058554"><ele>118.0</ele><time>2026-05-03T08:20:08.239Z</time></trkpt><trkpt lat="45.41864" lon="10.5059608"><ele>118.0</ele><time>2026-05-03T08:20:09.238Z</time></trkpt><trkpt lat="45.418685" lon="10.506063"><ele>118.00000000000001</ele><time>2026-05-03T08:20:10.239Z</time></trkpt><trkpt lat="45.4187324" lon="10.5061696"><ele>118.0</ele><time>2026-05-03T08:20:11.238Z</time></trkpt><trkpt lat="45.41878" lon="10.5062772"><ele>118.00000000000001</ele><time>2026-05-03T08:20:12.238Z</time></trkpt><trkpt lat="45.418821" lon="10.5063877"><ele>118.0</ele><time>2026-05-03T08:20:13.239Z</time></trkpt><trkpt lat="45.4188608" lon="10.5064936"><ele>118.0</ele><time>2026-05-03T08:20:14.239Z</time></trkpt><trkpt lat="45.4189028" lon="10.5066004"><ele>118.0</ele><time>2026-05-03T08:20:15.239Z</time></trkpt><trkpt lat="45.4189393" lon="10.5067161"><ele>118.00000000000001</ele><time>2026-05-03T08:20:16.239Z</time></trkpt><trkpt lat="45.418977" lon="10.5068354"><ele>118.0</ele><time>2026-05-03T08:20:17.238Z</time></trkpt><trkpt lat="45.4190177" lon="10.5069521"><ele>118.0</ele><time>2026-05-03T08:20:18.238Z</time></trkpt><trkpt lat="45.4190583" lon="10.5070713"><ele>118.00000000000001</ele><time>2026-05-03T08:20:19.238Z</time></trkpt><trkpt lat="45.4190988" lon="10.5071881"><ele>118.00000000000001</ele><time>2026-05-03T08:20:20.239Z</time></trkpt><trkpt lat="45.4191463" lon="10.5073039"><ele>118.0</ele><time>2026-05-03T08:20:21.239Z</time></trkpt><trkpt lat="45.4191924" lon="10.5074199"><ele>118.0</ele><time>2026-05-03T08:20:22.238Z</time></trkpt><trkpt lat="45.4192335" lon="10.5075427"><ele>117.4</ele><time>2026-05-03T08:20:23.238Z</time></trkpt><trkpt lat="45.4192768" lon="10.507666"><ele>116.80000000000001</ele><time>2026-05-03T08:20:24.238Z</time></trkpt><trkpt lat="45.419324" lon="10.5077907"><ele>116.2</ele><time>2026-05-03T08:20:25.239Z</time></trkpt><trkpt lat="45.4193707" lon="10.5079176"><ele>115.6</ele><time>2026-05-03T08:20:26.239Z</time></trkpt><trkpt lat="45.4194175" lon="10.5080432"><ele>115.0</ele><time>2026-05-03T08:20:27.238Z</time></trkpt><trkpt lat="45.419463" lon="10.5081713"><ele>115.0</ele><time>2026-05-03T08:20:28.238Z</time></trkpt><trkpt lat="45.4195057" lon="10.5083027"><ele>115.0</ele><time>2026-05-03T08:20:29.238Z</time></trkpt><trkpt lat="45.4195452" lon="10.5084267"><ele>115.0</ele><time>2026-05-03T08:20:30.239Z</time></trkpt><trkpt lat="45.4195897" lon="10.5085567"><ele>115.0</ele><time>2026-05-03T08:20:31.238Z</time></trkpt><trkpt lat="45.4196305" lon="10.5086861"><ele>115.0</ele><time>2026-05-03T08:20:32.238Z</time></trkpt><trkpt lat="45.4196743" lon="10.5088143"><ele>115.6</ele><time>2026-05-03T08:20:33.238Z</time></trkpt><trkpt lat="45.4197166" lon="10.5089362"><ele>116.2</ele><time>2026-05-03T08:20:34.239Z</time></trkpt><trkpt lat="45.4197595" lon="10.5090552"><ele>116.80000000000001</ele><time>2026-05-03T08:20:35.239Z</time></trkpt><trkpt lat="45.4198051" lon="10.5091728"><ele>117.4</ele><time>2026-05-03T08:20:36.238Z</time></trkpt><trkpt lat="45.4198453" lon="10.50929"><ele>118.0</ele><time>2026-05-03T08:20:37.239Z</time></trkpt><trkpt lat="45.4198874" lon="10.5094019"><ele>118.00000000000001</ele><time>2026-05-03T08:20:38.239Z</time></trkpt><trkpt lat="45.4199269" lon="10.5095166"><ele>118.0</ele><time>2026-05-03T08:20:39.239Z</time></trkpt><trkpt lat="45.41997" lon="10.5096259"><ele>118.0</ele><time>2026-05-03T08:20:40.239Z</time></trkpt><trkpt lat="45.4200107" lon="10.5097415"><ele>118.0</ele><time>2026-05-03T08:20:41.238Z</time></trkpt><trkpt lat="45.4200501" lon="10.5098518"><ele>118.00000000000001</ele><time>2026-05-03T08:20:42.238Z</time></trkpt><trkpt lat="45.4200921" lon="10.5099655"><ele>118.0</ele><time>2026-05-03T08:20:43.238Z</time></trkpt><trkpt lat="45.4201355" lon="10.5100831"><ele>118.0</ele><time>2026-05-03T08:20:44.238Z</time></trkpt><trkpt lat="45.4201798" lon="10.5102107"><ele>118.00000000000001</ele><time>2026-05-03T08:20:45.239Z</time></trkpt><trkpt lat="45.4202293" lon="10.5103531"><ele>118.00000000000001</ele><time>2026-05-03T08:20:46.238Z</time></trkpt><trkpt lat="45.4202742" lon="10.51049"><ele>118.0</ele><time>2026-05-03T08:20:47.239Z</time></trkpt><trkpt lat="45.4203198" lon="10.5106115"><ele>118.0</ele><time>2026-05-03T08:20:48.238Z</time></trkpt><trkpt lat="45.420358" lon="10.5107223"><ele>118.00000000000001</ele><time>2026-05-03T08:20:49.239Z</time></trkpt><trkpt lat="45.4203884" lon="10.5108238"><ele>118.0</ele><time>2026-05-03T08:20:50.238Z</time></trkpt><trkpt lat="45.4204114" lon="10.5109238"><ele>118.0</ele><time>2026-05-03T08:20:51.239Z</time></trkpt><trkpt lat="45.4204227" lon="10.5110142"><ele>118.0</ele><time>2026-05-03T08:20:52.238Z</time></trkpt><trkpt lat="45.4204358" lon="10.51118"><ele>118.00000000000001</ele><time>2026-05-03T08:20:54.238Z</time></trkpt><trkpt lat="45.4204601" lon="10.511287"><ele>118.0</ele><time>2026-05-03T08:20:56.238Z</time></trkpt><trkpt lat="45.4205086" lon="10.5113618"><ele>118.75</ele><time>2026-05-03T08:20:58.239Z</time></trkpt><trkpt lat="45.4206108" lon="10.5115216"><ele>119.5</ele><time>2026-05-03T08:21:00.238Z</time></trkpt><trkpt lat="45.4206734" lon="10.511635"><ele>120.25</ele><time>2026-05-03T08:21:01.238Z</time></trkpt><trkpt lat="45.4207419" lon="10.5117409"><ele>121.0</ele><time>2026-05-03T08:21:02.238Z</time></trkpt><trkpt lat="45.4208242" lon="10.5118331"><ele>121.0</ele><time>2026-05-03T08:21:03.239Z</time></trkpt><trkpt lat="45.420918" lon="10.5119045"><ele>121.0</ele><time>2026-05-03T08:21:04.24Z</time></trkpt><trkpt lat="45.4210266" lon="10.5119575"><ele>121.0</ele><time>2026-05-03T08:21:05.239Z</time></trkpt><trkpt lat="45.4211363" lon="10.5119871"><ele>121.0</ele><time>2026-05-03T08:21:06.239Z</time></trkpt><trkpt lat="45.4212335" lon="10.5119582"><ele>121.0</ele><time>2026-05-03T08:21:07.239Z</time></trkpt><trkpt lat="45.4213284" lon="10.5119179"><ele>121.0</ele><time>2026-05-03T08:21:08.239Z</time></trkpt><trkpt lat="45.4214205" lon="10.5118383"><ele>121.0</ele><time>2026-05-03T08:21:09.238Z</time></trkpt><trkpt lat="45.4215004" lon="10.5117387"><ele>121.0</ele><time>2026-05-03T08:21:10.239Z</time></trkpt><trkpt lat="45.4215665" lon="10.5116249"><ele>121.0</ele><time>2026-05-03T08:21:11.238Z</time></trkpt><trkpt lat="45.4216097" lon="10.5114876"><ele>121.0</ele><time>2026-05-03T08:21:12.239Z</time></trkpt><trkpt lat="45.4216313" lon="10.5113348"><ele>120.75</ele><time>2026-05-03T08:21:13.238Z</time></trkpt><trkpt lat="45.4216316" lon="10.5111756"><ele>120.5</ele><time>2026-05-03T08:21:14.238Z</time></trkpt><trkpt lat="45.4216049" lon="10.5110111"><ele>120.25</ele><time>2026-05-03T08:21:15.238Z</time></trkpt><trkpt lat="45.4215575" lon="10.510846"><ele>120.0</ele><time>2026-05-03T08:21:16.239Z</time></trkpt><trkpt lat="45.4214876" lon="10.5106886"><ele>120.0</ele><time>2026-05-03T08:21:17.238Z</time></trkpt><trkpt lat="45.4214254" lon="10.5105432"><ele>120.0</ele><time>2026-05-03T08:21:18.238Z</time></trkpt><trkpt lat="45.4213875" lon="10.5103939"><ele>120.0</ele><time>2026-05-03T08:21:19.239Z</time></trkpt><trkpt lat="45.4213418" lon="10.5102484"><ele>120.0</ele><time>2026-05-03T08:21:20.238Z</time></trkpt><trkpt lat="45.4212652" lon="10.5101054"><ele>119.5</ele><time>2026-05-03T08:21:21.238Z</time></trkpt><trkpt lat="45.4211617" lon="10.5099651"><ele>119.0</ele><time>2026-05-03T08:21:22.238Z</time></trkpt><trkpt lat="45.4210461" lon="10.50982"><ele>118.5</ele><time>2026-05-03T08:21:23.239Z</time></trkpt><trkpt lat="45.4209473" lon="10.5096774"><ele>118.0</ele><time>2026-05-03T08:21:24.239Z</time></trkpt><trkpt lat="45.4208674" lon="10.5095323"><ele>117.25</ele><time>2026-05-03T08:21:25.24Z</time></trkpt><trkpt lat="45.4208021" lon="10.5093813"><ele>116.5</ele><time>2026-05-03T08:21:26.239Z</time></trkpt><trkpt lat="45.4207639" lon="10.5092149"><ele>115.75</ele><time>2026-05-03T08:21:27.239Z</time></trkpt><trkpt lat="45.4207169" lon="10.5090363"><ele>115.0</ele><time>2026-05-03T08:21:28.24Z</time></trkpt><trkpt lat="45.4206669" lon="10.5088334"><ele>115.75</ele><time>2026-05-03T08:21:29.24Z</time></trkpt><trkpt lat="45.4206162" lon="10.5086249"><ele>116.5</ele><time>2026-05-03T08:21:30.238Z</time></trkpt><trkpt lat="45.4205583" lon="10.508429"><ele>117.25</ele><time>2026-05-03T08:21:31.24Z</time></trkpt><trkpt lat="45.4204979" lon="10.5082484"><ele>118.0</ele><time>2026-05-03T08:21:32.239Z</time></trkpt><trkpt lat="45.420447" lon="10.5080901"><ele>118.0</ele><time>2026-05-03T08:21:33.238Z</time></trkpt><trkpt lat="45.4204186" lon="10.5079412"><ele>118.00000000000001</ele><time>2026-05-03T08:21:34.239Z</time></trkpt><trkpt lat="45.4204011" lon="10.5077958"><ele>118.00000000000001</ele><time>2026-05-03T08:21:35.239Z</time></trkpt><trkpt lat="45.4203987" lon="10.5076395"><ele>118.0</ele><time>2026-05-03T08:21:36.239Z</time></trkpt><trkpt lat="45.4204069" lon="10.5074712"><ele>118.0</ele><time>2026-05-03T08:21:37.238Z</time></trkpt><trkpt lat="45.4204183" lon="10.5073057"><ele>118.2</ele><time>2026-05-03T08:21:38.239Z</time></trkpt><trkpt lat="45.4204289" lon="10.5071488"><ele>118.4</ele><time>2026-05-03T08:21:39.238Z</time></trkpt><trkpt lat="45.4204413" lon="10.5069952"><ele>118.60000000000001</ele><time>2026-05-03T08:21:40.238Z</time></trkpt><trkpt lat="45.4204559" lon="10.5068456"><ele>118.80000000000001</ele><time>2026-05-03T08:21:41.24Z</time></trkpt><trkpt lat="45.4204796" lon="10.506692"><ele>119.0</ele><time>2026-05-03T08:21:42.239Z</time></trkpt><trkpt lat="45.4205002" lon="10.506522"><ele>119.5</ele><time>2026-05-03T08:21:43.239Z</time></trkpt><trkpt lat="45.4205237" lon="10.5063356"><ele>120.0</ele><time>2026-05-03T08:21:44.239Z</time></trkpt><trkpt lat="45.4205512" lon="10.5061388"><ele>120.5</ele><time>2026-05-03T08:21:45.238Z</time></trkpt><trkpt lat="45.4205693" lon="10.50595"><ele>121.0</ele><time>2026-05-03T08:21:46.24Z</time></trkpt><trkpt lat="45.4205913" lon="10.505775"><ele>121.0</ele><time>2026-05-03T08:21:47.239Z</time></trkpt><trkpt lat="45.4206137" lon="10.5056069"><ele>121.0</ele><time>2026-05-03T08:21:48.238Z</time></trkpt><trkpt lat="45.4206398" lon="10.5054342"><ele>121.0</ele><time>2026-05-03T08:21:49.239Z</time></trkpt><trkpt lat="45.4206685" lon="10.5052563"><ele>121.0</ele><time>2026-05-03T08:21:50.239Z</time></trkpt><trkpt lat="45.4206903" lon="10.5050862"><ele>121.0</ele><time>2026-05-03T08:21:51.239Z</time></trkpt><trkpt lat="45.4207069" lon="10.5049259"><ele>121.0</ele><time>2026-05-03T08:21:52.239Z</time></trkpt><trkpt lat="45.4207213" lon="10.5047728"><ele>121.0</ele><time>2026-05-03T08:21:53.238Z</time></trkpt><trkpt lat="45.4207372" lon="10.5046255"><ele>121.0</ele><time>2026-05-03T08:21:54.238Z</time></trkpt><trkpt lat="45.420768" lon="10.5044737"><ele>121.0</ele><time>2026-05-03T08:21:55.238Z</time></trkpt><trkpt lat="45.420813" lon="10.5043365"><ele>121.75</ele><time>2026-05-03T08:21:56.238Z</time></trkpt><trkpt lat="45.4208683" lon="10.504209"><ele>122.5</ele><time>2026-05-03T08:21:57.238Z</time></trkpt><trkpt lat="45.4209437" lon="10.5040801"><ele>123.25</ele><time>2026-05-03T08:21:58.238Z</time></trkpt><trkpt lat="45.4210207" lon="10.5039228"><ele>124.0</ele><time>2026-05-03T08:21:59.239Z</time></trkpt><trkpt lat="45.4210829" lon="10.5037382"><ele>124.25</ele><time>2026-05-03T08:22:00.238Z</time></trkpt><trkpt lat="45.4211487" lon="10.5035493"><ele>124.5</ele><time>2026-05-03T08:22:01.239Z</time></trkpt><trkpt lat="45.4211859" lon="10.5033664"><ele>124.75</ele><time>2026-05-03T08:22:02.238Z</time></trkpt><trkpt lat="45.4212392" lon="10.5032157"><ele>125.0</ele><time>2026-05-03T08:22:03.239Z</time></trkpt><trkpt lat="45.4212877" lon="10.5031258"><ele>124.83333333333333</ele><time>2026-05-03T08:22:04.239Z</time></trkpt><trkpt lat="45.4213575" lon="10.5030827"><ele>124.66666666666666</ele><time>2026-05-03T08:22:06.238Z</time></trkpt><trkpt lat="45.4214362" lon="10.5031469"><ele>124.5</ele><time>2026-05-03T08:22:08.238Z</time></trkpt><trkpt lat="45.4214906" lon="10.5032147"><ele>124.33333333333334</ele><time>2026-05-03T08:22:09.238Z</time></trkpt><trkpt lat="45.4215445" lon="10.5032846"><ele>124.16666666666667</ele><time>2026-05-03T08:22:10.238Z</time></trkpt><trkpt lat="45.4215987" lon="10.5033483"><ele>124.0</ele><time>2026-05-03T08:22:11.239Z</time></trkpt><trkpt lat="45.4216577" lon="10.503414"><ele>124.00000000000001</ele><time>2026-05-03T08:22:12.238Z</time></trkpt><trkpt lat="45.4217171" lon="10.5034766"><ele>124.0</ele><time>2026-05-03T08:22:13.239Z</time></trkpt><trkpt lat="45.4217896" lon="10.5035243"><ele>124.0</ele><time>2026-05-03T08:22:14.238Z</time></trkpt><trkpt lat="45.4218616" lon="10.5035618"><ele>124.0</ele><time>2026-05-03T08:22:15.238Z</time></trkpt><trkpt lat="45.4219376" lon="10.5035942"><ele>124.00000000000001</ele><time>2026-05-03T08:22:16.239Z</time></trkpt><trkpt lat="45.4220121" lon="10.5036221"><ele>124.0</ele><time>2026-05-03T08:22:17.24Z</time></trkpt><trkpt lat="45.4220869" lon="10.5036568"><ele>123.80000000000001</ele><time>2026-05-03T08:22:18.238Z</time></trkpt><trkpt lat="45.4221667" lon="10.5036892"><ele>123.60000000000001</ele><time>2026-05-03T08:22:19.239Z</time></trkpt><trkpt lat="45.4222509" lon="10.5037249"><ele>123.4</ele><time>2026-05-03T08:22:20.238Z</time></trkpt><trkpt lat="45.4223374" lon="10.503763"><ele>123.2</ele><time>2026-05-03T08:22:21.238Z</time></trkpt><trkpt lat="45.422437" lon="10.5038039"><ele>123.0</ele><time>2026-05-03T08:22:22.238Z</time></trkpt><trkpt lat="45.4225364" lon="10.5038522"><ele>123.0</ele><time>2026-05-03T08:22:23.238Z</time></trkpt><trkpt lat="45.4226335" lon="10.5039018"><ele>123.00000000000001</ele><time>2026-05-03T08:22:24.238Z</time></trkpt><trkpt lat="45.4227253" lon="10.5039556"><ele>123.00000000000001</ele><time>2026-05-03T08:22:25.24Z</time></trkpt><trkpt lat="45.4228151" lon="10.504005"><ele>123.0</ele><time>2026-05-03T08:22:26.238Z</time></trkpt><trkpt lat="45.4228996" lon="10.5040556"><ele>123.0</ele><time>2026-05-03T08:22:27.238Z</time></trkpt><trkpt lat="45.4229822" lon="10.5041026"><ele>123.80000000000001</ele><time>2026-05-03T08:22:28.238Z</time></trkpt><trkpt lat="45.4230649" lon="10.5041526"><ele>124.60000000000001</ele><time>2026-05-03T08:22:29.238Z</time></trkpt><trkpt lat="45.4231469" lon="10.5042082"><ele>125.39999999999999</ele><time>2026-05-03T08:22:30.238Z</time></trkpt><trkpt lat="45.4232268" lon="10.5042639"><ele>126.19999999999999</ele><time>2026-05-03T08:22:31.239Z</time></trkpt><trkpt lat="45.4233083" lon="10.5043265"><ele>127.0</ele><time>2026-05-03T08:22:32.238Z</time></trkpt><trkpt lat="45.4233834" lon="10.5043956"><ele>127.00000000000001</ele><time>2026-05-03T08:22:33.238Z</time></trkpt><trkpt lat="45.4234599" lon="10.5044651"><ele>127.0</ele><time>2026-05-03T08:22:34.24Z</time></trkpt><trkpt lat="45.4235372" lon="10.5045381"><ele>127.0</ele><time>2026-05-03T08:22:35.24Z</time></trkpt><trkpt lat="45.4236111" lon="10.504608"><ele>127.0</ele><time>2026-05-03T08:22:36.238Z</time></trkpt><trkpt lat="45.423685" lon="10.5046725"><ele>127.00000000000001</ele><time>2026-05-03T08:22:37.239Z</time></trkpt><trkpt lat="45.4237613" lon="10.5047289"><ele>127.0</ele><time>2026-05-03T08:22:38.239Z</time></trkpt><trkpt lat="45.4238358" lon="10.5047826"><ele>127.33333333333334</ele><time>2026-05-03T08:22:39.238Z</time></trkpt><trkpt lat="45.4239139" lon="10.504826"><ele>127.66666666666667</ele><time>2026-05-03T08:22:40.238Z</time></trkpt><trkpt lat="45.4239925" lon="10.5048639"><ele>128.0</ele><time>2026-05-03T08:22:41.239Z</time></trkpt><trkpt lat="45.4240707" lon="10.5048907"><ele>128.33333333333334</ele><time>2026-05-03T08:22:42.239Z</time></trkpt><trkpt lat="45.4241449" lon="10.5049119"><ele>128.66666666666666</ele><time>2026-05-03T08:22:43.239Z</time></trkpt><trkpt lat="45.4242164" lon="10.5049275"><ele>129.0</ele><time>2026-05-03T08:22:44.238Z</time></trkpt><trkpt lat="45.4242856" lon="10.5049414"><ele>129.0</ele><time>2026-05-03T08:22:45.24Z</time></trkpt><trkpt lat="45.4243569" lon="10.5049633"><ele>129.0</ele><time>2026-05-03T08:22:46.239Z</time></trkpt><trkpt lat="45.4244324" lon="10.5049771"><ele>129.0</ele><time>2026-05-03T08:22:47.239Z</time></trkpt><trkpt lat="45.4245147" lon="10.5049838"><ele>129.0</ele><time>2026-05-03T08:22:48.239Z</time></trkpt><trkpt lat="45.4246" lon="10.5049951"><ele>129.0</ele><time>2026-05-03T08:22:49.238Z</time></trkpt><trkpt lat="45.4246878" lon="10.5050011"><ele>129.0</ele><time>2026-05-03T08:22:50.239Z</time></trkpt><trkpt lat="45.4247792" lon="10.505017"><ele>129.0</ele><time>2026-05-03T08:22:51.238Z</time></trkpt><trkpt lat="45.4248664" lon="10.5050223"><ele>129.0</ele><time>2026-05-03T08:22:52.238Z</time></trkpt><trkpt lat="45.4249627" lon="10.5050221"><ele>129.0</ele><time>2026-05-03T08:22:53.238Z</time></trkpt><trkpt lat="45.4250532" lon="10.5050329"><ele>129.0</ele><time>2026-05-03T08:22:54.238Z</time></trkpt><trkpt lat="45.425146" lon="10.5050442"><ele>129.0</ele><time>2026-05-03T08:22:55.238Z</time></trkpt><trkpt lat="45.4252439" lon="10.5050514"><ele>129.0</ele><time>2026-05-03T08:22:56.239Z</time></trkpt><trkpt lat="45.4253306" lon="10.5050527"><ele>129.0</ele><time>2026-05-03T08:22:57.238Z</time></trkpt><trkpt lat="45.4254116" lon="10.5050656"><ele>129.0</ele><time>2026-05-03T08:22:58.238Z</time></trkpt><trkpt lat="45.4254875" lon="10.5050633"><ele>129.0</ele><time>2026-05-03T08:22:59.238Z</time></trkpt><trkpt lat="45.4255653" lon="10.5050644"><ele>129.0</ele><time>2026-05-03T08:23:00.238Z</time></trkpt><trkpt lat="45.4256345" lon="10.5050515"><ele>129.0</ele><time>2026-05-03T08:23:01.239Z</time></trkpt><trkpt lat="45.4257044" lon="10.5050361"><ele>128.99999999999997</ele><time>2026-05-03T08:23:02.24Z</time></trkpt><trkpt lat="45.425773" lon="10.5050231"><ele>129.0</ele><time>2026-05-03T08:23:03.239Z</time></trkpt><trkpt lat="45.4258417" lon="10.5050076"><ele>129.0</ele><time>2026-05-03T08:23:04.239Z</time></trkpt><trkpt lat="45.4259122" lon="10.5049955"><ele>129.0</ele><time>2026-05-03T08:23:05.24Z</time></trkpt><trkpt lat="45.4259852" lon="10.5049795"><ele>129.0</ele><time>2026-05-03T08:23:06.239Z</time></trkpt><trkpt lat="45.4260677" lon="10.5049712"><ele>128.99999999999997</ele><time>2026-05-03T08:23:08.238Z</time></trkpt><trkpt lat="45.4259894" lon="10.5049389"><ele>129.0</ele><time>2026-05-03T08:24:31.238Z</time></trkpt><trkpt lat="45.4259085" lon="10.5049693"><ele>129.0</ele><time>2026-05-03T08:24:33.239Z</time></trkpt><trkpt lat="45.4258085" lon="10.5050061"><ele>129.0</ele><time>2026-05-03T08:24:35.239Z</time></trkpt><trkpt lat="45.4257015" lon="10.5050252"><ele>129.0</ele><time>2026-05-03T08:24:37.238Z</time></trkpt><trkpt lat="45.4256662" lon="10.5049445"><ele>129.0</ele><time>2026-05-03T08:24:41.238Z</time></trkpt><trkpt lat="45.4257236" lon="10.5048812"><ele>129.0</ele><time>2026-05-03T08:24:43.238Z</time></trkpt><trkpt lat="45.4258475" lon="10.5047938"><ele>129.0</ele><time>2026-05-03T08:24:45.238Z</time></trkpt><trkpt lat="45.4259239" lon="10.5047343"><ele>129.0</ele><time>2026-05-03T08:24:46.238Z</time></trkpt><trkpt lat="45.4259985" lon="10.5046668"><ele>129.0</ele><time>2026-05-03T08:24:47.238Z</time></trkpt><trkpt lat="45.426077" lon="10.5045956"><ele>129.0</ele><time>2026-05-03T08:24:48.24Z</time></trkpt><trkpt lat="45.4261559" lon="10.5045372"><ele>129.0</ele><time>2026-05-03T08:24:49.238Z</time></trkpt><trkpt lat="45.4262314" lon="10.5044764"><ele>129.0</ele><time>2026-05-03T08:24:50.239Z</time></trkpt><trkpt lat="45.4263094" lon="10.5043911"><ele>131.2</ele><time>2026-05-03T08:24:51.239Z</time></trkpt><trkpt lat="45.4263937" lon="10.5043085"><ele>133.4</ele><time>2026-05-03T08:24:52.238Z</time></trkpt><trkpt lat="45.4264792" lon="10.5042469"><ele>135.6</ele><time>2026-05-03T08:24:53.239Z</time></trkpt><trkpt lat="45.4265636" lon="10.5041968"><ele>137.8</ele><time>2026-05-03T08:24:54.238Z</time></trkpt><trkpt lat="45.4266527" lon="10.504178"><ele>140.0</ele><time>2026-05-03T08:24:55.238Z</time></trkpt><trkpt lat="45.4267375" lon="10.5041672"><ele>140.0</ele><time>2026-05-03T08:24:56.239Z</time></trkpt><trkpt lat="45.4268296" lon="10.504162"><ele>140.0</ele><time>2026-05-03T08:24:57.239Z</time></trkpt><trkpt lat="45.4269179" lon="10.50415"><ele>140.0</ele><time>2026-05-03T08:24:58.238Z</time></trkpt><trkpt lat="45.426998" lon="10.5041628"><ele>140.0</ele><time>2026-05-03T08:24:59.238Z</time></trkpt><trkpt lat="45.4270913" lon="10.5041738"><ele>140.0</ele><time>2026-05-03T08:25:00.238Z</time></trkpt><trkpt lat="45.4271868" lon="10.5041696"><ele>139.85714285714286</ele><time>2026-05-03T08:25:01.239Z</time></trkpt><trkpt lat="45.4272636" lon="10.504168"><ele>139.71428571428572</ele><time>2026-05-03T08:25:02.238Z</time></trkpt><trkpt lat="45.4273339" lon="10.5041643"><ele>139.57142857142856</ele><time>2026-05-03T08:25:03.238Z</time></trkpt><trkpt lat="45.4274044" lon="10.5041414"><ele>139.42857142857144</ele><time>2026-05-03T08:25:04.238Z</time></trkpt><trkpt lat="45.4274701" lon="10.5041327"><ele>139.28571428571428</ele><time>2026-05-03T08:25:05.238Z</time></trkpt><trkpt lat="45.427535" lon="10.5040991"><ele>139.14285714285714</ele><time>2026-05-03T08:25:06.239Z</time></trkpt><trkpt lat="45.4276008" lon="10.5040498"><ele>139.0</ele><time>2026-05-03T08:25:07.238Z</time></trkpt><trkpt lat="45.4276594" lon="10.5039948"><ele>139.0</ele><time>2026-05-03T08:25:08.238Z</time></trkpt><trkpt lat="45.4277167" lon="10.5039512"><ele>139.0</ele><time>2026-05-03T08:25:09.239Z</time></trkpt><trkpt lat="45.4278468" lon="10.5038702"><ele>139.0</ele><time>2026-05-03T08:25:11.238Z</time></trkpt><trkpt lat="45.4279175" lon="10.5038295"><ele>139.0</ele><time>2026-05-03T08:25:12.239Z</time></trkpt><trkpt lat="45.4280261" lon="10.5037513"><ele>139.0</ele><time>2026-05-03T08:25:14.238Z</time></trkpt><trkpt lat="45.4280782" lon="10.5036917"><ele>140.83333333333334</ele><time>2026-05-03T08:25:15.238Z</time></trkpt><trkpt lat="45.4281245" lon="10.5036183"><ele>142.66666666666669</ele><time>2026-05-03T08:25:16.239Z</time></trkpt><trkpt lat="45.4281788" lon="10.5035102"><ele>144.5</ele><time>2026-05-03T08:25:17.238Z</time></trkpt><trkpt lat="45.4282197" lon="10.5034007"><ele>146.33333333333334</ele><time>2026-05-03T08:25:18.239Z</time></trkpt><trkpt lat="45.428273" lon="10.5033116"><ele>148.16666666666666</ele><time>2026-05-03T08:25:19.238Z</time></trkpt><trkpt lat="45.4283478" lon="10.5032403"><ele>150.0</ele><time>2026-05-03T08:25:20.239Z</time></trkpt><trkpt lat="45.4284344" lon="10.5031843"><ele>150.0</ele><time>2026-05-03T08:25:21.239Z</time></trkpt><trkpt lat="45.4285152" lon="10.503146"><ele>150.0</ele><time>2026-05-03T08:25:22.239Z</time></trkpt><trkpt lat="45.4285934" lon="10.5031005"><ele>150.0</ele><time>2026-05-03T08:25:23.238Z</time></trkpt><trkpt lat="45.4286506" lon="10.5030513"><ele>150.0</ele><time>2026-05-03T08:25:24.238Z</time></trkpt><trkpt lat="45.4287295" lon="10.5029395"><ele>150.0</ele><time>2026-05-03T08:25:26.238Z</time></trkpt><trkpt lat="45.4288046" lon="10.5027743"><ele>150.5</ele><time>2026-05-03T08:25:28.238Z</time></trkpt><trkpt lat="45.428844" lon="10.5026801"><ele>151.0</ele><time>2026-05-03T08:25:29.239Z</time></trkpt><trkpt lat="45.4288898" lon="10.5025517"><ele>151.5</ele><time>2026-05-03T08:25:30.239Z</time></trkpt><trkpt lat="45.4289206" lon="10.5024444"><ele>152.0</ele><time>2026-05-03T08:25:31.238Z</time></trkpt><trkpt lat="45.428954" lon="10.5023271"><ele>152.5</ele><time>2026-05-03T08:25:32.238Z</time></trkpt><trkpt lat="45.4289903" lon="10.5022215"><ele>153.0</ele><time>2026-05-03T08:25:33.239Z</time></trkpt><trkpt lat="45.4290258" lon="10.5021283"><ele>152.71428571428572</ele><time>2026-05-03T08:25:34.239Z</time></trkpt><trkpt lat="45.4290582" lon="10.502034"><ele>152.42857142857144</ele><time>2026-05-03T08:25:35.238Z</time></trkpt><trkpt lat="45.4290873" lon="10.5019409"><ele>152.14285714285717</ele><time>2026-05-03T08:25:36.238Z</time></trkpt><trkpt lat="45.4291265" lon="10.5018533"><ele>151.85714285714286</ele><time>2026-05-03T08:25:37.239Z</time></trkpt><trkpt lat="45.4291712" lon="10.5017642"><ele>151.57142857142858</ele><time>2026-05-03T08:25:38.239Z</time></trkpt><trkpt lat="45.4292228" lon="10.5016822"><ele>151.2857142857143</ele><time>2026-05-03T08:25:39.238Z</time></trkpt><trkpt lat="45.4292793" lon="10.5016083"><ele>151.0</ele><time>2026-05-03T08:25:40.239Z</time></trkpt><trkpt lat="45.429339" lon="10.5015324"><ele>151.0</ele><time>2026-05-03T08:25:41.239Z</time></trkpt><trkpt lat="45.4294067" lon="10.5014422"><ele>151.0</ele><time>2026-05-03T08:25:42.238Z</time></trkpt><trkpt lat="45.4294723" lon="10.5013402"><ele>151.0</ele><time>2026-05-03T08:25:43.239Z</time></trkpt><trkpt lat="45.4295418" lon="10.5012247"><ele>151.0</ele><time>2026-05-03T08:25:44.239Z</time></trkpt><trkpt lat="45.4295999" lon="10.5010944"><ele>151.0</ele><time>2026-05-03T08:25:45.238Z</time></trkpt><trkpt lat="45.4296609" lon="10.5009727"><ele>150.8</ele><time>2026-05-03T08:25:46.239Z</time></trkpt><trkpt lat="45.4297124" lon="10.5008946"><ele>150.6</ele><time>2026-05-03T08:25:47.238Z</time></trkpt><trkpt lat="45.4297694" lon="10.5008059"><ele>150.4</ele><time>2026-05-03T08:25:49.24Z</time></trkpt><trkpt lat="45.4297773" lon="10.5006872"><ele>150.2</ele><time>2026-05-03T08:25:57.238Z</time></trkpt><trkpt lat="45.429665" lon="10.5005886"><ele>150.0</ele><time>2026-05-03T08:25:59.24Z</time></trkpt><trkpt lat="45.4295889" lon="10.5005154"><ele>150.0</ele><time>2026-05-03T08:26:00.239Z</time></trkpt><trkpt lat="45.4295021" lon="10.5004258"><ele>150.0</ele><time>2026-05-03T08:26:01.239Z</time></trkpt><trkpt lat="45.4294182" lon="10.5003387"><ele>150.0</ele><time>2026-05-03T08:26:02.238Z</time></trkpt><trkpt lat="45.4293383" lon="10.5002597"><ele>150.0</ele><time>2026-05-03T08:26:03.238Z</time></trkpt><trkpt lat="45.429265" lon="10.5001932"><ele>150.0</ele><time>2026-05-03T08:26:04.238Z</time></trkpt><trkpt lat="45.4291954" lon="10.5001388"><ele>149.83333333333334</ele><time>2026-05-03T08:26:05.239Z</time></trkpt><trkpt lat="45.4291374" lon="10.500086"><ele>149.66666666666666</ele><time>2026-05-03T08:26:06.238Z</time></trkpt><trkpt lat="45.4290886" lon="10.5000246"><ele>149.5</ele><time>2026-05-03T08:26:07.238Z</time></trkpt><trkpt lat="45.4290381" lon="10.4999685"><ele>149.33333333333331</ele><time>2026-05-03T08:26:08.238Z</time></trkpt><trkpt lat="45.4289677" lon="10.4998269"><ele>149.16666666666666</ele><time>2026-05-03T08:26:10.238Z</time></trkpt><trkpt lat="45.4289698" lon="10.4996609"><ele>149.0</ele><time>2026-05-03T08:26:12.238Z</time></trkpt><trkpt lat="45.4289947" lon="10.4995612"><ele>147.75</ele><time>2026-05-03T08:26:13.239Z</time></trkpt><trkpt lat="45.4290372" lon="10.4994352"><ele>146.5</ele><time>2026-05-03T08:26:14.238Z</time></trkpt><trkpt lat="45.4290766" lon="10.4992889"><ele>145.25</ele><time>2026-05-03T08:26:15.238Z</time></trkpt><trkpt lat="45.429125" lon="10.499134"><ele>144.0</ele><time>2026-05-03T08:26:16.239Z</time></trkpt><trkpt lat="45.4291801" lon="10.49896"><ele>144.0</ele><time>2026-05-03T08:26:17.238Z</time></trkpt><trkpt lat="45.4292372" lon="10.4987615"><ele>144.0</ele><time>2026-05-03T08:26:18.238Z</time></trkpt><trkpt lat="45.4292941" lon="10.4985721"><ele>144.0</ele><time>2026-05-03T08:26:19.239Z</time></trkpt><trkpt lat="45.4293458" lon="10.4983855"><ele>144.0</ele><time>2026-05-03T08:26:20.24Z</time></trkpt><trkpt lat="45.4293969" lon="10.4981826"><ele>143.5</ele><time>2026-05-03T08:26:21.238Z</time></trkpt><trkpt lat="45.4294468" lon="10.4979936"><ele>143.0</ele><time>2026-05-03T08:26:22.238Z</time></trkpt><trkpt lat="45.4294971" lon="10.4978096"><ele>142.5</ele><time>2026-05-03T08:26:23.238Z</time></trkpt><trkpt lat="45.4295483" lon="10.4976093"><ele>142.0</ele><time>2026-05-03T08:26:24.239Z</time></trkpt><trkpt lat="45.4295966" lon="10.4974261"><ele>142.33333333333334</ele><time>2026-05-03T08:26:25.238Z</time></trkpt><trkpt lat="45.4296908" lon="10.4970872"><ele>142.66666666666666</ele><time>2026-05-03T08:26:27.239Z</time></trkpt><trkpt lat="45.4297432" lon="10.4969121"><ele>143.0</ele><time>2026-05-03T08:26:28.239Z</time></trkpt><trkpt lat="45.4297904" lon="10.4967359"><ele>143.0</ele><time>2026-05-03T08:26:29.239Z</time></trkpt><trkpt lat="45.4298349" lon="10.4965684"><ele>143.0</ele><time>2026-05-03T08:26:30.238Z</time></trkpt><trkpt lat="45.4298714" lon="10.496413"><ele>143.0</ele><time>2026-05-03T08:26:31.239Z</time></trkpt><trkpt lat="45.4299023" lon="10.4962687"><ele>143.0</ele><time>2026-05-03T08:26:32.238Z</time></trkpt><trkpt lat="45.4299302" lon="10.4961413"><ele>143.0</ele><time>2026-05-03T08:26:33.238Z</time></trkpt><trkpt lat="45.4299594" lon="10.4960243"><ele>144.16666666666666</ele><time>2026-05-03T08:26:34.239Z</time></trkpt><trkpt lat="45.4299985" lon="10.49593"><ele>145.33333333333331</ele><time>2026-05-03T08:26:35.239Z</time></trkpt><trkpt lat="45.4300413" lon="10.4958563"><ele>146.5</ele><time>2026-05-03T08:26:36.239Z</time></trkpt><trkpt lat="45.4301309" lon="10.4957953"><ele>147.66666666666666</ele><time>2026-05-03T08:26:38.24Z</time></trkpt><trkpt lat="45.4302169" lon="10.4958078"><ele>148.83333333333334</ele><time>2026-05-03T08:26:40.239Z</time></trkpt><trkpt lat="45.4302617" lon="10.4957268"><ele>150.0</ele><time>2026-05-03T08:26:49.238Z</time></trkpt><trkpt lat="45.4302323" lon="10.49563"><ele>150.0</ele><time>2026-05-03T08:26:51.239Z</time></trkpt><trkpt lat="45.4301728" lon="10.4955157"><ele>150.0</ele><time>2026-05-03T08:26:53.239Z</time></trkpt><trkpt lat="45.4300863" lon="10.4954015"><ele>150.0</ele><time>2026-05-03T08:26:55.238Z</time></trkpt><trkpt lat="45.4300352" lon="10.4953443"><ele>150.0</ele><time>2026-05-03T08:26:56.239Z</time></trkpt><trkpt lat="45.4299845" lon="10.4952798"><ele>150.0</ele><time>2026-05-03T08:26:57.239Z</time></trkpt><trkpt lat="45.4299276" lon="10.4952195"><ele>150.0</ele><time>2026-05-03T08:26:58.238Z</time></trkpt><trkpt lat="45.4298741" lon="10.4951627"><ele>151.0</ele><time>2026-05-03T08:26:59.238Z</time></trkpt><trkpt lat="45.4298241" lon="10.4951075"><ele>152.0</ele><time>2026-05-03T08:27:00.238Z</time></trkpt><trkpt lat="45.4297273" lon="10.4950078"><ele>153.0</ele><time>2026-05-03T08:27:02.239Z</time></trkpt><trkpt lat="45.4296752" lon="10.4949568"><ele>154.0</ele><time>2026-05-03T08:27:03.238Z</time></trkpt><trkpt lat="45.4295933" lon="10.4948555"><ele>155.0</ele><time>2026-05-03T08:27:05.238Z</time></trkpt><trkpt lat="45.4295585" lon="10.4947789"><ele>156.0</ele><time>2026-05-03T08:27:07.24Z</time></trkpt><trkpt lat="45.4295706" lon="10.4946531"><ele>155.0</ele><time>2026-05-03T08:27:10.238Z</time></trkpt><trkpt lat="45.429615" lon="10.4944883"><ele>154.0</ele><time>2026-05-03T08:27:12.238Z</time></trkpt><trkpt lat="45.4296389" lon="10.4943841"><ele>153.0</ele><time>2026-05-03T08:27:13.239Z</time></trkpt><trkpt lat="45.4296487" lon="10.4942837"><ele>152.0</ele><time>2026-05-03T08:27:14.239Z</time></trkpt><trkpt lat="45.4296457" lon="10.4941802"><ele>151.0</ele><time>2026-05-03T08:27:15.238Z</time></trkpt><trkpt lat="45.429629" lon="10.494073"><ele>150.0</ele><time>2026-05-03T08:27:16.238Z</time></trkpt><trkpt lat="45.4295917" lon="10.493988"><ele>150.0</ele><time>2026-05-03T08:27:17.239Z</time></trkpt><trkpt lat="45.4295405" lon="10.4938838"><ele>150.0</ele><time>2026-05-03T08:27:18.239Z</time></trkpt><trkpt lat="45.4294805" lon="10.4937776"><ele>150.0</ele><time>2026-05-03T08:27:19.239Z</time></trkpt><trkpt lat="45.4294143" lon="10.4936671"><ele>150.0</ele><time>2026-05-03T08:27:20.239Z</time></trkpt><trkpt lat="45.4293538" lon="10.4935533"><ele>150.0</ele><time>2026-05-03T08:27:21.238Z</time></trkpt><trkpt lat="45.4293162" lon="10.4934493"><ele>151.66666666666666</ele><time>2026-05-03T08:27:22.239Z</time></trkpt><trkpt lat="45.4292828" lon="10.4933475"><ele>153.33333333333334</ele><time>2026-05-03T08:27:23.239Z</time></trkpt><trkpt lat="45.4292711" lon="10.4932394"><ele>155.0</ele><time>2026-05-03T08:27:24.238Z</time></trkpt><trkpt lat="45.4292753" lon="10.4931375"><ele>156.66666666666669</ele><time>2026-05-03T08:27:25.239Z</time></trkpt><trkpt lat="45.4293072" lon="10.4930349"><ele>158.33333333333334</ele><time>2026-05-03T08:27:26.238Z</time></trkpt><trkpt lat="45.4293426" lon="10.4929503"><ele>160.0</ele><time>2026-05-03T08:27:27.238Z</time></trkpt><trkpt lat="45.4294124" lon="10.4928638"><ele>162.0</ele><time>2026-05-03T08:27:29.238Z</time></trkpt><trkpt lat="45.4294762" lon="10.4928471"><ele>164.0</ele><time>2026-05-03T08:27:47.239Z</time></trkpt><trkpt lat="45.4295607" lon="10.4929075"><ele>166.0</ele><time>2026-05-03T08:27:50.239Z</time></trkpt><trkpt lat="45.4296597" lon="10.4929617"><ele>168.0</ele><time>2026-05-03T08:27:52.239Z</time></trkpt><trkpt lat="45.4297614" lon="10.49302"><ele>170.0</ele><time>2026-05-03T08:27:54.238Z</time></trkpt><trkpt lat="45.4298497" lon="10.4930738"><ele>170.0</ele><time>2026-05-03T08:27:56.24Z</time></trkpt><trkpt lat="45.4299332" lon="10.4931258"><ele>170.0</ele><time>2026-05-03T08:27:58.24Z</time></trkpt><trkpt lat="45.4300256" lon="10.493187"><ele>170.0</ele><time>2026-05-03T08:28:00.238Z</time></trkpt><trkpt lat="45.4301284" lon="10.4932443"><ele>170.0</ele><time>2026-05-03T08:28:02.238Z</time></trkpt><trkpt lat="45.4302348" lon="10.4933035"><ele>170.0</ele><time>2026-05-03T08:28:04.238Z</time></trkpt><trkpt lat="45.4303325" lon="10.4933699"><ele>170.0</ele><time>2026-05-03T08:28:06.238Z</time></trkpt><trkpt lat="45.430433" lon="10.4934317"><ele>170.0</ele><time>2026-05-03T08:28:08.239Z</time></trkpt><trkpt lat="45.4305242" lon="10.4934811"><ele>170.0</ele><time>2026-05-03T08:28:10.238Z</time></trkpt><trkpt lat="45.4306029" lon="10.4934531"><ele>170.0</ele><time>2026-05-03T08:28:13.24Z</time></trkpt><trkpt lat="45.430636" lon="10.4933587"><ele>170.0</ele><time>2026-05-03T08:28:15.239Z</time></trkpt><trkpt lat="45.4306465" lon="10.4932007"><ele>171.16666666666666</ele><time>2026-05-03T08:28:17.239Z</time></trkpt><trkpt lat="45.4306419" lon="10.4931073"><ele>172.33333333333331</ele><time>2026-05-03T08:28:18.239Z</time></trkpt><trkpt lat="45.4306268" lon="10.4930055"><ele>173.5</ele><time>2026-05-03T08:28:19.239Z</time></trkpt><trkpt lat="45.4306165" lon="10.492899"><ele>174.66666666666666</ele><time>2026-05-03T08:28:20.239Z</time></trkpt><trkpt lat="45.4305957" lon="10.4927918"><ele>175.83333333333334</ele><time>2026-05-03T08:28:21.239Z</time></trkpt><trkpt lat="45.4305769" lon="10.4926903"><ele>177.0</ele><time>2026-05-03T08:28:22.239Z</time></trkpt><trkpt lat="45.4305528" lon="10.4925585"><ele>179.0</ele><time>2026-05-03T08:28:24.239Z</time></trkpt><trkpt lat="45.4305646" lon="10.4924462"><ele>181.0</ele><time>2026-05-03T08:28:26.238Z</time></trkpt><trkpt lat="45.4305576" lon="10.492316"><ele>183.0</ele><time>2026-05-03T08:28:28.238Z</time></trkpt><trkpt lat="45.4306026" lon="10.4922466"><ele>185.0</ele><time>2026-05-03T08:28:31.238Z</time></trkpt><trkpt lat="45.4306524" lon="10.4923191"><ele>187.0</ele><time>2026-05-03T08:28:34.239Z</time></trkpt><trkpt lat="45.4306832" lon="10.4924215"><ele>189.0</ele><time>2026-05-03T08:28:35.239Z</time></trkpt><trkpt lat="45.4307243" lon="10.4925017"><ele>189.0</ele><time>2026-05-03T08:28:36.239Z</time></trkpt><trkpt lat="45.4307685" lon="10.4925844"><ele>189.0</ele><time>2026-05-03T08:28:37.238Z</time></trkpt><trkpt lat="45.4308182" lon="10.4926625"><ele>189.0</ele><time>2026-05-03T08:28:38.238Z</time></trkpt><trkpt lat="45.4308761" lon="10.4927288"><ele>189.0</ele><time>2026-05-03T08:28:39.238Z</time></trkpt><trkpt lat="45.4309184" lon="10.4928026"><ele>189.0</ele><time>2026-05-03T08:28:40.238Z</time></trkpt><trkpt lat="45.431033" lon="10.4928962"><ele>189.0</ele><time>2026-05-03T08:28:42.238Z</time></trkpt><trkpt lat="45.4311566" lon="10.4929705"><ele>188.66666666666666</ele><time>2026-05-03T08:28:44.238Z</time></trkpt><trkpt lat="45.4312234" lon="10.4929874"><ele>188.33333333333334</ele><time>2026-05-03T08:28:45.239Z</time></trkpt><trkpt lat="45.4312865" lon="10.4930091"><ele>188.0</ele><time>2026-05-03T08:28:46.238Z</time></trkpt><trkpt lat="45.4313587" lon="10.4930389"><ele>187.66666666666669</ele><time>2026-05-03T08:28:47.239Z</time></trkpt><trkpt lat="45.4314433" lon="10.4930884"><ele>187.33333333333334</ele><time>2026-05-03T08:28:48.239Z</time></trkpt><trkpt lat="45.4315233" lon="10.4931252"><ele>187.0</ele><time>2026-05-03T08:28:49.238Z</time></trkpt><trkpt lat="45.4316034" lon="10.4931647"><ele>187.0</ele><time>2026-05-03T08:28:50.238Z</time></trkpt><trkpt lat="45.4316663" lon="10.4932065"><ele>187.0</ele><time>2026-05-03T08:28:51.238Z</time></trkpt><trkpt lat="45.4317166" lon="10.4932622"><ele>187.0</ele><time>2026-05-03T08:28:52.238Z</time></trkpt><trkpt lat="45.4317757" lon="10.4933165"><ele>187.0</ele><time>2026-05-03T08:28:53.24Z</time></trkpt><trkpt lat="45.4318467" lon="10.4933743"><ele>187.0</ele><time>2026-05-03T08:28:54.24Z</time></trkpt><trkpt lat="45.431915" lon="10.4934412"><ele>187.0</ele><time>2026-05-03T08:28:55.238Z</time></trkpt><trkpt lat="45.4319846" lon="10.4935067"><ele>187.0</ele><time>2026-05-03T08:28:56.239Z</time></trkpt><trkpt lat="45.4320464" lon="10.4935704"><ele>187.0</ele><time>2026-05-03T08:28:57.24Z</time></trkpt><trkpt lat="45.4321057" lon="10.4936197"><ele>187.0</ele><time>2026-05-03T08:28:58.238Z</time></trkpt><trkpt lat="45.4321733" lon="10.4936729"><ele>187.0</ele><time>2026-05-03T08:28:59.238Z</time></trkpt><trkpt lat="45.4322335" lon="10.4937198"><ele>187.0</ele><time>2026-05-03T08:29:00.238Z</time></trkpt><trkpt lat="45.4323502" lon="10.4937776"><ele>187.0</ele><time>2026-05-03T08:29:02.239Z</time></trkpt><trkpt lat="45.4324531" lon="10.4938426"><ele>188.0</ele><time>2026-05-03T08:29:04.239Z</time></trkpt><trkpt lat="45.4325324" lon="10.4939356"><ele>189.0</ele><time>2026-05-03T08:29:06.239Z</time></trkpt><trkpt lat="45.4325761" lon="10.4940557"><ele>190.0</ele><time>2026-05-03T08:29:08.239Z</time></trkpt><trkpt lat="45.4326125" lon="10.4941356"><ele>191.0</ele><time>2026-05-03T08:29:10.24Z</time></trkpt><trkpt lat="45.4326466" lon="10.4942269"><ele>191.99999999999997</ele><time>2026-05-03T08:29:12.24Z</time></trkpt><trkpt lat="45.4327034" lon="10.494352"><ele>193.0</ele><time>2026-05-03T08:29:14.238Z</time></trkpt><trkpt lat="45.4327714" lon="10.4945129"><ele>192.71428571428572</ele><time>2026-05-03T08:29:16.24Z</time></trkpt><trkpt lat="45.4328062" lon="10.4946086"><ele>192.42857142857144</ele><time>2026-05-03T08:29:17.238Z</time></trkpt><trkpt lat="45.4328375" lon="10.4947003"><ele>192.14285714285717</ele><time>2026-05-03T08:29:18.239Z</time></trkpt><trkpt lat="45.4328707" lon="10.4947798"><ele>191.85714285714286</ele><time>2026-05-03T08:29:19.239Z</time></trkpt><trkpt lat="45.4329119" lon="10.4948534"><ele>191.57142857142856</ele><time>2026-05-03T08:29:20.239Z</time></trkpt><trkpt lat="45.432959" lon="10.4949222"><ele>191.2857142857143</ele><time>2026-05-03T08:29:21.238Z</time></trkpt><trkpt lat="45.4330169" lon="10.4949958"><ele>191.0</ele><time>2026-05-03T08:29:22.238Z</time></trkpt><trkpt lat="45.4330705" lon="10.4950696"><ele>191.0</ele><time>2026-05-03T08:29:23.238Z</time></trkpt><trkpt lat="45.433121" lon="10.4951399"><ele>191.0</ele><time>2026-05-03T08:29:24.238Z</time></trkpt><trkpt lat="45.4331743" lon="10.4951893"><ele>191.0</ele><time>2026-05-03T08:29:25.238Z</time></trkpt><trkpt lat="45.4332301" lon="10.4952361"><ele>191.0</ele><time>2026-05-03T08:29:26.238Z</time></trkpt><trkpt lat="45.4333358" lon="10.4953203"><ele>191.0</ele><time>2026-05-03T08:29:28.239Z</time></trkpt><trkpt lat="45.433401" lon="10.4953678"><ele>191.0</ele><time>2026-05-03T08:29:29.238Z</time></trkpt><trkpt lat="45.4334643" lon="10.4954222"><ele>191.16666666666666</ele><time>2026-05-03T08:29:30.238Z</time></trkpt><trkpt lat="45.4335232" lon="10.4954877"><ele>191.33333333333331</ele><time>2026-05-03T08:29:31.238Z</time></trkpt><trkpt lat="45.4335712" lon="10.4955593"><ele>191.5</ele><time>2026-05-03T08:29:32.238Z</time></trkpt><trkpt lat="45.4336216" lon="10.4956362"><ele>191.66666666666666</ele><time>2026-05-03T08:29:33.239Z</time></trkpt><trkpt lat="45.433681" lon="10.4957226"><ele>191.83333333333334</ele><time>2026-05-03T08:29:34.238Z</time></trkpt><trkpt lat="45.4337425" lon="10.4958177"><ele>192.0</ele><time>2026-05-03T08:29:35.239Z</time></trkpt><trkpt lat="45.4338055" lon="10.4959164"><ele>192.0</ele><time>2026-05-03T08:29:36.238Z</time></trkpt><trkpt lat="45.4338682" lon="10.4960093"><ele>192.0</ele><time>2026-05-03T08:29:37.238Z</time></trkpt><trkpt lat="45.433927" lon="10.4961053"><ele>192.0</ele><time>2026-05-03T08:29:38.238Z</time></trkpt><trkpt lat="45.4339814" lon="10.4961924"><ele>192.0</ele><time>2026-05-03T08:29:39.238Z</time></trkpt><trkpt lat="45.4340333" lon="10.4962736"><ele>192.0</ele><time>2026-05-03T08:29:40.239Z</time></trkpt><trkpt lat="45.4340802" lon="10.4963415"><ele>192.0</ele><time>2026-05-03T08:29:41.24Z</time></trkpt><trkpt lat="45.434148" lon="10.4964251"><ele>192.0</ele><time>2026-05-03T08:29:43.24Z</time></trkpt><trkpt lat="45.4342264" lon="10.4963944"><ele>192.0</ele><time>2026-05-03T08:29:46.238Z</time></trkpt><trkpt lat="45.4342714" lon="10.4963252"><ele>192.0</ele><time>2026-05-03T08:29:47.24Z</time></trkpt><trkpt lat="45.4343165" lon="10.4962475"><ele>192.0</ele><time>2026-05-03T08:29:48.239Z</time></trkpt><trkpt lat="45.4343829" lon="10.4961624"><ele>192.0</ele><time>2026-05-03T08:29:50.239Z</time></trkpt><trkpt lat="45.4344596" lon="10.49619"><ele>192.0</ele><time>2026-05-03T08:29:52.238Z</time></trkpt><trkpt lat="45.4345759" lon="10.4963133"><ele>193.0</ele><time>2026-05-03T08:29:54.238Z</time></trkpt><trkpt lat="45.4346543" lon="10.4964012"><ele>194.0</ele><time>2026-05-03T08:29:55.239Z</time></trkpt><trkpt lat="45.43473" lon="10.4964931"><ele>195.0</ele><time>2026-05-03T08:29:56.238Z</time></trkpt><trkpt lat="45.4347983" lon="10.4965727"><ele>196.0</ele><time>2026-05-03T08:29:57.238Z</time></trkpt><trkpt lat="45.4348596" lon="10.4966403"><ele>197.0</ele><time>2026-05-03T08:29:58.238Z</time></trkpt><trkpt lat="45.4349205" lon="10.4966983"><ele>198.0</ele><time>2026-05-03T08:29:59.238Z</time></trkpt><trkpt lat="45.4349813" lon="10.4967618"><ele>198.0</ele><time>2026-05-03T08:30:00.238Z</time></trkpt><trkpt lat="45.4350457" lon="10.4968196"><ele>198.0</ele><time>2026-05-03T08:30:01.238Z</time></trkpt><trkpt lat="45.4351051" lon="10.4968789"><ele>198.0</ele><time>2026-05-03T08:30:02.238Z</time></trkpt><trkpt lat="45.4351598" lon="10.4969422"><ele>198.0</ele><time>2026-05-03T08:30:03.239Z</time></trkpt><trkpt lat="45.435262" lon="10.4970583"><ele>198.0</ele><time>2026-05-03T08:30:05.24Z</time></trkpt><trkpt lat="45.4353312" lon="10.497118"><ele>198.0</ele><time>2026-05-03T08:30:06.238Z</time></trkpt><trkpt lat="45.4354123" lon="10.4971806"><ele>198.8</ele><time>2026-05-03T08:30:07.238Z</time></trkpt><trkpt lat="45.4355082" lon="10.4972489"><ele>199.60000000000002</ele><time>2026-05-03T08:30:08.239Z</time></trkpt><trkpt lat="45.4355983" lon="10.4973181"><ele>200.39999999999998</ele><time>2026-05-03T08:30:09.239Z</time></trkpt><trkpt lat="45.4356884" lon="10.4973987"><ele>201.2</ele><time>2026-05-03T08:30:10.238Z</time></trkpt><trkpt lat="45.4357798" lon="10.4974773"><ele>202.0</ele><time>2026-05-03T08:30:11.239Z</time></trkpt><trkpt lat="45.4358643" lon="10.497545"><ele>201.99999999999997</ele><time>2026-05-03T08:30:12.239Z</time></trkpt><trkpt lat="45.4359389" lon="10.4976132"><ele>202.0</ele><time>2026-05-03T08:30:13.239Z</time></trkpt><trkpt lat="45.4360107" lon="10.4976779"><ele>202.0</ele><time>2026-05-03T08:30:14.238Z</time></trkpt><trkpt lat="45.4360855" lon="10.4977634"><ele>202.0</ele><time>2026-05-03T08:30:15.24Z</time></trkpt><trkpt lat="45.4361547" lon="10.4978447"><ele>201.99999999999997</ele><time>2026-05-03T08:30:16.239Z</time></trkpt><trkpt lat="45.436212" lon="10.4979243"><ele>202.0</ele><time>2026-05-03T08:30:17.238Z</time></trkpt><trkpt lat="45.4362735" lon="10.4980128"><ele>201.99999999999997</ele><time>2026-05-03T08:30:19.238Z</time></trkpt><trkpt lat="45.4363406" lon="10.4981335"><ele>202.0</ele><time>2026-05-03T08:30:25.24Z</time></trkpt><trkpt lat="45.4363898" lon="10.4982021"><ele>202.0</ele><time>2026-05-03T08:30:26.24Z</time></trkpt><trkpt lat="45.4364809" lon="10.4982983"><ele>202.0</ele><time>2026-05-03T08:30:28.239Z</time></trkpt><trkpt lat="45.4365362" lon="10.4983422"><ele>201.99999999999997</ele><time>2026-05-03T08:30:29.239Z</time></trkpt><trkpt lat="45.4366045" lon="10.4983986"><ele>202.0</ele><time>2026-05-03T08:30:30.239Z</time></trkpt><trkpt lat="45.4366814" lon="10.4984576"><ele>201.99999999999997</ele><time>2026-05-03T08:30:31.238Z</time></trkpt><trkpt lat="45.436758" lon="10.4985137"><ele>202.0</ele><time>2026-05-03T08:30:32.239Z</time></trkpt><trkpt lat="45.4368293" lon="10.4985615"><ele>202.0</ele><time>2026-05-03T08:30:33.239Z</time></trkpt><trkpt lat="45.4368989" lon="10.4986106"><ele>202.0</ele><time>2026-05-03T08:30:34.238Z</time></trkpt><trkpt lat="45.4369705" lon="10.4986575"><ele>201.99999999999997</ele><time>2026-05-03T08:30:35.239Z</time></trkpt><trkpt lat="45.4370473" lon="10.498699"><ele>202.0</ele><time>2026-05-03T08:30:36.238Z</time></trkpt><trkpt lat="45.4371187" lon="10.4987344"><ele>202.99999999999997</ele><time>2026-05-03T08:30:37.238Z</time></trkpt><trkpt lat="45.4371858" lon="10.4987616"><ele>204.0</ele><time>2026-05-03T08:30:38.238Z</time></trkpt><trkpt lat="45.4372539" lon="10.498783"><ele>205.0</ele><time>2026-05-03T08:30:39.238Z</time></trkpt><trkpt lat="45.4373651" lon="10.4987745"><ele>206.0</ele><time>2026-05-03T08:30:41.239Z</time></trkpt><trkpt lat="45.4374465" lon="10.4987321"><ele>206.99999999999997</ele><time>2026-05-03T08:30:43.239Z</time></trkpt><trkpt lat="45.4375038" lon="10.4986529"><ele>208.0</ele><time>2026-05-03T08:30:45.238Z</time></trkpt><trkpt lat="45.4375641" lon="10.4985338"><ele>207.99999999999997</ele><time>2026-05-03T08:30:47.238Z</time></trkpt><trkpt lat="45.4375971" lon="10.4984546"><ele>208.0</ele><time>2026-05-03T08:30:48.238Z</time></trkpt><trkpt lat="45.4376283" lon="10.4983658"><ele>208.0</ele><time>2026-05-03T08:30:49.239Z</time></trkpt><trkpt lat="45.4376729" lon="10.4982523"><ele>208.0</ele><time>2026-05-03T08:30:50.24Z</time></trkpt><trkpt lat="45.43772" lon="10.4981426"><ele>207.99999999999997</ele><time>2026-05-03T08:30:51.238Z</time></trkpt><trkpt lat="45.4377618" lon="10.4980492"><ele>208.0</ele><time>2026-05-03T08:30:52.239Z</time></trkpt><trkpt lat="45.4377961" lon="10.4979568"><ele>209.99999999999997</ele><time>2026-05-03T08:30:53.238Z</time></trkpt><trkpt lat="45.437825" lon="10.4978432"><ele>212.0</ele><time>2026-05-03T08:30:55.238Z</time></trkpt><trkpt lat="45.437854" lon="10.4977158"><ele>214.0</ele><time>2026-05-03T08:31:15.238Z</time></trkpt><trkpt lat="45.4378621" lon="10.4975971"><ele>216.0</ele><time>2026-05-03T08:31:16.238Z</time></trkpt><trkpt lat="45.4378615" lon="10.4974704"><ele>217.99999999999997</ele><time>2026-05-03T08:31:17.239Z</time></trkpt><trkpt lat="45.4378651" lon="10.4973344"><ele>220.0</ele><time>2026-05-03T08:31:18.24Z</time></trkpt><trkpt lat="45.4378577" lon="10.4972382"><ele>219.99999999999997</ele><time>2026-05-03T08:31:19.239Z</time></trkpt><trkpt lat="45.437839" lon="10.4971172"><ele>220.0</ele><time>2026-05-03T08:31:21.238Z</time></trkpt><trkpt lat="45.4378004" lon="10.4969728"><ele>220.0</ele><time>2026-05-03T08:31:23.239Z</time></trkpt><trkpt lat="45.4377887" lon="10.4968774"><ele>220.0</ele><time>2026-05-03T08:31:25.238Z</time></trkpt><trkpt lat="45.4377941" lon="10.4967865"><ele>219.99999999999997</ele><time>2026-05-03T08:31:27.239Z</time></trkpt><trkpt lat="45.4378076" lon="10.4966855"><ele>220.0</ele><time>2026-05-03T08:31:30.238Z</time></trkpt><trkpt lat="45.4377701" lon="10.4965699"><ele>220.16666666666666</ele><time>2026-05-03T08:31:32.238Z</time></trkpt><trkpt lat="45.4377447" lon="10.4964828"><ele>220.33333333333331</ele><time>2026-05-03T08:31:33.238Z</time></trkpt><trkpt lat="45.4377178" lon="10.4963846"><ele>220.5</ele><time>2026-05-03T08:31:34.239Z</time></trkpt><trkpt lat="45.4377065" lon="10.4962741"><ele>220.66666666666669</ele><time>2026-05-03T08:31:35.24Z</time></trkpt><trkpt lat="45.4376874" lon="10.4961594"><ele>220.83333333333334</ele><time>2026-05-03T08:31:36.238Z</time></trkpt><trkpt lat="45.4376872" lon="10.4960509"><ele>221.0</ele><time>2026-05-03T08:31:37.238Z</time></trkpt><trkpt lat="45.4376965" lon="10.4959402"><ele>221.00000000000003</ele><time>2026-05-03T08:31:38.239Z</time></trkpt><trkpt lat="45.4377166" lon="10.4958481"><ele>221.0</ele><time>2026-05-03T08:31:39.239Z</time></trkpt><trkpt lat="45.4377388" lon="10.4957405"><ele>221.0</ele><time>2026-05-03T08:31:40.238Z</time></trkpt><trkpt lat="45.4377455" lon="10.495641"><ele>221.0</ele><time>2026-05-03T08:31:41.238Z</time></trkpt><trkpt lat="45.4377495" lon="10.4954924"><ele>221.00000000000003</ele><time>2026-05-03T08:31:43.238Z</time></trkpt><trkpt lat="45.4377796" lon="10.4954042"><ele>221.0</ele><time>2026-05-03T08:31:54.239Z</time></trkpt><trkpt lat="45.4378044" lon="10.4953121"><ele>221.0</ele><time>2026-05-03T08:31:58.238Z</time></trkpt><trkpt lat="45.4377085" lon="10.4953069"><ele>221.00000000000003</ele><time>2026-05-03T08:32:01.24Z</time></trkpt><trkpt lat="45.4376059" lon="10.4953424"><ele>221.00000000000003</ele><time>2026-05-03T08:32:03.238Z</time></trkpt><trkpt lat="45.4375019" lon="10.4954006"><ele>221.0</ele><time>2026-05-03T08:32:05.238Z</time></trkpt><trkpt lat="45.4374373" lon="10.4954316"><ele>221.0</ele><time>2026-05-03T08:32:06.239Z</time></trkpt><trkpt lat="45.4373657" lon="10.4954703"><ele>221.00000000000003</ele><time>2026-05-03T08:32:07.238Z</time></trkpt><trkpt lat="45.4373011" lon="10.4955047"><ele>221.0</ele><time>2026-05-03T08:32:08.238Z</time></trkpt><trkpt lat="45.4372333" lon="10.4955373"><ele>221.0</ele><time>2026-05-03T08:32:09.239Z</time></trkpt><trkpt lat="45.437119" lon="10.4955938"><ele>221.0</ele><time>2026-05-03T08:32:11.239Z</time></trkpt><trkpt lat="45.4370305" lon="10.4956442"><ele>221.00000000000003</ele><time>2026-05-03T08:32:13.24Z</time></trkpt><trkpt lat="45.436954" lon="10.4956613"><ele>221.0</ele><time>2026-05-03T08:32:17.239Z</time></trkpt><trkpt lat="45.436911" lon="10.4955924"><ele>221.42857142857144</ele><time>2026-05-03T08:32:36.239Z</time></trkpt><trkpt lat="45.4368942" lon="10.4954483"><ele>221.85714285714286</ele><time>2026-05-03T08:32:38.239Z</time></trkpt><trkpt lat="45.4368785" lon="10.4953577"><ele>222.28571428571428</ele><time>2026-05-03T08:32:39.238Z</time></trkpt><trkpt lat="45.4368633" lon="10.4952677"><ele>222.71428571428572</ele><time>2026-05-03T08:32:40.238Z</time></trkpt><trkpt lat="45.4368328" lon="10.4951888"><ele>223.14285714285714</ele><time>2026-05-03T08:32:41.238Z</time></trkpt><trkpt lat="45.4367828" lon="10.4951063"><ele>223.57142857142858</ele><time>2026-05-03T08:32:43.239Z</time></trkpt><trkpt lat="45.4367215" lon="10.4950723"><ele>224.0</ele><time>2026-05-03T08:32:46.238Z</time></trkpt><trkpt lat="45.4366432" lon="10.4950819"><ele>224.0</ele><time>2026-05-03T08:36:17.232Z</time></trkpt><trkpt lat="45.4365674" lon="10.4951085"><ele>223.99999999999997</ele><time>2026-05-03T08:36:19.232Z</time></trkpt><trkpt lat="45.4364669" lon="10.4951026"><ele>223.99999999999997</ele><time>2026-05-03T08:36:21.232Z</time></trkpt><trkpt lat="45.436374" lon="10.4951044"><ele>224.0</ele><time>2026-05-03T08:36:23.232Z</time></trkpt><trkpt lat="45.4362768" lon="10.4950922"><ele>224.0</ele><time>2026-05-03T08:36:25.232Z</time></trkpt><trkpt lat="45.4361754" lon="10.495098"><ele>224.00000000000003</ele><time>2026-05-03T08:36:27.233Z</time></trkpt><trkpt lat="45.4360693" lon="10.4951359"><ele>224.0</ele><time>2026-05-03T08:36:29.232Z</time></trkpt><trkpt lat="45.4359633" lon="10.4951966"><ele>224.0</ele><time>2026-05-03T08:36:31.232Z</time></trkpt><trkpt lat="45.4358972" lon="10.4952444"><ele>224.0</ele><time>2026-05-03T08:36:32.233Z</time></trkpt><trkpt lat="45.4358369" lon="10.4952848"><ele>224.00000000000003</ele><time>2026-05-03T08:36:33.232Z</time></trkpt><trkpt lat="45.4357733" lon="10.4953209"><ele>224.0</ele><time>2026-05-03T08:36:34.232Z</time></trkpt><trkpt lat="45.4357106" lon="10.4953428"><ele>224.0</ele><time>2026-05-03T08:36:35.232Z</time></trkpt><trkpt lat="45.4355918" lon="10.4953537"><ele>223.99999999999997</ele><time>2026-05-03T08:36:37.232Z</time></trkpt><trkpt lat="45.4354709" lon="10.4953617"><ele>223.99999999999997</ele><time>2026-05-03T08:36:39.232Z</time></trkpt><trkpt lat="45.4354075" lon="10.4953628"><ele>224.0</ele><time>2026-05-03T08:36:40.232Z</time></trkpt><trkpt lat="45.4353418" lon="10.4953602"><ele>224.0</ele><time>2026-05-03T08:36:41.232Z</time></trkpt><trkpt lat="45.4352436" lon="10.4953009"><ele>224.39999999999998</ele><time>2026-05-03T08:36:43.232Z</time></trkpt><trkpt lat="45.4351761" lon="10.4951876"><ele>224.79999999999998</ele><time>2026-05-03T08:36:45.232Z</time></trkpt><trkpt lat="45.435109" lon="10.495125"><ele>225.20000000000002</ele><time>2026-05-03T08:36:47.233Z</time></trkpt><trkpt lat="45.4350208" lon="10.4950621"><ele>225.60000000000002</ele><time>2026-05-03T08:36:49.232Z</time></trkpt><trkpt lat="45.4349328" lon="10.4949588"><ele>226.0</ele><time>2026-05-03T08:36:51.232Z</time></trkpt><trkpt lat="45.4348778" lon="10.4948522"><ele>225.99999999999997</ele><time>2026-05-03T08:36:53.232Z</time></trkpt><trkpt lat="45.4348323" lon="10.4947409"><ele>226.0</ele><time>2026-05-03T08:36:55.233Z</time></trkpt><trkpt lat="45.4347708" lon="10.4946576"><ele>226.0</ele><time>2026-05-03T08:36:57.232Z</time></trkpt><trkpt lat="45.4347017" lon="10.49463"><ele>226.0</ele><time>2026-05-03T08:36:59.232Z</time></trkpt><trkpt lat="45.4346365" lon="10.4945962"><ele>225.99999999999997</ele><time>2026-05-03T08:37:01.232Z</time></trkpt><trkpt lat="45.4345599" lon="10.4945415"><ele>226.0</ele><time>2026-05-03T08:37:04.232Z</time></trkpt><trkpt lat="45.4344838" lon="10.4944981"><ele>224.85714285714286</ele><time>2026-05-03T08:37:07.232Z</time></trkpt><trkpt lat="45.4344036" lon="10.4944768"><ele>223.7142857142857</ele><time>2026-05-03T08:37:10.232Z</time></trkpt><trkpt lat="45.4343414" lon="10.4944064"><ele>222.57142857142856</ele><time>2026-05-03T08:37:13.232Z</time></trkpt><trkpt lat="45.4342809" lon="10.4943595"><ele>221.42857142857144</ele><time>2026-05-03T08:37:15.232Z</time></trkpt><trkpt lat="45.4342217" lon="10.4943212"><ele>220.28571428571428</ele><time>2026-05-03T08:37:17.232Z</time></trkpt><trkpt lat="45.434161" lon="10.4942938"><ele>219.14285714285714</ele><time>2026-05-03T08:37:19.232Z</time></trkpt><trkpt lat="45.4340972" lon="10.4942573"><ele>218.0</ele><time>2026-05-03T08:37:21.232Z</time></trkpt><trkpt lat="45.4340131" lon="10.4941934"><ele>218.0</ele><time>2026-05-03T08:37:23.232Z</time></trkpt><trkpt lat="45.4339347" lon="10.494109"><ele>218.0</ele><time>2026-05-03T08:37:25.232Z</time></trkpt><trkpt lat="45.4338604" lon="10.4940303"><ele>218.0</ele><time>2026-05-03T08:37:27.232Z</time></trkpt><trkpt lat="45.433779" lon="10.4939876"><ele>218.0</ele><time>2026-05-03T08:37:29.232Z</time></trkpt><trkpt lat="45.4336979" lon="10.4939395"><ele>218.0</ele><time>2026-05-03T08:37:31.232Z</time></trkpt><trkpt lat="45.4335937" lon="10.4938955"><ele>218.8</ele><time>2026-05-03T08:37:33.232Z</time></trkpt><trkpt lat="45.4335063" lon="10.4938067"><ele>219.60000000000002</ele><time>2026-05-03T08:37:35.232Z</time></trkpt><trkpt lat="45.4334408" lon="10.4937467"><ele>220.39999999999998</ele><time>2026-05-03T08:37:37.232Z</time></trkpt><trkpt lat="45.4333624" lon="10.49368"><ele>221.2</ele><time>2026-05-03T08:37:40.232Z</time></trkpt><trkpt lat="45.4332767" lon="10.4936446"><ele>222.0</ele><time>2026-05-03T08:37:42.232Z</time></trkpt><trkpt lat="45.4331857" lon="10.4935875"><ele>222.0</ele><time>2026-05-03T08:37:44.232Z</time></trkpt><trkpt lat="45.4331077" lon="10.4935004"><ele>222.0</ele><time>2026-05-03T08:37:46.232Z</time></trkpt><trkpt lat="45.4330317" lon="10.4933872"><ele>222.0</ele><time>2026-05-03T08:37:48.232Z</time></trkpt><trkpt lat="45.4329642" lon="10.4932976"><ele>222.0</ele><time>2026-05-03T08:37:50.232Z</time></trkpt><trkpt lat="45.4329053" lon="10.4932004"><ele>222.0</ele><time>2026-05-03T08:37:52.232Z</time></trkpt><trkpt lat="45.4328509" lon="10.4931042"><ele>220.8</ele><time>2026-05-03T08:37:54.232Z</time></trkpt><trkpt lat="45.4327698" lon="10.4930078"><ele>219.6</ele><time>2026-05-03T08:37:56.233Z</time></trkpt><trkpt lat="45.4327012" lon="10.4928754"><ele>218.40000000000003</ele><time>2026-05-03T08:37:58.232Z</time></trkpt><trkpt lat="45.4326333" lon="10.4927551"><ele>217.20000000000002</ele><time>2026-05-03T08:38:00.232Z</time></trkpt><trkpt lat="45.4325813" lon="10.4926459"><ele>216.0</ele><time>2026-05-03T08:38:02.232Z</time></trkpt><trkpt lat="45.432559" lon="10.4925543"><ele>216.0</ele><time>2026-05-03T08:38:04.232Z</time></trkpt><trkpt lat="45.4325196" lon="10.4924692"><ele>216.0</ele><time>2026-05-03T08:38:06.232Z</time></trkpt><trkpt lat="45.4324436" lon="10.4924062"><ele>216.0</ele><time>2026-05-03T08:38:08.232Z</time></trkpt><trkpt lat="45.4323758" lon="10.4923352"><ele>216.0</ele><time>2026-05-03T08:38:10.233Z</time></trkpt><trkpt lat="45.4323061" lon="10.4922695"><ele>216.0</ele><time>2026-05-03T08:38:12.232Z</time></trkpt><trkpt lat="45.432241" lon="10.492161"><ele>216.0</ele><time>2026-05-03T08:38:14.232Z</time></trkpt><trkpt lat="45.4321768" lon="10.4921149"><ele>215.5</ele><time>2026-05-03T08:38:16.233Z</time></trkpt><trkpt lat="45.4321242" lon="10.49205"><ele>215.0</ele><time>2026-05-03T08:38:18.232Z</time></trkpt><trkpt lat="45.4320575" lon="10.4919725"><ele>214.5</ele><time>2026-05-03T08:38:20.233Z</time></trkpt><trkpt lat="45.4320012" lon="10.4918634"><ele>214.0</ele><time>2026-05-03T08:38:22.233Z</time></trkpt><trkpt lat="45.4319304" lon="10.4917437"><ele>213.5</ele><time>2026-05-03T08:38:24.232Z</time></trkpt><trkpt lat="45.4318559" lon="10.4917079"><ele>213.0</ele><time>2026-05-03T08:38:26.232Z</time></trkpt><trkpt lat="45.4318016" lon="10.4916603"><ele>213.0</ele><time>2026-05-03T08:38:29.232Z</time></trkpt><trkpt lat="45.4317574" lon="10.4915491"><ele>213.0</ele><time>2026-05-03T08:38:32.233Z</time></trkpt><trkpt lat="45.4316717" lon="10.4914839"><ele>213.0</ele><time>2026-05-03T08:38:34.233Z</time></trkpt><trkpt lat="45.4316339" lon="10.4914117"><ele>213.0</ele><time>2026-05-03T08:38:36.233Z</time></trkpt><trkpt lat="45.431593" lon="10.4913067"><ele>213.0</ele><time>2026-05-03T08:38:39.232Z</time></trkpt><trkpt lat="45.431526" lon="10.4912324"><ele>213.0</ele><time>2026-05-03T08:38:43.233Z</time></trkpt><trkpt lat="45.4314699" lon="10.4911748"><ele>212.28571428571428</ele><time>2026-05-03T08:38:46.232Z</time></trkpt><trkpt lat="45.4314129" lon="10.4911245"><ele>211.57142857142856</ele><time>2026-05-03T08:38:50.233Z</time></trkpt><trkpt lat="45.431368" lon="10.4910392"><ele>210.85714285714283</ele><time>2026-05-03T08:38:55.232Z</time></trkpt><trkpt lat="45.4313031" lon="10.4910056"><ele>210.14285714285714</ele><time>2026-05-03T08:39:00.232Z</time></trkpt><trkpt lat="45.4312522" lon="10.490952"><ele>209.42857142857144</ele><time>2026-05-03T08:39:03.232Z</time></trkpt><trkpt lat="45.4312104" lon="10.490874"><ele>208.7142857142857</ele><time>2026-05-03T08:39:06.232Z</time></trkpt><trkpt lat="45.4311448" lon="10.4908106"><ele>208.0</ele><time>2026-05-03T08:39:09.232Z</time></trkpt><trkpt lat="45.4310861" lon="10.4907418"><ele>206.83333333333331</ele><time>2026-05-03T08:39:12.232Z</time></trkpt><trkpt lat="45.4310438" lon="10.4906602"><ele>205.66666666666666</ele><time>2026-05-03T08:39:16.232Z</time></trkpt><trkpt lat="45.4310256" lon="10.4905353"><ele>204.5</ele><time>2026-05-03T08:39:19.232Z</time></trkpt><trkpt lat="45.4310097" lon="10.4904158"><ele>203.33333333333331</ele><time>2026-05-03T08:39:22.233Z</time></trkpt><trkpt lat="45.4309484" lon="10.4903229"><ele>202.16666666666666</ele><time>2026-05-03T08:39:25.232Z</time></trkpt><trkpt lat="45.4308968" lon="10.4902574"><ele>201.0</ele><time>2026-05-03T08:39:27.233Z</time></trkpt><trkpt lat="45.4308766" lon="10.4901553"><ele>200.5</ele><time>2026-05-03T08:39:29.232Z</time></trkpt><trkpt lat="45.4308324" lon="10.4900331"><ele>200.0</ele><time>2026-05-03T08:39:32.232Z</time></trkpt><trkpt lat="45.4307791" lon="10.4899598"><ele>199.5</ele><time>2026-05-03T08:39:34.232Z</time></trkpt><trkpt lat="45.4307576" lon="10.4898711"><ele>199.0</ele><time>2026-05-03T08:39:37.232Z</time></trkpt><trkpt lat="45.4306901" lon="10.4898163"><ele>198.5</ele><time>2026-05-03T08:39:40.232Z</time></trkpt><trkpt lat="45.4306207" lon="10.4897715"><ele>198.0</ele><time>2026-05-03T08:39:42.232Z</time></trkpt><trkpt lat="45.4305483" lon="10.4896996"><ele>198.0</ele><time>2026-05-03T08:39:44.232Z</time></trkpt><trkpt lat="45.4304842" lon="10.4896475"><ele>198.0</ele><time>2026-05-03T08:39:46.232Z</time></trkpt><trkpt lat="45.4304424" lon="10.4895782"><ele>198.0</ele><time>2026-05-03T08:40:04.232Z</time></trkpt><trkpt lat="45.430367" lon="10.4895256"><ele>198.0</ele><time>2026-05-03T08:40:07.232Z</time></trkpt><trkpt lat="45.4302944" lon="10.4895296"><ele>198.0</ele><time>2026-05-03T08:40:10.233Z</time></trkpt><trkpt lat="45.4303523" lon="10.4894929"><ele>198.0</ele><time>2026-05-03T08:41:24.233Z</time></trkpt><trkpt lat="45.4304139" lon="10.4895338"><ele>198.0</ele><time>2026-05-03T08:41:28.232Z</time></trkpt><trkpt lat="45.4304765" lon="10.4894698"><ele>196.57142857142858</ele><time>2026-05-03T08:42:10.233Z</time></trkpt><trkpt lat="45.4305018" lon="10.4893773"><ele>195.14285714285714</ele><time>2026-05-03T08:42:51.232Z</time></trkpt><trkpt lat="45.4304532" lon="10.4893033"><ele>193.71428571428572</ele><time>2026-05-03T08:42:53.232Z</time></trkpt><trkpt lat="45.4303992" lon="10.4892525"><ele>192.28571428571428</ele><time>2026-05-03T08:42:59.232Z</time></trkpt><trkpt lat="45.4303412" lon="10.4891663"><ele>190.85714285714283</ele><time>2026-05-03T08:43:02.233Z</time></trkpt><trkpt lat="45.4302947" lon="10.4891032"><ele>189.42857142857142</ele><time>2026-05-03T08:43:04.232Z</time></trkpt><trkpt lat="45.4302952" lon="10.488995"><ele>188.0</ele><time>2026-05-03T08:43:08.232Z</time></trkpt><trkpt lat="45.4302782" lon="10.4888688"><ele>187.83333333333331</ele><time>2026-05-03T08:43:12.232Z</time></trkpt><trkpt lat="45.430259" lon="10.4887803"><ele>187.66666666666666</ele><time>2026-05-03T08:43:15.232Z</time></trkpt><trkpt lat="45.4302148" lon="10.4886918"><ele>187.5</ele><time>2026-05-03T08:43:19.232Z</time></trkpt><trkpt lat="45.4302104" lon="10.4885724"><ele>187.33333333333334</ele><time>2026-05-03T08:43:22.232Z</time></trkpt><trkpt lat="45.4301484" lon="10.4884784"><ele>187.16666666666669</ele><time>2026-05-03T08:44:35.232Z</time></trkpt><trkpt lat="45.4300914" lon="10.4884138"><ele>187.0</ele><time>2026-05-03T08:44:37.233Z</time></trkpt><trkpt lat="45.4300678" lon="10.488303"><ele>184.8</ele><time>2026-05-03T08:44:40.232Z</time></trkpt><trkpt lat="45.430057" lon="10.4881924"><ele>182.6</ele><time>2026-05-03T08:44:42.232Z</time></trkpt><trkpt lat="45.430026" lon="10.4880471"><ele>180.4</ele><time>2026-05-03T08:44:44.232Z</time></trkpt><trkpt lat="45.4299978" lon="10.4879227"><ele>178.20000000000002</ele><time>2026-05-03T08:44:46.233Z</time></trkpt><trkpt lat="45.429974" lon="10.4877905"><ele>176.0</ele><time>2026-05-03T08:44:48.232Z</time></trkpt><trkpt lat="45.4299659" lon="10.4876679"><ele>174.5</ele><time>2026-05-03T08:44:50.232Z</time></trkpt><trkpt lat="45.4299572" lon="10.4875473"><ele>173.0</ele><time>2026-05-03T08:44:52.232Z</time></trkpt><trkpt lat="45.429947" lon="10.4874234"><ele>171.5</ele><time>2026-05-03T08:44:54.233Z</time></trkpt><trkpt lat="45.4299501" lon="10.4872918"><ele>170.0</ele><time>2026-05-03T08:44:56.232Z</time></trkpt><trkpt lat="45.4299582" lon="10.4871823"><ele>168.5</ele><time>2026-05-03T08:44:58.232Z</time></trkpt><trkpt lat="45.4299718" lon="10.4870517"><ele>167.0</ele><time>2026-05-03T08:45:18.232Z</time></trkpt><trkpt lat="45.4299741" lon="10.4869217"><ele>166.39999999999998</ele><time>2026-05-03T08:45:20.232Z</time></trkpt><trkpt lat="45.4299719" lon="10.486798"><ele>165.79999999999998</ele><time>2026-05-03T08:45:22.233Z</time></trkpt><trkpt lat="45.4299833" lon="10.4866417"><ele>165.2</ele><time>2026-05-03T08:45:24.232Z</time></trkpt><trkpt lat="45.4300084" lon="10.4864725"><ele>164.6</ele><time>2026-05-03T08:45:26.232Z</time></trkpt><trkpt lat="45.4300297" lon="10.4863856"><ele>164.0</ele><time>2026-05-03T08:45:27.232Z</time></trkpt><trkpt lat="45.4300629" lon="10.4862348"><ele>164.0</ele><time>2026-05-03T08:45:29.232Z</time></trkpt><trkpt lat="45.4301301" lon="10.4860881"><ele>164.0</ele><time>2026-05-03T08:45:31.232Z</time></trkpt><trkpt lat="45.430152" lon="10.4859909"><ele>164.0</ele><time>2026-05-03T08:45:32.232Z</time></trkpt><trkpt lat="45.4301671" lon="10.4858845"><ele>164.0</ele><time>2026-05-03T08:45:33.233Z</time></trkpt><trkpt lat="45.4301898" lon="10.4857849"><ele>164.0</ele><time>2026-05-03T08:45:34.232Z</time></trkpt><trkpt lat="45.4302063" lon="10.4856729"><ele>164.0</ele><time>2026-05-03T08:45:35.232Z</time></trkpt><trkpt lat="45.43021" lon="10.4855641"><ele>163.99999999999997</ele><time>2026-05-03T08:45:36.232Z</time></trkpt><trkpt lat="45.4302294" lon="10.4854725"><ele>164.0</ele><time>2026-05-03T08:45:37.232Z</time></trkpt><trkpt lat="45.4302333" lon="10.4853728"><ele>164.0</ele><time>2026-05-03T08:45:38.232Z</time></trkpt><trkpt lat="45.4302244" lon="10.485273"><ele>164.0</ele><time>2026-05-03T08:45:39.232Z</time></trkpt><trkpt lat="45.4302124" lon="10.4851751"><ele>164.0</ele><time>2026-05-03T08:45:40.232Z</time></trkpt><trkpt lat="45.4301826" lon="10.4850772"><ele>163.99999999999997</ele><time>2026-05-03T08:45:41.232Z</time></trkpt><trkpt lat="45.4301481" lon="10.4849749"><ele>164.0</ele><time>2026-05-03T08:45:42.232Z</time></trkpt><trkpt lat="45.4301349" lon="10.4848703"><ele>163.0</ele><time>2026-05-03T08:45:43.233Z</time></trkpt><trkpt lat="45.4301315" lon="10.4847726"><ele>162.0</ele><time>2026-05-03T08:45:44.232Z</time></trkpt><trkpt lat="45.4301435" lon="10.4846821"><ele>161.0</ele><time>2026-05-03T08:45:45.232Z</time></trkpt><trkpt lat="45.4301542" lon="10.4845914"><ele>160.0</ele><time>2026-05-03T08:45:46.232Z</time></trkpt><trkpt lat="45.43018" lon="10.4844254"><ele>159.0</ele><time>2026-05-03T08:45:48.232Z</time></trkpt><trkpt lat="45.4301995" lon="10.4843389"><ele>158.0</ele><time>2026-05-03T08:45:49.233Z</time></trkpt><trkpt lat="45.4302223" lon="10.4841642"><ele>156.4</ele><time>2026-05-03T08:45:51.232Z</time></trkpt><trkpt lat="45.4302283" lon="10.484002"><ele>154.8</ele><time>2026-05-03T08:45:53.232Z</time></trkpt><trkpt lat="45.4302083" lon="10.4838367"><ele>153.2</ele><time>2026-05-03T08:45:55.232Z</time></trkpt><trkpt lat="45.4301747" lon="10.4836863"><ele>151.6</ele><time>2026-05-03T08:45:57.233Z</time></trkpt><trkpt lat="45.4301496" lon="10.4835996"><ele>150.0</ele><time>2026-05-03T08:45:58.232Z</time></trkpt><trkpt lat="45.4300987" lon="10.4834407"><ele>148.6</ele><time>2026-05-03T08:46:00.233Z</time></trkpt><trkpt lat="45.4300611" lon="10.4832835"><ele>147.2</ele><time>2026-05-03T08:46:02.232Z</time></trkpt><trkpt lat="45.4300443" lon="10.4831952"><ele>145.8</ele><time>2026-05-03T08:46:03.232Z</time></trkpt><trkpt lat="45.4300206" lon="10.4830254"><ele>144.4</ele><time>2026-05-03T08:46:05.232Z</time></trkpt><trkpt lat="45.4300147" lon="10.4828548"><ele>143.0</ele><time>2026-05-03T08:46:07.232Z</time></trkpt><trkpt lat="45.430021" lon="10.4827188"><ele>143.0</ele><time>2026-05-03T08:46:09.232Z</time></trkpt><trkpt lat="45.4300401" lon="10.4826198"><ele>143.0</ele><time>2026-05-03T08:46:11.233Z</time></trkpt><trkpt lat="45.4300246" lon="10.4825286"><ele>143.0</ele><time>2026-05-03T08:46:15.232Z</time></trkpt><trkpt lat="45.430014" lon="10.4826682"><ele>143.0</ele><time>2026-05-03T08:46:19.232Z</time></trkpt><trkpt lat="45.4300182" lon="10.4828195"><ele>143.0</ele><time>2026-05-03T08:46:21.232Z</time></trkpt><trkpt lat="45.4300151" lon="10.4829843"><ele>142.99999999999997</ele><time>2026-05-03T08:46:23.232Z</time></trkpt><trkpt lat="45.430022" lon="10.4830778"><ele>143.0</ele><time>2026-05-03T08:46:24.232Z</time></trkpt><trkpt lat="45.4300325" lon="10.4831817"><ele>143.0</ele><time>2026-05-03T08:46:25.232Z</time></trkpt><trkpt lat="45.4300497" lon="10.4832783"><ele>143.0</ele><time>2026-05-03T08:46:26.233Z</time></trkpt><trkpt lat="45.430077" lon="10.4833852"><ele>143.0</ele><time>2026-05-03T08:46:27.232Z</time></trkpt><trkpt lat="45.4300995" lon="10.4834745"><ele>142.99999999999997</ele><time>2026-05-03T08:46:28.232Z</time></trkpt><trkpt lat="45.4301264" lon="10.4835599"><ele>143.0</ele><time>2026-05-03T08:46:29.232Z</time></trkpt><trkpt lat="45.4301515" lon="10.4836477"><ele>142.99999999999997</ele><time>2026-05-03T08:46:30.232Z</time></trkpt><trkpt lat="45.430176" lon="10.4837462"><ele>143.0</ele><time>2026-05-03T08:46:31.232Z</time></trkpt><trkpt lat="45.4301909" lon="10.4838347"><ele>143.0</ele><time>2026-05-03T08:46:32.232Z</time></trkpt><trkpt lat="45.430211" lon="10.4839355"><ele>143.0</ele><time>2026-05-03T08:46:33.232Z</time></trkpt><trkpt lat="45.4302222" lon="10.4840291"><ele>143.0</ele><time>2026-05-03T08:46:34.232Z</time></trkpt><trkpt lat="45.4302155" lon="10.4841276"><ele>142.99999999999997</ele><time>2026-05-03T08:46:35.232Z</time></trkpt><trkpt lat="45.4301985" lon="10.4842462"><ele>143.0</ele><time>2026-05-03T08:46:36.232Z</time></trkpt><trkpt lat="45.4301843" lon="10.4843647"><ele>144.16666666666666</ele><time>2026-05-03T08:46:37.232Z</time></trkpt><trkpt lat="45.4301679" lon="10.4844857"><ele>145.33333333333331</ele><time>2026-05-03T08:46:38.232Z</time></trkpt><trkpt lat="45.4301532" lon="10.4845788"><ele>146.5</ele><time>2026-05-03T08:46:39.233Z</time></trkpt><trkpt lat="45.4301449" lon="10.4846805"><ele>147.66666666666666</ele><time>2026-05-03T08:46:40.232Z</time></trkpt><trkpt lat="45.4301446" lon="10.4847862"><ele>148.83333333333334</ele><time>2026-05-03T08:46:41.232Z</time></trkpt><trkpt lat="45.4301518" lon="10.4848993"><ele>150.0</ele><time>2026-05-03T08:46:42.232Z</time></trkpt><trkpt lat="45.4301571" lon="10.4849997"><ele>151.33333333333334</ele><time>2026-05-03T08:46:43.233Z</time></trkpt><trkpt lat="45.4301694" lon="10.4851104"><ele>152.66666666666666</ele><time>2026-05-03T08:46:44.233Z</time></trkpt><trkpt lat="45.4301801" lon="10.4852168"><ele>154.0</ele><time>2026-05-03T08:46:45.232Z</time></trkpt><trkpt lat="45.4301896" lon="10.4853194"><ele>155.33333333333331</ele><time>2026-05-03T08:46:46.232Z</time></trkpt><trkpt lat="45.4301929" lon="10.485423"><ele>156.66666666666666</ele><time>2026-05-03T08:46:47.232Z</time></trkpt><trkpt lat="45.4301885" lon="10.4855366"><ele>158.0</ele><time>2026-05-03T08:46:48.232Z</time></trkpt><trkpt lat="45.4301761" lon="10.4856506"><ele>159.0</ele><time>2026-05-03T08:46:49.233Z</time></trkpt><trkpt lat="45.430165" lon="10.4857482"><ele>160.0</ele><time>2026-05-03T08:46:50.232Z</time></trkpt><trkpt lat="45.4301479" lon="10.4858526"><ele>161.0</ele><time>2026-05-03T08:46:51.232Z</time></trkpt><trkpt lat="45.4301346" lon="10.4859467"><ele>162.0</ele><time>2026-05-03T08:46:52.232Z</time></trkpt><trkpt lat="45.4301137" lon="10.4860418"><ele>163.0</ele><time>2026-05-03T08:46:53.232Z</time></trkpt><trkpt lat="45.4300762" lon="10.4861936"><ele>164.0</ele><time>2026-05-03T08:46:55.232Z</time></trkpt><trkpt lat="45.4300356" lon="10.4863341"><ele>164.0</ele><time>2026-05-03T08:46:57.232Z</time></trkpt><trkpt lat="45.4300155" lon="10.4864349"><ele>164.0</ele><time>2026-05-03T08:46:58.232Z</time></trkpt><trkpt lat="45.4299932" lon="10.4866159"><ele>164.0</ele><time>2026-05-03T08:47:00.232Z</time></trkpt><trkpt lat="45.4299745" lon="10.4867339"><ele>164.0</ele><time>2026-05-03T08:47:02.232Z</time></trkpt><trkpt lat="45.4299488" lon="10.4868207"><ele>164.0</ele><time>2026-05-03T08:47:04.232Z</time></trkpt><trkpt lat="45.429882" lon="10.4869369"><ele>164.0</ele><time>2026-05-03T08:47:06.232Z</time></trkpt><trkpt lat="45.4298018" lon="10.4870546"><ele>164.0</ele><time>2026-05-03T08:47:08.232Z</time></trkpt><trkpt lat="45.4297024" lon="10.4871174"><ele>164.0</ele><time>2026-05-03T08:47:10.232Z</time></trkpt><trkpt lat="45.4295852" lon="10.4871698"><ele>164.0</ele><time>2026-05-03T08:47:12.232Z</time></trkpt><trkpt lat="45.4295171" lon="10.4871964"><ele>164.0</ele><time>2026-05-03T08:47:13.232Z</time></trkpt><trkpt lat="45.42945" lon="10.4872204"><ele>165.6</ele><time>2026-05-03T08:47:14.232Z</time></trkpt><trkpt lat="45.4293379" lon="10.4872417"><ele>167.2</ele><time>2026-05-03T08:47:16.232Z</time></trkpt><trkpt lat="45.429225" lon="10.4872588"><ele>168.79999999999998</ele><time>2026-05-03T08:47:18.233Z</time></trkpt><trkpt lat="45.4290971" lon="10.4872625"><ele>170.39999999999998</ele><time>2026-05-03T08:47:20.232Z</time></trkpt><trkpt lat="45.4290326" lon="10.4872658"><ele>172.0</ele><time>2026-05-03T08:47:21.232Z</time></trkpt><trkpt lat="45.4289653" lon="10.4872722"><ele>172.0</ele><time>2026-05-03T08:47:22.233Z</time></trkpt><trkpt lat="45.4288831" lon="10.4872856"><ele>172.0</ele><time>2026-05-03T08:47:23.232Z</time></trkpt><trkpt lat="45.4288026" lon="10.487303"><ele>172.0</ele><time>2026-05-03T08:47:24.232Z</time></trkpt><trkpt lat="45.4287151" lon="10.4873158"><ele>172.0</ele><time>2026-05-03T08:47:25.232Z</time></trkpt><trkpt lat="45.4286257" lon="10.4873217"><ele>172.0</ele><time>2026-05-03T08:47:26.232Z</time></trkpt><trkpt lat="45.4285346" lon="10.487328"><ele>172.0</ele><time>2026-05-03T08:47:27.232Z</time></trkpt><trkpt lat="45.4284465" lon="10.4873293"><ele>173.5</ele><time>2026-05-03T08:47:28.232Z</time></trkpt><trkpt lat="45.428359" lon="10.4873246"><ele>175.0</ele><time>2026-05-03T08:47:29.232Z</time></trkpt><trkpt lat="45.4282882" lon="10.4873215"><ele>176.5</ele><time>2026-05-03T08:47:30.232Z</time></trkpt><trkpt lat="45.4281554" lon="10.4873241"><ele>178.0</ele><time>2026-05-03T08:47:32.232Z</time></trkpt><trkpt lat="45.4280874" lon="10.4873301"><ele>179.5</ele><time>2026-05-03T08:47:33.232Z</time></trkpt><trkpt lat="45.4280213" lon="10.4873487"><ele>181.0</ele><time>2026-05-03T08:47:34.232Z</time></trkpt><trkpt lat="45.4279617" lon="10.4873886"><ele>181.33333333333334</ele><time>2026-05-03T08:47:35.232Z</time></trkpt><trkpt lat="45.4279038" lon="10.48744"><ele>181.66666666666669</ele><time>2026-05-03T08:47:36.232Z</time></trkpt><trkpt lat="45.4278383" lon="10.4874896"><ele>182.0</ele><time>2026-05-03T08:47:37.232Z</time></trkpt><trkpt lat="45.427777" lon="10.4875283"><ele>182.33333333333334</ele><time>2026-05-03T08:47:38.232Z</time></trkpt><trkpt lat="45.4276971" lon="10.4875981"><ele>182.66666666666666</ele><time>2026-05-03T08:47:40.232Z</time></trkpt><trkpt lat="45.4277149" lon="10.4877228"><ele>183.0</ele><time>2026-05-03T08:47:43.232Z</time></trkpt><trkpt lat="45.4277909" lon="10.4878478"><ele>183.0</ele><time>2026-05-03T08:47:45.232Z</time></trkpt><trkpt lat="45.4278524" lon="10.4879771"><ele>183.0</ele><time>2026-05-03T08:47:47.232Z</time></trkpt><trkpt lat="45.427873" lon="10.4881049"><ele>183.0</ele><time>2026-05-03T08:47:49.232Z</time></trkpt><trkpt lat="45.4279014" lon="10.4882373"><ele>183.0</ele><time>2026-05-03T08:47:51.233Z</time></trkpt><trkpt lat="45.4279678" lon="10.4883379"><ele>183.0</ele><time>2026-05-03T08:47:53.232Z</time></trkpt><trkpt lat="45.4280518" lon="10.488475"><ele>184.0</ele><time>2026-05-03T08:47:55.232Z</time></trkpt><trkpt lat="45.4280908" lon="10.4885553"><ele>185.0</ele><time>2026-05-03T08:47:56.232Z</time></trkpt><trkpt lat="45.4281229" lon="10.488638"><ele>186.0</ele><time>2026-05-03T08:47:57.232Z</time></trkpt><trkpt lat="45.4281545" lon="10.4887224"><ele>187.0</ele><time>2026-05-03T08:47:58.232Z</time></trkpt><trkpt lat="45.4281923" lon="10.4888069"><ele>188.0</ele><time>2026-05-03T08:47:59.232Z</time></trkpt><trkpt lat="45.4282362" lon="10.4888906"><ele>189.0</ele><time>2026-05-03T08:48:00.232Z</time></trkpt><trkpt lat="45.4282999" lon="10.4890164"><ele>189.83333333333334</ele><time>2026-05-03T08:48:02.233Z</time></trkpt><trkpt lat="45.4283452" lon="10.4890896"><ele>190.66666666666669</ele><time>2026-05-03T08:48:04.232Z</time></trkpt><trkpt lat="45.4284103" lon="10.4891838"><ele>191.5</ele><time>2026-05-03T08:48:06.233Z</time></trkpt><trkpt lat="45.4284814" lon="10.4892829"><ele>192.33333333333334</ele><time>2026-05-03T08:48:08.232Z</time></trkpt><trkpt lat="45.4285227" lon="10.4893917"><ele>193.16666666666669</ele><time>2026-05-03T08:48:10.232Z</time></trkpt><trkpt lat="45.4285748" lon="10.4894563"><ele>194.0</ele><time>2026-05-03T08:48:12.233Z</time></trkpt><trkpt lat="45.4286415" lon="10.489538"><ele>194.2</ele><time>2026-05-03T08:48:14.232Z</time></trkpt><trkpt lat="45.4286989" lon="10.4896408"><ele>194.39999999999998</ele><time>2026-05-03T08:48:16.232Z</time></trkpt><trkpt lat="45.4287413" lon="10.4897334"><ele>194.6</ele><time>2026-05-03T08:48:18.232Z</time></trkpt><trkpt lat="45.4287921" lon="10.4898466"><ele>194.8</ele><time>2026-05-03T08:48:21.232Z</time></trkpt><trkpt lat="45.4288551" lon="10.4899214"><ele>195.0</ele><time>2026-05-03T08:48:23.233Z</time></trkpt><trkpt lat="45.4289472" lon="10.4900188"><ele>195.0</ele><time>2026-05-03T08:48:25.232Z</time></trkpt><trkpt lat="45.4290147" lon="10.4901192"><ele>195.0</ele><time>2026-05-03T08:48:27.232Z</time></trkpt><trkpt lat="45.429085" lon="10.4901817"><ele>195.0</ele><time>2026-05-03T08:48:29.232Z</time></trkpt><trkpt lat="45.429166" lon="10.4902486"><ele>195.0</ele><time>2026-05-03T08:48:31.232Z</time></trkpt><trkpt lat="45.4292205" lon="10.4903321"><ele>195.0</ele><time>2026-05-03T08:48:33.233Z</time></trkpt><trkpt lat="45.4293003" lon="10.4904144"><ele>194.83333333333334</ele><time>2026-05-03T08:48:35.232Z</time></trkpt><trkpt lat="45.4294068" lon="10.4904969"><ele>194.66666666666669</ele><time>2026-05-03T08:48:37.232Z</time></trkpt><trkpt lat="45.4294628" lon="10.4905434"><ele>194.5</ele><time>2026-05-03T08:48:38.232Z</time></trkpt><trkpt lat="45.429522" lon="10.4906034"><ele>194.33333333333334</ele><time>2026-05-03T08:48:39.232Z</time></trkpt><trkpt lat="45.4295859" lon="10.4906768"><ele>194.16666666666669</ele><time>2026-05-03T08:48:40.232Z</time></trkpt><trkpt lat="45.4296444" lon="10.4907516"><ele>194.0</ele><time>2026-05-03T08:48:41.232Z</time></trkpt><trkpt lat="45.4296975" lon="10.4908083"><ele>194.0</ele><time>2026-05-03T08:48:42.232Z</time></trkpt><trkpt lat="45.4297759" lon="10.4908532"><ele>194.0</ele><time>2026-05-03T08:48:44.232Z</time></trkpt><trkpt lat="45.4298676" lon="10.4908486"><ele>194.0</ele><time>2026-05-03T08:48:46.232Z</time></trkpt><trkpt lat="45.4299714" lon="10.4908765"><ele>194.0</ele><time>2026-05-03T08:48:48.232Z</time></trkpt><trkpt lat="45.430068" lon="10.4909347"><ele>194.0</ele><time>2026-05-03T08:48:50.232Z</time></trkpt><trkpt lat="45.4301549" lon="10.4909659"><ele>194.00000000000003</ele><time>2026-05-03T08:48:52.232Z</time></trkpt><trkpt lat="45.4302156" lon="10.490999"><ele>194.0</ele><time>2026-05-03T08:49:03.233Z</time></trkpt><trkpt lat="45.43024" lon="10.4911477"><ele>194.0</ele><time>2026-05-03T08:51:00.232Z</time></trkpt><trkpt lat="45.4302467" lon="10.4912889"><ele>194.0</ele><time>2026-05-03T08:51:02.233Z</time></trkpt><trkpt lat="45.4302586" lon="10.4914278"><ele>194.00000000000003</ele><time>2026-05-03T08:51:04.232Z</time></trkpt><trkpt lat="45.4302693" lon="10.4915395"><ele>194.0</ele><time>2026-05-03T08:51:06.232Z</time></trkpt><trkpt lat="45.4302715" lon="10.4916351"><ele>192.66666666666669</ele><time>2026-05-03T08:51:17.232Z</time></trkpt><trkpt lat="45.4302856" lon="10.4917469"><ele>191.33333333333334</ele><time>2026-05-03T08:51:20.232Z</time></trkpt><trkpt lat="45.430313" lon="10.4918687"><ele>190.0</ele><time>2026-05-03T08:51:23.232Z</time></trkpt><trkpt lat="45.4303413" lon="10.4919567"><ele>188.66666666666669</ele><time>2026-05-03T08:51:26.232Z</time></trkpt><trkpt lat="45.4303827" lon="10.4920716"><ele>187.33333333333334</ele><time>2026-05-03T08:51:32.232Z</time></trkpt><trkpt lat="45.4304118" lon="10.4921746"><ele>186.0</ele><time>2026-05-03T08:51:34.232Z</time></trkpt><trkpt lat="45.4304329" lon="10.4922814"><ele>186.60000000000002</ele><time>2026-05-03T08:51:36.232Z</time></trkpt><trkpt lat="45.4304757" lon="10.4923893"><ele>187.2</ele><time>2026-05-03T08:51:38.233Z</time></trkpt><trkpt lat="45.4305265" lon="10.4924952"><ele>187.8</ele><time>2026-05-03T08:51:40.241Z</time></trkpt><trkpt lat="45.4305688" lon="10.4926202"><ele>188.39999999999998</ele><time>2026-05-03T08:51:42.232Z</time></trkpt><trkpt lat="45.4305928" lon="10.4927667"><ele>189.0</ele><time>2026-05-03T08:51:44.232Z</time></trkpt><trkpt lat="45.4306122" lon="10.4929132"><ele>186.6</ele><time>2026-05-03T08:51:46.233Z</time></trkpt><trkpt lat="45.430623" lon="10.4930597"><ele>184.2</ele><time>2026-05-03T08:51:48.232Z</time></trkpt><trkpt lat="45.4306285" lon="10.4931914"><ele>181.79999999999998</ele><time>2026-05-03T08:51:50.232Z</time></trkpt><trkpt lat="45.4306287" lon="10.4933085"><ele>179.39999999999998</ele><time>2026-05-03T08:51:52.232Z</time></trkpt><trkpt lat="45.4306148" lon="10.4934192"><ele>177.0</ele><time>2026-05-03T08:51:54.232Z</time></trkpt><trkpt lat="45.4304875" lon="10.4934446"><ele>175.83333333333334</ele><time>2026-05-03T08:52:04.232Z</time></trkpt><trkpt lat="45.4304129" lon="10.4934014"><ele>174.66666666666666</ele><time>2026-05-03T08:52:05.232Z</time></trkpt><trkpt lat="45.4303418" lon="10.4933561"><ele>173.5</ele><time>2026-05-03T08:52:06.232Z</time></trkpt><trkpt lat="45.4302644" lon="10.4933119"><ele>172.33333333333331</ele><time>2026-05-03T08:52:07.232Z</time></trkpt><trkpt lat="45.4301859" lon="10.4932694"><ele>171.16666666666666</ele><time>2026-05-03T08:52:08.232Z</time></trkpt><trkpt lat="45.4301043" lon="10.4932191"><ele>170.0</ele><time>2026-05-03T08:52:09.232Z</time></trkpt><trkpt lat="45.4300211" lon="10.4931733"><ele>170.0</ele><time>2026-05-03T08:52:10.232Z</time></trkpt><trkpt lat="45.4299379" lon="10.493131"><ele>170.0</ele><time>2026-05-03T08:52:11.232Z</time></trkpt><trkpt lat="45.42986" lon="10.4930774"><ele>170.0</ele><time>2026-05-03T08:52:12.232Z</time></trkpt><trkpt lat="45.4297849" lon="10.4930324"><ele>170.0</ele><time>2026-05-03T08:52:13.232Z</time></trkpt><trkpt lat="45.4297117" lon="10.4929913"><ele>170.0</ele><time>2026-05-03T08:52:14.232Z</time></trkpt><trkpt lat="45.4296444" lon="10.4929476"><ele>170.0</ele><time>2026-05-03T08:52:15.233Z</time></trkpt><trkpt lat="45.429574" lon="10.4929077"><ele>170.16666666666666</ele><time>2026-05-03T08:52:16.232Z</time></trkpt><trkpt lat="45.4294862" lon="10.492843"><ele>170.33333333333331</ele><time>2026-05-03T08:52:18.232Z</time></trkpt><trkpt lat="45.4294149" lon="10.4928033"><ele>170.5</ele><time>2026-05-03T08:52:48.232Z</time></trkpt><trkpt lat="45.4293393" lon="10.4927676"><ele>170.66666666666666</ele><time>2026-05-03T08:52:50.232Z</time></trkpt><trkpt lat="45.4292806" lon="10.4926673"><ele>170.83333333333334</ele><time>2026-05-03T08:52:56.232Z</time></trkpt><trkpt lat="45.4292234" lon="10.4925928"><ele>171.0</ele><time>2026-05-03T08:52:59.232Z</time></trkpt><trkpt lat="45.4291184" lon="10.4925835"><ele>171.0</ele><time>2026-05-03T08:53:02.232Z</time></trkpt><trkpt lat="45.4290556" lon="10.4925753"><ele>171.0</ele><time>2026-05-03T08:53:03.232Z</time></trkpt><trkpt lat="45.4289467" lon="10.4925267"><ele>171.0</ele><time>2026-05-03T08:53:05.232Z</time></trkpt><trkpt lat="45.428872" lon="10.4925061"><ele>171.0</ele><time>2026-05-03T08:53:07.232Z</time></trkpt><trkpt lat="45.4287698" lon="10.4924896"><ele>171.0</ele><time>2026-05-03T08:53:26.233Z</time></trkpt><trkpt lat="45.4286842" lon="10.492454"><ele>171.0</ele><time>2026-05-03T08:53:28.233Z</time></trkpt><trkpt lat="45.4286141" lon="10.4923618"><ele>170.16666666666666</ele><time>2026-05-03T08:53:30.232Z</time></trkpt><trkpt lat="45.4285436" lon="10.4923159"><ele>169.33333333333334</ele><time>2026-05-03T08:53:32.232Z</time></trkpt><trkpt lat="45.428461" lon="10.4922943"><ele>168.5</ele><time>2026-05-03T08:53:34.232Z</time></trkpt><trkpt lat="45.4283697" lon="10.4923044"><ele>167.66666666666669</ele><time>2026-05-03T08:53:36.232Z</time></trkpt><trkpt lat="45.428272" lon="10.4923127"><ele>166.83333333333334</ele><time>2026-05-03T08:53:38.232Z</time></trkpt><trkpt lat="45.4281794" lon="10.4923205"><ele>166.0</ele><time>2026-05-03T08:53:40.232Z</time></trkpt><trkpt lat="45.4281146" lon="10.4923047"><ele>166.0</ele><time>2026-05-03T08:53:41.232Z</time></trkpt><trkpt lat="45.4280338" lon="10.4922531"><ele>166.0</ele><time>2026-05-03T08:53:42.232Z</time></trkpt><trkpt lat="45.4279575" lon="10.4922068"><ele>166.0</ele><time>2026-05-03T08:53:43.232Z</time></trkpt><trkpt lat="45.4278707" lon="10.4921248"><ele>166.0</ele><time>2026-05-03T08:53:45.232Z</time></trkpt><trkpt lat="45.4277704" lon="10.4921374"><ele>166.0</ele><time>2026-05-03T08:53:47.233Z</time></trkpt><trkpt lat="45.4277032" lon="10.4921406"><ele>166.0</ele><time>2026-05-03T08:53:48.232Z</time></trkpt><trkpt lat="45.427639" lon="10.4921304"><ele>165.16666666666669</ele><time>2026-05-03T08:53:49.232Z</time></trkpt><trkpt lat="45.4275711" lon="10.4921174"><ele>164.33333333333334</ele><time>2026-05-03T08:53:50.232Z</time></trkpt><trkpt lat="45.4274435" lon="10.492131"><ele>163.5</ele><time>2026-05-03T08:53:52.232Z</time></trkpt><trkpt lat="45.4273781" lon="10.4921539"><ele>162.66666666666666</ele><time>2026-05-03T08:53:53.233Z</time></trkpt><trkpt lat="45.4273103" lon="10.4921502"><ele>161.83333333333331</ele><time>2026-05-03T08:53:55.232Z</time></trkpt><trkpt lat="45.4272368" lon="10.4921519"><ele>161.0</ele><time>2026-05-03T08:53:57.233Z</time></trkpt><trkpt lat="45.4271694" lon="10.4922001"><ele>161.8</ele><time>2026-05-03T08:53:59.232Z</time></trkpt><trkpt lat="45.4270855" lon="10.4922528"><ele>162.60000000000002</ele><time>2026-05-03T08:54:02.232Z</time></trkpt><trkpt lat="45.4270405" lon="10.4923178"><ele>163.4</ele><time>2026-05-03T08:54:07.233Z</time></trkpt><trkpt lat="45.4270324" lon="10.4924069"><ele>164.2</ele><time>2026-05-03T08:54:09.233Z</time></trkpt><trkpt lat="45.4269996" lon="10.4925834"><ele>165.0</ele><time>2026-05-03T08:54:11.233Z</time></trkpt><trkpt lat="45.426967" lon="10.492739"><ele>165.00000000000003</ele><time>2026-05-03T08:54:13.232Z</time></trkpt><trkpt lat="45.4269553" lon="10.4928671"><ele>165.0</ele><time>2026-05-03T08:54:15.232Z</time></trkpt><trkpt lat="45.4269852" lon="10.4929473"><ele>165.0</ele><time>2026-05-03T08:54:17.232Z</time></trkpt><trkpt lat="45.4270274" lon="10.4930263"><ele>165.0</ele><time>2026-05-03T08:54:19.233Z</time></trkpt><trkpt lat="45.4270512" lon="10.4931316"><ele>165.0</ele><time>2026-05-03T08:54:21.232Z</time></trkpt><trkpt lat="45.4270664" lon="10.4932258"><ele>165.00000000000003</ele><time>2026-05-03T08:54:23.232Z</time></trkpt><trkpt lat="45.4270607" lon="10.4933189"><ele>165.0</ele><time>2026-05-03T08:54:26.232Z</time></trkpt><trkpt lat="45.4270263" lon="10.4934092"><ele>163.0</ele><time>2026-05-03T08:54:29.232Z</time></trkpt><trkpt lat="45.4269451" lon="10.4934365"><ele>161.0</ele><time>2026-05-03T08:54:33.232Z</time></trkpt><trkpt lat="45.4268758" lon="10.4933985"><ele>159.0</ele><time>2026-05-03T08:54:35.232Z</time></trkpt><trkpt lat="45.4268013" lon="10.4933615"><ele>157.0</ele><time>2026-05-03T08:54:37.233Z</time></trkpt><trkpt lat="45.426713" lon="10.4934066"><ele>155.0</ele><time>2026-05-03T08:54:39.232Z</time></trkpt><trkpt lat="45.4266324" lon="10.4934679"><ele>153.0</ele><time>2026-05-03T08:54:41.232Z</time></trkpt><trkpt lat="45.4266009" lon="10.4935499"><ele>153.0</ele><time>2026-05-03T08:54:42.232Z</time></trkpt><trkpt lat="45.4265504" lon="10.4936309"><ele>153.0</ele><time>2026-05-03T08:54:44.233Z</time></trkpt><trkpt lat="45.4264893" lon="10.4936667"><ele>153.0</ele><time>2026-05-03T08:54:51.232Z</time></trkpt><trkpt lat="45.4264053" lon="10.4936069"><ele>153.0</ele><time>2026-05-03T08:54:54.232Z</time></trkpt><trkpt lat="45.4263498" lon="10.4935564"><ele>153.0</ele><time>2026-05-03T08:54:57.232Z</time></trkpt><trkpt lat="45.4262675" lon="10.4935068"><ele>153.0</ele><time>2026-05-03T08:54:59.232Z</time></trkpt><trkpt lat="45.426193" lon="10.4934756"><ele>151.0</ele><time>2026-05-03T08:55:00.233Z</time></trkpt><trkpt lat="45.4261107" lon="10.4934374"><ele>149.0</ele><time>2026-05-03T08:55:01.233Z</time></trkpt><trkpt lat="45.426005" lon="10.4933726"><ele>147.0</ele><time>2026-05-03T08:55:02.232Z</time></trkpt><trkpt lat="45.42589" lon="10.4933056"><ele>145.0</ele><time>2026-05-03T08:55:03.232Z</time></trkpt><trkpt lat="45.4257798" lon="10.4932238"><ele>145.0</ele><time>2026-05-03T08:55:04.232Z</time></trkpt><trkpt lat="45.4256774" lon="10.4931466"><ele>145.0</ele><time>2026-05-03T08:55:05.232Z</time></trkpt><trkpt lat="45.4255806" lon="10.4930795"><ele>145.0</ele><time>2026-05-03T08:55:06.232Z</time></trkpt><trkpt lat="45.425493" lon="10.4930228"><ele>145.0</ele><time>2026-05-03T08:55:07.232Z</time></trkpt><trkpt lat="45.4254153" lon="10.4929771"><ele>145.0</ele><time>2026-05-03T08:55:08.232Z</time></trkpt><trkpt lat="45.4253416" lon="10.4929226"><ele>145.5</ele><time>2026-05-03T08:55:09.232Z</time></trkpt><trkpt lat="45.4252771" lon="10.4928793"><ele>146.0</ele><time>2026-05-03T08:55:10.232Z</time></trkpt><trkpt lat="45.4252168" lon="10.4928306"><ele>146.5</ele><time>2026-05-03T08:55:11.233Z</time></trkpt><trkpt lat="45.4251629" lon="10.4927829"><ele>147.0</ele><time>2026-05-03T08:55:12.232Z</time></trkpt><trkpt lat="45.4251149" lon="10.4927139"><ele>147.5</ele><time>2026-05-03T08:55:13.233Z</time></trkpt><trkpt lat="45.4250538" lon="10.4925811"><ele>148.0</ele><time>2026-05-03T08:55:15.232Z</time></trkpt><trkpt lat="45.424996" lon="10.4924924"><ele>148.0</ele><time>2026-05-03T08:55:17.232Z</time></trkpt><trkpt lat="45.4248956" lon="10.492454"><ele>148.0</ele><time>2026-05-03T08:55:19.233Z</time></trkpt><trkpt lat="45.4248156" lon="10.492433"><ele>148.0</ele><time>2026-05-03T08:55:20.232Z</time></trkpt><trkpt lat="45.4247449" lon="10.4924038"><ele>148.0</ele><time>2026-05-03T08:55:21.232Z</time></trkpt><trkpt lat="45.4246783" lon="10.4923815"><ele>148.0</ele><time>2026-05-03T08:55:22.232Z</time></trkpt><trkpt lat="45.4245587" lon="10.4924166"><ele>148.0</ele><time>2026-05-03T08:55:24.232Z</time></trkpt><trkpt lat="45.4245102" lon="10.4924797"><ele>147.83333333333334</ele><time>2026-05-03T08:55:25.232Z</time></trkpt><trkpt lat="45.4244669" lon="10.4925517"><ele>147.66666666666669</ele><time>2026-05-03T08:55:26.232Z</time></trkpt><trkpt lat="45.4244299" lon="10.4926365"><ele>147.5</ele><time>2026-05-03T08:55:27.232Z</time></trkpt><trkpt lat="45.424392" lon="10.4927591"><ele>147.33333333333334</ele><time>2026-05-03T08:55:28.232Z</time></trkpt><trkpt lat="45.4243483" lon="10.4928825"><ele>147.16666666666666</ele><time>2026-05-03T08:55:29.233Z</time></trkpt><trkpt lat="45.4243145" lon="10.4930192"><ele>147.0</ele><time>2026-05-03T08:55:30.232Z</time></trkpt><trkpt lat="45.4242756" lon="10.4931491"><ele>145.4</ele><time>2026-05-03T08:55:31.232Z</time></trkpt><trkpt lat="45.4242464" lon="10.4932786"><ele>143.79999999999998</ele><time>2026-05-03T08:55:32.232Z</time></trkpt><trkpt lat="45.4242145" lon="10.493409"><ele>142.2</ele><time>2026-05-03T08:55:33.232Z</time></trkpt><trkpt lat="45.4241775" lon="10.4935431"><ele>140.6</ele><time>2026-05-03T08:55:34.233Z</time></trkpt><trkpt lat="45.4241439" lon="10.4936816"><ele>139.0</ele><time>2026-05-03T08:55:35.232Z</time></trkpt><trkpt lat="45.4241023" lon="10.4938098"><ele>138.2</ele><time>2026-05-03T08:55:36.232Z</time></trkpt><trkpt lat="45.4240625" lon="10.4939364"><ele>137.4</ele><time>2026-05-03T08:55:37.232Z</time></trkpt><trkpt lat="45.4240253" lon="10.4940556"><ele>136.6</ele><time>2026-05-03T08:55:38.232Z</time></trkpt><trkpt lat="45.4239929" lon="10.4941778"><ele>135.8</ele><time>2026-05-03T08:55:39.232Z</time></trkpt><trkpt lat="45.4239604" lon="10.4943024"><ele>135.0</ele><time>2026-05-03T08:55:40.232Z</time></trkpt><trkpt lat="45.4239321" lon="10.4944176"><ele>135.0</ele><time>2026-05-03T08:55:41.232Z</time></trkpt><trkpt lat="45.4238988" lon="10.4945394"><ele>135.0</ele><time>2026-05-03T08:55:42.232Z</time></trkpt><trkpt lat="45.4238667" lon="10.49466"><ele>135.0</ele><time>2026-05-03T08:55:43.232Z</time></trkpt><trkpt lat="45.4238361" lon="10.4947879"><ele>135.0</ele><time>2026-05-03T08:55:44.232Z</time></trkpt><trkpt lat="45.4238008" lon="10.4949154"><ele>135.0</ele><time>2026-05-03T08:55:45.232Z</time></trkpt><trkpt lat="45.4237682" lon="10.49505"><ele>135.0</ele><time>2026-05-03T08:55:46.232Z</time></trkpt><trkpt lat="45.4237344" lon="10.4951776"><ele>135.0</ele><time>2026-05-03T08:55:47.232Z</time></trkpt><trkpt lat="45.4237021" lon="10.4952987"><ele>135.0</ele><time>2026-05-03T08:55:48.232Z</time></trkpt><trkpt lat="45.4236698" lon="10.4954032"><ele>135.0</ele><time>2026-05-03T08:55:49.232Z</time></trkpt><trkpt lat="45.4236423" lon="10.4954887"><ele>135.0</ele><time>2026-05-03T08:55:50.233Z</time></trkpt><trkpt lat="45.4235919" lon="10.4955935"><ele>135.0</ele><time>2026-05-03T08:55:52.232Z</time></trkpt><trkpt lat="45.4234948" lon="10.4956366"><ele>135.66666666666666</ele><time>2026-05-03T08:55:54.232Z</time></trkpt><trkpt lat="45.423419" lon="10.4956305"><ele>136.33333333333334</ele><time>2026-05-03T08:55:55.232Z</time></trkpt><trkpt lat="45.4233358" lon="10.4956163"><ele>137.0</ele><time>2026-05-03T08:55:56.232Z</time></trkpt><trkpt lat="45.4232549" lon="10.495602"><ele>137.66666666666669</ele><time>2026-05-03T08:55:57.232Z</time></trkpt><trkpt lat="45.4231822" lon="10.4955926"><ele>138.33333333333334</ele><time>2026-05-03T08:55:58.232Z</time></trkpt><trkpt lat="45.4231181" lon="10.4955898"><ele>139.0</ele><time>2026-05-03T08:55:59.232Z</time></trkpt><trkpt lat="45.4230328" lon="10.495603"><ele>139.0</ele><time>2026-05-03T08:56:01.232Z</time></trkpt><trkpt lat="45.4229865" lon="10.4956896"><ele>139.0</ele><time>2026-05-03T08:56:08.232Z</time></trkpt><trkpt lat="45.422982" lon="10.4958831"><ele>139.0</ele><time>2026-05-03T08:56:10.232Z</time></trkpt><trkpt lat="45.4229802" lon="10.4960006"><ele>139.0</ele><time>2026-05-03T08:56:11.232Z</time></trkpt><trkpt lat="45.422978" lon="10.4961343"><ele>139.0</ele><time>2026-05-03T08:56:12.232Z</time></trkpt><trkpt lat="45.4229729" lon="10.4962717"><ele>138.5</ele><time>2026-05-03T08:56:13.232Z</time></trkpt><trkpt lat="45.4229697" lon="10.4964167"><ele>138.0</ele><time>2026-05-03T08:56:14.232Z</time></trkpt><trkpt lat="45.4229634" lon="10.4965486"><ele>137.5</ele><time>2026-05-03T08:56:15.232Z</time></trkpt><trkpt lat="45.4229571" lon="10.4966724"><ele>137.0</ele><time>2026-05-03T08:56:16.232Z</time></trkpt><trkpt lat="45.4229589" lon="10.4967841"><ele>136.5</ele><time>2026-05-03T08:56:17.232Z</time></trkpt><trkpt lat="45.4229545" lon="10.4968876"><ele>136.0</ele><time>2026-05-03T08:56:18.232Z</time></trkpt><trkpt lat="45.4229526" lon="10.4969823"><ele>135.99999999999997</ele><time>2026-05-03T08:56:19.232Z</time></trkpt><trkpt lat="45.4229567" lon="10.4970751"><ele>136.0</ele><time>2026-05-03T08:56:20.233Z</time></trkpt><trkpt lat="45.4229659" lon="10.4971646"><ele>136.0</ele><time>2026-05-03T08:56:21.232Z</time></trkpt><trkpt lat="45.4229847" lon="10.4972577"><ele>136.0</ele><time>2026-05-03T08:56:22.232Z</time></trkpt><trkpt lat="45.423016" lon="10.4973659"><ele>136.0</ele><time>2026-05-03T08:56:23.232Z</time></trkpt><trkpt lat="45.4230444" lon="10.49748"><ele>135.99999999999997</ele><time>2026-05-03T08:56:24.232Z</time></trkpt><trkpt lat="45.4230692" lon="10.4975957"><ele>136.0</ele><time>2026-05-03T08:56:25.232Z</time></trkpt><trkpt lat="45.4230856" lon="10.4977035"><ele>136.33333333333334</ele><time>2026-05-03T08:56:26.233Z</time></trkpt><trkpt lat="45.4231052" lon="10.497789"><ele>136.66666666666669</ele><time>2026-05-03T08:56:27.232Z</time></trkpt><trkpt lat="45.4231765" lon="10.4979039"><ele>137.0</ele><time>2026-05-03T08:56:29.232Z</time></trkpt><trkpt lat="45.4232354" lon="10.4979407"><ele>137.33333333333334</ele><time>2026-05-03T08:56:30.232Z</time></trkpt><trkpt lat="45.4233189" lon="10.4979604"><ele>137.66666666666666</ele><time>2026-05-03T08:56:31.232Z</time></trkpt><trkpt lat="45.4234244" lon="10.4979858"><ele>138.0</ele><time>2026-05-03T08:56:32.232Z</time></trkpt><trkpt lat="45.4235428" lon="10.498028"><ele>139.0</ele><time>2026-05-03T08:56:33.232Z</time></trkpt><trkpt lat="45.4236676" lon="10.4980654"><ele>140.0</ele><time>2026-05-03T08:56:34.232Z</time></trkpt><trkpt lat="45.4238028" lon="10.4981133"><ele>141.0</ele><time>2026-05-03T08:56:35.233Z</time></trkpt><trkpt lat="45.4239438" lon="10.4981631"><ele>142.0</ele><time>2026-05-03T08:56:36.232Z</time></trkpt><trkpt lat="45.4240727" lon="10.4982103"><ele>142.0</ele><time>2026-05-03T08:56:37.232Z</time></trkpt><trkpt lat="45.4241889" lon="10.4982575"><ele>142.0</ele><time>2026-05-03T08:56:38.232Z</time></trkpt><trkpt lat="45.4243058" lon="10.4983003"><ele>142.0</ele><time>2026-05-03T08:56:39.232Z</time></trkpt><trkpt lat="45.4244133" lon="10.4983512"><ele>142.0</ele><time>2026-05-03T08:56:40.232Z</time></trkpt><trkpt lat="45.4245184" lon="10.4984053"><ele>142.0</ele><time>2026-05-03T08:56:41.232Z</time></trkpt><trkpt lat="45.424625" lon="10.4984611"><ele>142.0</ele><time>2026-05-03T08:56:42.233Z</time></trkpt><trkpt lat="45.424709" lon="10.4985119"><ele>142.0</ele><time>2026-05-03T08:56:43.232Z</time></trkpt><trkpt lat="45.424769" lon="10.4985524"><ele>142.0</ele><time>2026-05-03T08:56:44.232Z</time></trkpt><trkpt lat="45.4248154" lon="10.4986206"><ele>142.0</ele><time>2026-05-03T08:56:46.232Z</time></trkpt><trkpt lat="45.4248047" lon="10.4987496"><ele>142.0</ele><time>2026-05-03T08:56:48.232Z</time></trkpt><trkpt lat="45.4247601" lon="10.4988655"><ele>142.75</ele><time>2026-05-03T08:56:49.232Z</time></trkpt><trkpt lat="45.4247212" lon="10.4990078"><ele>143.5</ele><time>2026-05-03T08:56:50.232Z</time></trkpt><trkpt lat="45.4246719" lon="10.4991839"><ele>144.25</ele><time>2026-05-03T08:56:51.232Z</time></trkpt><trkpt lat="45.424613" lon="10.4993761"><ele>145.0</ele><time>2026-05-03T08:56:52.232Z</time></trkpt><trkpt lat="45.4245537" lon="10.4995792"><ele>146.5</ele><time>2026-05-03T08:56:53.232Z</time></trkpt><trkpt lat="45.4244978" lon="10.4997492"><ele>148.0</ele><time>2026-05-03T08:56:54.232Z</time></trkpt><trkpt lat="45.4244495" lon="10.4999207"><ele>149.5</ele><time>2026-05-03T08:56:55.232Z</time></trkpt><trkpt lat="45.4244029" lon="10.5000755"><ele>151.0</ele><time>2026-05-03T08:56:56.232Z</time></trkpt><trkpt lat="45.4243522" lon="10.5002226"><ele>151.0</ele><time>2026-05-03T08:56:57.232Z</time></trkpt><trkpt lat="45.4243101" lon="10.5003578"><ele>151.0</ele><time>2026-05-03T08:56:58.233Z</time></trkpt><trkpt lat="45.4242756" lon="10.5004911"><ele>151.0</ele><time>2026-05-03T08:56:59.232Z</time></trkpt><trkpt lat="45.4242408" lon="10.5005917"><ele>151.0</ele><time>2026-05-03T08:57:00.232Z</time></trkpt><trkpt lat="45.4242134" lon="10.5006728"><ele>151.0</ele><time>2026-05-03T08:57:01.232Z</time></trkpt><trkpt lat="45.4241839" lon="10.5007688"><ele>151.0</ele><time>2026-05-03T08:57:03.232Z</time></trkpt><trkpt lat="45.4242277" lon="10.5006649"><ele>151.0</ele><time>2026-05-03T08:57:46.232Z</time></trkpt><trkpt lat="45.4242687" lon="10.5004922"><ele>151.0</ele><time>2026-05-03T08:57:48.232Z</time></trkpt><trkpt lat="45.4243053" lon="10.5003759"><ele>151.0</ele><time>2026-05-03T08:57:49.233Z</time></trkpt><trkpt lat="45.4243498" lon="10.500236"><ele>151.0</ele><time>2026-05-03T08:57:50.232Z</time></trkpt><trkpt lat="45.4243971" lon="10.5000783"><ele>151.0</ele><time>2026-05-03T08:57:51.232Z</time></trkpt><trkpt lat="45.42445" lon="10.4999207"><ele>151.0</ele><time>2026-05-03T08:57:52.232Z</time></trkpt><trkpt lat="45.4245002" lon="10.4997587"><ele>151.0</ele><time>2026-05-03T08:57:53.232Z</time></trkpt><trkpt lat="45.4245458" lon="10.4996006"><ele>151.0</ele><time>2026-05-03T08:57:54.232Z</time></trkpt><trkpt lat="45.4245972" lon="10.4994298"><ele>151.0</ele><time>2026-05-03T08:57:55.232Z</time></trkpt><trkpt lat="45.4246442" lon="10.4992723"><ele>149.8</ele><time>2026-05-03T08:57:56.232Z</time></trkpt><trkpt lat="45.4246876" lon="10.4991288"><ele>148.6</ele><time>2026-05-03T08:57:57.232Z</time></trkpt><trkpt lat="45.4247282" lon="10.4989984"><ele>147.4</ele><time>2026-05-03T08:57:58.232Z</time></trkpt><trkpt lat="45.4247623" lon="10.4988756"><ele>146.2</ele><time>2026-05-03T08:57:59.233Z</time></trkpt><trkpt lat="45.4247936" lon="10.4987717"><ele>145.0</ele><time>2026-05-03T08:58:00.232Z</time></trkpt><trkpt lat="45.4248294" lon="10.4986525"><ele>144.4</ele><time>2026-05-03T08:58:02.232Z</time></trkpt><trkpt lat="45.4247856" lon="10.4985537"><ele>143.8</ele><time>2026-05-03T08:58:05.232Z</time></trkpt><trkpt lat="45.4246657" lon="10.4984729"><ele>143.2</ele><time>2026-05-03T08:58:07.232Z</time></trkpt><trkpt lat="45.4245826" lon="10.4984235"><ele>142.6</ele><time>2026-05-03T08:58:08.233Z</time></trkpt><trkpt lat="45.4244824" lon="10.4983683"><ele>142.0</ele><time>2026-05-03T08:58:09.232Z</time></trkpt><trkpt lat="45.4243737" lon="10.4983105"><ele>142.0</ele><time>2026-05-03T08:58:10.232Z</time></trkpt><trkpt lat="45.4242569" lon="10.4982568"><ele>142.0</ele><time>2026-05-03T08:58:11.232Z</time></trkpt><trkpt lat="45.4241336" lon="10.4982033"><ele>142.0</ele><time>2026-05-03T08:58:12.232Z</time></trkpt><trkpt lat="45.4240176" lon="10.4981608"><ele>142.0</ele><time>2026-05-03T08:58:13.232Z</time></trkpt><trkpt lat="45.4239026" lon="10.4981177"><ele>142.2</ele><time>2026-05-03T08:58:14.233Z</time></trkpt><trkpt lat="45.4237917" lon="10.4980788"><ele>142.39999999999998</ele><time>2026-05-03T08:58:15.232Z</time></trkpt><trkpt lat="45.4236851" lon="10.4980421"><ele>142.60000000000002</ele><time>2026-05-03T08:58:16.232Z</time></trkpt><trkpt lat="45.4235831" lon="10.4980132"><ele>142.8</ele><time>2026-05-03T08:58:17.232Z</time></trkpt><trkpt lat="45.423488" lon="10.4979866"><ele>143.0</ele><time>2026-05-03T08:58:18.232Z</time></trkpt><trkpt lat="45.4233989" lon="10.4979607"><ele>143.0</ele><time>2026-05-03T08:58:19.233Z</time></trkpt><trkpt lat="45.4233142" lon="10.4979405"><ele>143.0</ele><time>2026-05-03T08:58:20.232Z</time></trkpt><trkpt lat="45.4232395" lon="10.4979278"><ele>143.0</ele><time>2026-05-03T08:58:21.233Z</time></trkpt><trkpt lat="45.4231338" lon="10.4978474"><ele>143.0</ele><time>2026-05-03T08:58:23.232Z</time></trkpt><trkpt lat="45.4230876" lon="10.4976853"><ele>143.0</ele><time>2026-05-03T08:58:25.232Z</time></trkpt><trkpt lat="45.4230731" lon="10.4975893"><ele>142.0</ele><time>2026-05-03T08:58:26.232Z</time></trkpt><trkpt lat="45.4230387" lon="10.4974327"><ele>141.0</ele><time>2026-05-03T08:58:28.232Z</time></trkpt><trkpt lat="45.4229897" lon="10.497263"><ele>140.0</ele><time>2026-05-03T08:58:30.232Z</time></trkpt><trkpt lat="45.4229734" lon="10.4971558"><ele>139.0</ele><time>2026-05-03T08:58:31.232Z</time></trkpt><trkpt lat="45.4229692" lon="10.4970247"><ele>138.0</ele><time>2026-05-03T08:58:32.232Z</time></trkpt><trkpt lat="45.4229719" lon="10.4968647"><ele>138.20000000000002</ele><time>2026-05-03T08:58:33.232Z</time></trkpt><trkpt lat="45.4229783" lon="10.4967004"><ele>138.4</ele><time>2026-05-03T08:58:34.232Z</time></trkpt><trkpt lat="45.4229783" lon="10.4965313"><ele>138.60000000000002</ele><time>2026-05-03T08:58:35.232Z</time></trkpt><trkpt lat="45.4229854" lon="10.4963742"><ele>138.8</ele><time>2026-05-03T08:58:36.232Z</time></trkpt><trkpt lat="45.4229877" lon="10.4962253"><ele>139.0</ele><time>2026-05-03T08:58:37.232Z</time></trkpt><trkpt lat="45.4229928" lon="10.4960946"><ele>139.0</ele><time>2026-05-03T08:58:38.232Z</time></trkpt><trkpt lat="45.4229988" lon="10.49598"><ele>139.0</ele><time>2026-05-03T08:58:39.232Z</time></trkpt><trkpt lat="45.423002" lon="10.4958793"><ele>139.0</ele><time>2026-05-03T08:58:40.232Z</time></trkpt><trkpt lat="45.4229959" lon="10.4957318"><ele>139.0</ele><time>2026-05-03T08:58:42.232Z</time></trkpt><trkpt lat="45.4229481" lon="10.4956207"><ele>139.0</ele><time>2026-05-03T08:58:44.233Z</time></trkpt><trkpt lat="45.4228234" lon="10.4955482"><ele>138.66666666666669</ele><time>2026-05-03T08:58:46.232Z</time></trkpt><trkpt lat="45.4227498" lon="10.4955301"><ele>138.33333333333334</ele><time>2026-05-03T08:58:47.232Z</time></trkpt><trkpt lat="45.4226776" lon="10.4955053"><ele>138.0</ele><time>2026-05-03T08:58:48.232Z</time></trkpt><trkpt lat="45.4225869" lon="10.4954137"><ele>137.66666666666666</ele><time>2026-05-03T08:58:50.232Z</time></trkpt><trkpt lat="45.422564" lon="10.4953298"><ele>137.33333333333331</ele><time>2026-05-03T08:58:51.232Z</time></trkpt><trkpt lat="45.4225464" lon="10.4952158"><ele>137.0</ele><time>2026-05-03T08:58:52.233Z</time></trkpt><trkpt lat="45.4225283" lon="10.4950985"><ele>137.0</ele><time>2026-05-03T08:58:53.233Z</time></trkpt><trkpt lat="45.4225013" lon="10.4949985"><ele>137.0</ele><time>2026-05-03T08:58:54.232Z</time></trkpt><trkpt lat="45.422429" lon="10.4948528"><ele>137.0</ele><time>2026-05-03T08:58:56.232Z</time></trkpt><trkpt lat="45.4223673" lon="10.4947905"><ele>137.0</ele><time>2026-05-03T08:58:57.232Z</time></trkpt><trkpt lat="45.4222876" lon="10.494733"><ele>137.0</ele><time>2026-05-03T08:58:58.232Z</time></trkpt><trkpt lat="45.4221992" lon="10.4946808"><ele>137.6</ele><time>2026-05-03T08:58:59.233Z</time></trkpt><trkpt lat="45.4221134" lon="10.4946493"><ele>138.2</ele><time>2026-05-03T08:59:00.232Z</time></trkpt><trkpt lat="45.4220245" lon="10.4946271"><ele>138.8</ele><time>2026-05-03T08:59:01.232Z</time></trkpt><trkpt lat="45.421931" lon="10.494613"><ele>139.4</ele><time>2026-05-03T08:59:02.232Z</time></trkpt><trkpt lat="45.4218243" lon="10.4946046"><ele>140.0</ele><time>2026-05-03T08:59:03.233Z</time></trkpt><trkpt lat="45.4217136" lon="10.4945965"><ele>140.0</ele><time>2026-05-03T08:59:04.232Z</time></trkpt><trkpt lat="45.4216057" lon="10.4945966"><ele>140.0</ele><time>2026-05-03T08:59:05.232Z</time></trkpt><trkpt lat="45.4215019" lon="10.4946079"><ele>140.0</ele><time>2026-05-03T08:59:06.232Z</time></trkpt><trkpt lat="45.4213998" lon="10.4946282"><ele>140.0</ele><time>2026-05-03T08:59:07.233Z</time></trkpt><trkpt lat="45.4213041" lon="10.4946591"><ele>140.0</ele><time>2026-05-03T08:59:08.233Z</time></trkpt><trkpt lat="45.4212099" lon="10.494716"><ele>138.75</ele><time>2026-05-03T08:59:09.233Z</time></trkpt><trkpt lat="45.4211066" lon="10.4947625"><ele>137.5</ele><time>2026-05-03T08:59:10.233Z</time></trkpt><trkpt lat="45.4209996" lon="10.4947862"><ele>136.25</ele><time>2026-05-03T08:59:11.232Z</time></trkpt><trkpt lat="45.4208832" lon="10.494791"><ele>135.0</ele><time>2026-05-03T08:59:12.232Z</time></trkpt><trkpt lat="45.4207581" lon="10.4947774"><ele>135.0</ele><time>2026-05-03T08:59:13.232Z</time></trkpt><trkpt lat="45.4206247" lon="10.4947633"><ele>135.0</ele><time>2026-05-03T08:59:14.232Z</time></trkpt><trkpt lat="45.4204853" lon="10.4947445"><ele>135.0</ele><time>2026-05-03T08:59:15.232Z</time></trkpt><trkpt lat="45.4203423" lon="10.4947256"><ele>135.0</ele><time>2026-05-03T08:59:16.232Z</time></trkpt><trkpt lat="45.4202051" lon="10.4947084"><ele>134.25</ele><time>2026-05-03T08:59:17.232Z</time></trkpt><trkpt lat="45.420076" lon="10.4946847"><ele>133.5</ele><time>2026-05-03T08:59:18.232Z</time></trkpt><trkpt lat="45.4199556" lon="10.4946541"><ele>132.75</ele><time>2026-05-03T08:59:19.232Z</time></trkpt><trkpt lat="45.4198477" lon="10.4946262"><ele>132.0</ele><time>2026-05-03T08:59:20.233Z</time></trkpt><trkpt lat="45.4197445" lon="10.4945925"><ele>132.0</ele><time>2026-05-03T08:59:21.232Z</time></trkpt><trkpt lat="45.4196493" lon="10.4945646"><ele>132.0</ele><time>2026-05-03T08:59:22.232Z</time></trkpt><trkpt lat="45.4195623" lon="10.4945381"><ele>132.0</ele><time>2026-05-03T08:59:23.232Z</time></trkpt><trkpt lat="45.4194782" lon="10.4945193"><ele>132.0</ele><time>2026-05-03T08:59:24.232Z</time></trkpt><trkpt lat="45.4194118" lon="10.4945015"><ele>132.0</ele><time>2026-05-03T08:59:25.233Z</time></trkpt><trkpt lat="45.4193079" lon="10.4944374"><ele>132.0</ele><time>2026-05-03T08:59:27.232Z</time></trkpt><trkpt lat="45.419256" lon="10.494313"><ele>132.0</ele><time>2026-05-03T08:59:29.232Z</time></trkpt><trkpt lat="45.41919" lon="10.494164"><ele>132.0</ele><time>2026-05-03T08:59:31.232Z</time></trkpt><trkpt lat="45.4191424" lon="10.4941046"><ele>132.0</ele><time>2026-05-03T08:59:32.232Z</time></trkpt><trkpt lat="45.4190373" lon="10.4940358"><ele>132.0</ele><time>2026-05-03T08:59:34.233Z</time></trkpt><trkpt lat="45.4189287" lon="10.4940106"><ele>132.0</ele><time>2026-05-03T08:59:36.232Z</time></trkpt><trkpt lat="45.4188254" lon="10.4940156"><ele>132.0</ele><time>2026-05-03T08:59:38.232Z</time></trkpt><trkpt lat="45.418735" lon="10.4940178"><ele>132.0</ele><time>2026-05-03T08:59:40.232Z</time></trkpt><trkpt lat="45.4186575" lon="10.4940152"><ele>132.0</ele><time>2026-05-03T08:59:42.232Z</time></trkpt><trkpt lat="45.4185882" lon="10.4940181"><ele>132.0</ele><time>2026-05-03T08:59:44.233Z</time></trkpt><trkpt lat="45.418504" lon="10.4940246"><ele>132.0</ele><time>2026-05-03T08:59:46.232Z</time></trkpt><trkpt lat="45.4184131" lon="10.494031"><ele>131.6</ele><time>2026-05-03T08:59:48.232Z</time></trkpt><trkpt lat="45.4182766" lon="10.4940697"><ele>131.2</ele><time>2026-05-03T08:59:50.232Z</time></trkpt><trkpt lat="45.4181839" lon="10.4941111"><ele>130.8</ele><time>2026-05-03T08:59:51.233Z</time></trkpt><trkpt lat="45.4180916" lon="10.4941721"><ele>130.4</ele><time>2026-05-03T08:59:52.232Z</time></trkpt><trkpt lat="45.4179979" lon="10.4942418"><ele>130.0</ele><time>2026-05-03T08:59:53.232Z</time></trkpt><trkpt lat="45.4179158" lon="10.4943155"><ele>129.66666666666669</ele><time>2026-05-03T08:59:54.232Z</time></trkpt><trkpt lat="45.417844" lon="10.4943998"><ele>129.33333333333334</ele><time>2026-05-03T08:59:55.232Z</time></trkpt><trkpt lat="45.4177927" lon="10.4944927"><ele>129.0</ele><time>2026-05-03T08:59:56.232Z</time></trkpt><trkpt lat="45.4177525" lon="10.4945923"><ele>128.66666666666666</ele><time>2026-05-03T08:59:57.232Z</time></trkpt><trkpt lat="45.4177206" lon="10.4946998"><ele>128.33333333333331</ele><time>2026-05-03T08:59:58.232Z</time></trkpt><trkpt lat="45.4176856" lon="10.4948006"><ele>128.0</ele><time>2026-05-03T08:59:59.232Z</time></trkpt><trkpt lat="45.4176464" lon="10.4948957"><ele>127.99999999999999</ele><time>2026-05-03T09:00:00.232Z</time></trkpt><trkpt lat="45.4175966" lon="10.4949671"><ele>128.0</ele><time>2026-05-03T09:00:01.232Z</time></trkpt><trkpt lat="45.4175341" lon="10.4950091"><ele>128.0</ele><time>2026-05-03T09:00:02.232Z</time></trkpt><trkpt lat="45.4174665" lon="10.4950174"><ele>128.0</ele><time>2026-05-03T09:00:03.232Z</time></trkpt><trkpt lat="45.4173936" lon="10.4950013"><ele>127.99999999999999</ele><time>2026-05-03T09:00:04.232Z</time></trkpt><trkpt lat="45.4173128" lon="10.4949627"><ele>128.0</ele><time>2026-05-03T09:00:05.232Z</time></trkpt><trkpt lat="45.4172336" lon="10.4949195"><ele>128.0</ele><time>2026-05-03T09:00:06.232Z</time></trkpt><trkpt lat="45.4171598" lon="10.4948838"><ele>127.99999999999999</ele><time>2026-05-03T09:00:07.232Z</time></trkpt><trkpt lat="45.4170879" lon="10.4948543"><ele>128.0</ele><time>2026-05-03T09:00:08.232Z</time></trkpt><trkpt lat="45.4170181" lon="10.4948328"><ele>128.0</ele><time>2026-05-03T09:00:09.232Z</time></trkpt><trkpt lat="45.4169511" lon="10.4948101"><ele>127.99999999999999</ele><time>2026-05-03T09:00:10.232Z</time></trkpt><trkpt lat="45.4168825" lon="10.4947932"><ele>128.0</ele><time>2026-05-03T09:00:11.232Z</time></trkpt><trkpt lat="45.4168142" lon="10.4947738"><ele>128.0</ele><time>2026-05-03T09:00:12.233Z</time></trkpt><trkpt lat="45.4167368" lon="10.4947544"><ele>127.49999999999999</ele><time>2026-05-03T09:00:13.232Z</time></trkpt><trkpt lat="45.4166517" lon="10.4947294"><ele>127.0</ele><time>2026-05-03T09:00:14.232Z</time></trkpt><trkpt lat="45.4165754" lon="10.4947047"><ele>126.5</ele><time>2026-05-03T09:00:15.232Z</time></trkpt><trkpt lat="45.4165036" lon="10.4946957"><ele>126.0</ele><time>2026-05-03T09:00:16.232Z</time></trkpt><trkpt lat="45.4163942" lon="10.4947139"><ele>125.49999999999999</ele><time>2026-05-03T09:00:18.232Z</time></trkpt><trkpt lat="45.4163349" lon="10.4947557"><ele>125.0</ele><time>2026-05-03T09:00:21.232Z</time></trkpt><trkpt lat="45.416351" lon="10.4948436"><ele>125.0</ele><time>2026-05-03T09:00:33.232Z</time></trkpt><trkpt lat="45.4164429" lon="10.4949919"><ele>125.0</ele><time>2026-05-03T09:00:35.232Z</time></trkpt><trkpt lat="45.4165117" lon="10.4951027"><ele>125.0</ele><time>2026-05-03T09:00:36.232Z</time></trkpt><trkpt lat="45.416579" lon="10.4952233"><ele>125.0</ele><time>2026-05-03T09:00:37.233Z</time></trkpt><trkpt lat="45.4166362" lon="10.4953406"><ele>125.2</ele><time>2026-05-03T09:00:38.232Z</time></trkpt><trkpt lat="45.4166836" lon="10.4954474"><ele>125.4</ele><time>2026-05-03T09:00:39.232Z</time></trkpt><trkpt lat="45.4167261" lon="10.4955456"><ele>125.6</ele><time>2026-05-03T09:00:40.232Z</time></trkpt><trkpt lat="45.4167525" lon="10.4956349"><ele>125.8</ele><time>2026-05-03T09:00:41.232Z</time></trkpt><trkpt lat="45.4167421" lon="10.495782"><ele>126.0</ele><time>2026-05-03T09:00:43.233Z</time></trkpt><trkpt lat="45.4166475" lon="10.4959082"><ele>126.0</ele><time>2026-05-03T09:00:45.232Z</time></trkpt><trkpt lat="45.4165799" lon="10.495955"><ele>126.0</ele><time>2026-05-03T09:00:46.232Z</time></trkpt><trkpt lat="45.4165173" lon="10.4959884"><ele>126.0</ele><time>2026-05-03T09:00:47.233Z</time></trkpt><trkpt lat="45.4164079" lon="10.4959884"><ele>126.0</ele><time>2026-05-03T09:00:49.233Z</time></trkpt><trkpt lat="45.4163319" lon="10.4958992"><ele>126.0</ele><time>2026-05-03T09:00:51.232Z</time></trkpt><trkpt lat="45.4162879" lon="10.4958117"><ele>126.0</ele><time>2026-05-03T09:00:52.232Z</time></trkpt><trkpt lat="45.4162281" lon="10.4956985"><ele>126.0</ele><time>2026-05-03T09:00:53.233Z</time></trkpt><trkpt lat="45.4161703" lon="10.4956028"><ele>126.0</ele><time>2026-05-03T09:00:54.232Z</time></trkpt><trkpt lat="45.4161144" lon="10.4955092"><ele>126.0</ele><time>2026-05-03T09:00:55.232Z</time></trkpt><trkpt lat="45.4160593" lon="10.4954206"><ele>126.0</ele><time>2026-05-03T09:00:56.232Z</time></trkpt><trkpt lat="45.4159995" lon="10.4953409"><ele>126.0</ele><time>2026-05-03T09:00:57.232Z</time></trkpt><trkpt lat="45.4159472" lon="10.4952737"><ele>126.0</ele><time>2026-05-03T09:00:58.232Z</time></trkpt><trkpt lat="45.4158468" lon="10.4951978"><ele>126.0</ele><time>2026-05-03T09:01:00.232Z</time></trkpt><trkpt lat="45.4157832" lon="10.4952566"><ele>126.0</ele><time>2026-05-03T09:01:02.232Z</time></trkpt><trkpt lat="45.4157661" lon="10.4954279"><ele>126.0</ele><time>2026-05-03T09:01:04.233Z</time></trkpt><trkpt lat="45.4157782" lon="10.4955423"><ele>126.0</ele><time>2026-05-03T09:01:05.232Z</time></trkpt><trkpt lat="45.415799" lon="10.4956803"><ele>126.0</ele><time>2026-05-03T09:01:06.232Z</time></trkpt><trkpt lat="45.4158119" lon="10.4958337"><ele>126.0</ele><time>2026-05-03T09:01:07.232Z</time></trkpt><trkpt lat="45.4158284" lon="10.4959638"><ele>126.0</ele><time>2026-05-03T09:01:08.232Z</time></trkpt><trkpt lat="45.4158469" lon="10.4960875"><ele>126.0</ele><time>2026-05-03T09:01:09.233Z</time></trkpt><trkpt lat="45.4158675" lon="10.4961962"><ele>126.0</ele><time>2026-05-03T09:01:10.233Z</time></trkpt><trkpt lat="45.4158885" lon="10.4962923"><ele>126.0</ele><time>2026-05-03T09:01:11.232Z</time></trkpt><trkpt lat="45.4158998" lon="10.4963898"><ele>126.0</ele><time>2026-05-03T09:01:12.232Z</time></trkpt><trkpt lat="45.4159187" lon="10.4965411"><ele>126.0</ele><time>2026-05-03T09:01:14.232Z</time></trkpt><trkpt lat="45.4158857" lon="10.4967299"><ele>126.0</ele><time>2026-05-03T09:01:16.232Z</time></trkpt><trkpt lat="45.4158571" lon="10.4968694"><ele>126.0</ele><time>2026-05-03T09:01:17.232Z</time></trkpt><trkpt lat="45.4158119" lon="10.4970327"><ele>126.0</ele><time>2026-05-03T09:01:18.232Z</time></trkpt><trkpt lat="45.415777" lon="10.4971967"><ele>127.0</ele><time>2026-05-03T09:01:19.233Z</time></trkpt><trkpt lat="45.4157283" lon="10.497356"><ele>128.0</ele><time>2026-05-03T09:01:20.232Z</time></trkpt><trkpt lat="45.4157045" lon="10.4974695"><ele>129.0</ele><time>2026-05-03T09:01:21.232Z</time></trkpt><trkpt lat="45.4156744" lon="10.4975627"><ele>130.0</ele><time>2026-05-03T09:01:23.233Z</time></trkpt><trkpt lat="45.4156275" lon="10.4976844"><ele>131.0</ele><time>2026-05-03T09:01:35.232Z</time></trkpt><trkpt lat="45.4155937" lon="10.4978078"><ele>131.2</ele><time>2026-05-03T09:01:36.232Z</time></trkpt><trkpt lat="45.4155581" lon="10.4979836"><ele>131.39999999999998</ele><time>2026-05-03T09:01:37.232Z</time></trkpt><trkpt lat="45.4155231" lon="10.4981529"><ele>131.6</ele><time>2026-05-03T09:01:38.233Z</time></trkpt><trkpt lat="45.4154731" lon="10.4982891"><ele>131.79999999999998</ele><time>2026-05-03T09:01:39.232Z</time></trkpt><trkpt lat="45.4154067" lon="10.4983701"><ele>132.0</ele><time>2026-05-03T09:01:40.232Z</time></trkpt><trkpt lat="45.4153137" lon="10.498387"><ele>132.2</ele><time>2026-05-03T09:01:41.232Z</time></trkpt><trkpt lat="45.4152219" lon="10.498339"><ele>132.39999999999998</ele><time>2026-05-03T09:01:42.232Z</time></trkpt><trkpt lat="45.4151581" lon="10.4982304"><ele>132.60000000000002</ele><time>2026-05-03T09:01:43.233Z</time></trkpt><trkpt lat="45.4151165" lon="10.4980931"><ele>132.8</ele><time>2026-05-03T09:01:44.232Z</time></trkpt><trkpt lat="45.4151403" lon="10.4979641"><ele>133.0</ele><time>2026-05-03T09:01:45.232Z</time></trkpt><trkpt lat="45.4151506" lon="10.497872"><ele>133.0</ele><time>2026-05-03T09:01:46.232Z</time></trkpt><trkpt lat="45.4151649" lon="10.4977355"><ele>133.0</ele><time>2026-05-03T09:01:48.233Z</time></trkpt><trkpt lat="45.4152188" lon="10.4975489"><ele>133.0</ele><time>2026-05-03T09:01:50.232Z</time></trkpt><trkpt lat="45.4152388" lon="10.4974216"><ele>133.0</ele><time>2026-05-03T09:01:51.233Z</time></trkpt><trkpt lat="45.4152564" lon="10.4972949"><ele>133.0</ele><time>2026-05-03T09:01:52.232Z</time></trkpt><trkpt lat="45.4152734" lon="10.4971627"><ele>132.16666666666669</ele><time>2026-05-03T09:01:53.232Z</time></trkpt><trkpt lat="45.415285" lon="10.4970323"><ele>131.33333333333334</ele><time>2026-05-03T09:01:54.232Z</time></trkpt><trkpt lat="45.4152969" lon="10.4969156"><ele>130.5</ele><time>2026-05-03T09:01:55.232Z</time></trkpt><trkpt lat="45.4152957" lon="10.4968194"><ele>129.66666666666666</ele><time>2026-05-03T09:01:56.233Z</time></trkpt><trkpt lat="45.4152764" lon="10.4967306"><ele>128.83333333333331</ele><time>2026-05-03T09:01:58.232Z</time></trkpt><trkpt lat="45.4152037" lon="10.4967058"><ele>128.0</ele><time>2026-05-03T09:02:02.232Z</time></trkpt><trkpt lat="45.41512" lon="10.4967148"><ele>127.99999999999999</ele><time>2026-05-03T09:02:05.233Z</time></trkpt><trkpt lat="45.4150309" lon="10.4967227"><ele>128.0</ele><time>2026-05-03T09:02:07.232Z</time></trkpt><trkpt lat="45.4149655" lon="10.4967572"><ele>128.0</ele><time>2026-05-03T09:02:09.232Z</time></trkpt><trkpt lat="45.4149415" lon="10.4968515"><ele>128.0</ele><time>2026-05-03T09:02:11.232Z</time></trkpt><trkpt lat="45.4149376" lon="10.4969437"><ele>127.99999999999999</ele><time>2026-05-03T09:02:12.232Z</time></trkpt><trkpt lat="45.4149418" lon="10.4970874"><ele>128.0</ele><time>2026-05-03T09:02:13.232Z</time></trkpt><trkpt lat="45.4149324" lon="10.4972353"><ele>129.0</ele><time>2026-05-03T09:02:14.232Z</time></trkpt><trkpt lat="45.4149202" lon="10.4974072"><ele>130.0</ele><time>2026-05-03T09:02:15.232Z</time></trkpt><trkpt lat="45.414903" lon="10.4975726"><ele>131.0</ele><time>2026-05-03T09:02:16.232Z</time></trkpt><trkpt lat="45.4148935" lon="10.4977277"><ele>132.0</ele><time>2026-05-03T09:02:17.232Z</time></trkpt><trkpt lat="45.4148867" lon="10.497854"><ele>133.0</ele><time>2026-05-03T09:02:18.232Z</time></trkpt><trkpt lat="45.4148819" lon="10.4979657"><ele>133.66666666666669</ele><time>2026-05-03T09:02:19.232Z</time></trkpt><trkpt lat="45.4148857" lon="10.4980637"><ele>134.33333333333334</ele><time>2026-05-03T09:02:20.232Z</time></trkpt><trkpt lat="45.4148876" lon="10.4982305"><ele>135.0</ele><time>2026-05-03T09:02:22.232Z</time></trkpt><trkpt lat="45.4148642" lon="10.4983414"><ele>135.66666666666666</ele><time>2026-05-03T09:02:24.233Z</time></trkpt><trkpt lat="45.4148067" lon="10.4983907"><ele>136.33333333333331</ele><time>2026-05-03T09:02:26.233Z</time></trkpt><trkpt lat="45.4147051" lon="10.4983763"><ele>137.0</ele><time>2026-05-03T09:02:28.232Z</time></trkpt><trkpt lat="45.4145868" lon="10.4983765"><ele>137.33333333333331</ele><time>2026-05-03T09:02:30.232Z</time></trkpt><trkpt lat="45.4144937" lon="10.4983831"><ele>137.66666666666666</ele><time>2026-05-03T09:02:32.232Z</time></trkpt><trkpt lat="45.4144043" lon="10.4984076"><ele>138.0</ele><time>2026-05-03T09:02:34.232Z</time></trkpt><trkpt lat="45.4143361" lon="10.4984201"><ele>138.33333333333334</ele><time>2026-05-03T09:02:35.232Z</time></trkpt><trkpt lat="45.4142566" lon="10.4984177"><ele>138.66666666666669</ele><time>2026-05-03T09:02:36.232Z</time></trkpt><trkpt lat="45.4141697" lon="10.4983996"><ele>139.0</ele><time>2026-05-03T09:02:37.232Z</time></trkpt><trkpt lat="45.4140702" lon="10.4983689"><ele>139.0</ele><time>2026-05-03T09:02:38.233Z</time></trkpt><trkpt lat="45.4139765" lon="10.4983425"><ele>139.0</ele><time>2026-05-03T09:02:39.233Z</time></trkpt><trkpt lat="45.413887" lon="10.4983206"><ele>139.0</ele><time>2026-05-03T09:02:40.232Z</time></trkpt><trkpt lat="45.4137954" lon="10.4983039"><ele>139.0</ele><time>2026-05-03T09:02:41.232Z</time></trkpt><trkpt lat="45.4137155" lon="10.4982951"><ele>139.0</ele><time>2026-05-03T09:02:42.232Z</time></trkpt><trkpt lat="45.4136343" lon="10.4982826"><ele>139.0</ele><time>2026-05-03T09:02:43.232Z</time></trkpt><trkpt lat="45.4135525" lon="10.4982737"><ele>138.83333333333334</ele><time>2026-05-03T09:02:44.233Z</time></trkpt><trkpt lat="45.4134736" lon="10.4982731"><ele>138.66666666666669</ele><time>2026-05-03T09:02:45.232Z</time></trkpt><trkpt lat="45.4133871" lon="10.4982858"><ele>138.5</ele><time>2026-05-03T09:02:46.232Z</time></trkpt><trkpt lat="45.4132967" lon="10.4983088"><ele>138.33333333333334</ele><time>2026-05-03T09:02:47.232Z</time></trkpt><trkpt lat="45.413205" lon="10.4983304"><ele>138.16666666666666</ele><time>2026-05-03T09:02:48.233Z</time></trkpt><trkpt lat="45.4131114" lon="10.4983536"><ele>138.0</ele><time>2026-05-03T09:02:49.232Z</time></trkpt><trkpt lat="45.4130174" lon="10.4983795"><ele>137.83333333333334</ele><time>2026-05-03T09:02:50.233Z</time></trkpt><trkpt lat="45.4129363" lon="10.4984114"><ele>137.66666666666666</ele><time>2026-05-03T09:02:51.232Z</time></trkpt><trkpt lat="45.4128549" lon="10.4984453"><ele>137.5</ele><time>2026-05-03T09:02:52.232Z</time></trkpt><trkpt lat="45.412783" lon="10.4984733"><ele>137.33333333333331</ele><time>2026-05-03T09:02:53.232Z</time></trkpt><trkpt lat="45.4126947" lon="10.4985123"><ele>137.16666666666666</ele><time>2026-05-03T09:02:55.232Z</time></trkpt><trkpt lat="45.412593" lon="10.4985716"><ele>137.0</ele><time>2026-05-03T09:03:10.233Z</time></trkpt><trkpt lat="45.4124857" lon="10.4986495"><ele>137.0</ele><time>2026-05-03T09:03:12.232Z</time></trkpt><trkpt lat="45.4123841" lon="10.498737"><ele>137.0</ele><time>2026-05-03T09:03:14.232Z</time></trkpt><trkpt lat="45.4122826" lon="10.4988413"><ele>137.0</ele><time>2026-05-03T09:03:16.232Z</time></trkpt><trkpt lat="45.4122249" lon="10.4988923"><ele>137.0</ele><time>2026-05-03T09:03:17.232Z</time></trkpt><trkpt lat="45.412166" lon="10.4989363"><ele>137.0</ele><time>2026-05-03T09:03:18.233Z</time></trkpt><trkpt lat="45.4120985" lon="10.4989888"><ele>137.66666666666666</ele><time>2026-05-03T09:03:19.232Z</time></trkpt><trkpt lat="45.4120362" lon="10.4990411"><ele>138.33333333333331</ele><time>2026-05-03T09:03:20.232Z</time></trkpt><trkpt lat="45.4119716" lon="10.4990759"><ele>139.0</ele><time>2026-05-03T09:03:21.232Z</time></trkpt><trkpt lat="45.4119087" lon="10.4991065"><ele>139.66666666666666</ele><time>2026-05-03T09:03:22.232Z</time></trkpt><trkpt lat="45.4117896" lon="10.4991608"><ele>140.33333333333334</ele><time>2026-05-03T09:03:24.232Z</time></trkpt><trkpt lat="45.4116971" lon="10.4991994"><ele>141.0</ele><time>2026-05-03T09:03:26.232Z</time></trkpt><trkpt lat="45.4116253" lon="10.4992366"><ele>141.0</ele><time>2026-05-03T09:03:28.232Z</time></trkpt><trkpt lat="45.4115652" lon="10.4992931"><ele>141.0</ele><time>2026-05-03T09:03:32.232Z</time></trkpt><trkpt lat="45.4114968" lon="10.499355"><ele>141.0</ele><time>2026-05-03T09:03:35.232Z</time></trkpt><trkpt lat="45.4114225" lon="10.4993823"><ele>141.0</ele><time>2026-05-03T09:03:37.232Z</time></trkpt><trkpt lat="45.4113427" lon="10.4994105"><ele>141.0</ele><time>2026-05-03T09:03:39.232Z</time></trkpt><trkpt lat="45.4112671" lon="10.4994471"><ele>141.0</ele><time>2026-05-03T09:03:41.232Z</time></trkpt><trkpt lat="45.4111935" lon="10.4994538"><ele>141.4</ele><time>2026-05-03T09:03:43.232Z</time></trkpt><trkpt lat="45.4111062" lon="10.4994529"><ele>141.8</ele><time>2026-05-03T09:03:45.232Z</time></trkpt><trkpt lat="45.4110282" lon="10.499525"><ele>142.20000000000002</ele><time>2026-05-03T09:03:47.233Z</time></trkpt><trkpt lat="45.4109479" lon="10.4996324"><ele>142.6</ele><time>2026-05-03T09:03:49.232Z</time></trkpt><trkpt lat="45.4108593" lon="10.4997149"><ele>143.0</ele><time>2026-05-03T09:03:51.232Z</time></trkpt><trkpt lat="45.4107642" lon="10.4997025"><ele>143.0</ele><time>2026-05-03T09:03:54.232Z</time></trkpt><trkpt lat="45.4106498" lon="10.4996297"><ele>143.0</ele><time>2026-05-03T09:03:56.232Z</time></trkpt><trkpt lat="45.4105847" lon="10.4995726"><ele>143.0</ele><time>2026-05-03T09:03:57.232Z</time></trkpt><trkpt lat="45.4105193" lon="10.4995185"><ele>143.0</ele><time>2026-05-03T09:03:58.228Z</time></trkpt><trkpt lat="45.410454" lon="10.4994701"><ele>143.0</ele><time>2026-05-03T09:03:59.232Z</time></trkpt><trkpt lat="45.410394" lon="10.4994203"><ele>143.0</ele><time>2026-05-03T09:04:00.232Z</time></trkpt><trkpt lat="45.4103327" lon="10.4993663"><ele>142.83333333333331</ele><time>2026-05-03T09:04:01.233Z</time></trkpt><trkpt lat="45.4102679" lon="10.4992905"><ele>142.66666666666666</ele><time>2026-05-03T09:04:02.232Z</time></trkpt><trkpt lat="45.4102001" lon="10.4992142"><ele>142.5</ele><time>2026-05-03T09:04:03.232Z</time></trkpt><trkpt lat="45.4101353" lon="10.4991298"><ele>142.33333333333334</ele><time>2026-05-03T09:04:04.232Z</time></trkpt><trkpt lat="45.4100729" lon="10.4990423"><ele>142.16666666666669</ele><time>2026-05-03T09:04:05.232Z</time></trkpt><trkpt lat="45.410015" lon="10.4989543"><ele>142.0</ele><time>2026-05-03T09:04:06.232Z</time></trkpt><trkpt lat="45.409968" lon="10.4988599"><ele>142.0</ele><time>2026-05-03T09:04:07.233Z</time></trkpt><trkpt lat="45.40992" lon="10.4987576"><ele>142.0</ele><time>2026-05-03T09:04:08.232Z</time></trkpt><trkpt lat="45.409871" lon="10.4986458"><ele>142.0</ele><time>2026-05-03T09:04:09.232Z</time></trkpt><trkpt lat="45.4098207" lon="10.4985377"><ele>142.0</ele><time>2026-05-03T09:04:10.233Z</time></trkpt><trkpt lat="45.4097735" lon="10.4984342"><ele>142.0</ele><time>2026-05-03T09:04:11.232Z</time></trkpt><trkpt lat="45.4097222" lon="10.4983509"><ele>142.0</ele><time>2026-05-03T09:04:12.233Z</time></trkpt><trkpt lat="45.4096203" lon="10.4982779"><ele>141.33333333333334</ele><time>2026-05-03T09:04:14.232Z</time></trkpt><trkpt lat="45.4095034" lon="10.4983377"><ele>140.66666666666669</ele><time>2026-05-03T09:04:16.232Z</time></trkpt><trkpt lat="45.4094473" lon="10.4983937"><ele>140.0</ele><time>2026-05-03T09:04:17.232Z</time></trkpt><trkpt lat="45.4093936" lon="10.498487"><ele>139.33333333333334</ele><time>2026-05-03T09:04:18.232Z</time></trkpt><trkpt lat="45.4093379" lon="10.4985659"><ele>138.66666666666666</ele><time>2026-05-03T09:04:19.232Z</time></trkpt><trkpt lat="45.4092922" lon="10.4986348"><ele>138.0</ele><time>2026-05-03T09:04:20.232Z</time></trkpt><trkpt lat="45.4092073" lon="10.4987103"><ele>138.0</ele><time>2026-05-03T09:04:22.232Z</time></trkpt><trkpt lat="45.4091314" lon="10.4987109"><ele>138.0</ele><time>2026-05-03T09:05:19.232Z</time></trkpt><trkpt lat="45.4090428" lon="10.4986289"><ele>138.0</ele><time>2026-05-03T09:05:21.232Z</time></trkpt><trkpt lat="45.4089921" lon="10.4985442"><ele>138.0</ele><time>2026-05-03T09:05:22.232Z</time></trkpt><trkpt lat="45.4089434" lon="10.4984578"><ele>138.0</ele><time>2026-05-03T09:05:23.232Z</time></trkpt><trkpt lat="45.4088986" lon="10.4983936"><ele>138.0</ele><time>2026-05-03T09:05:24.232Z</time></trkpt><trkpt lat="45.408817" lon="10.498344"><ele>138.16666666666666</ele><time>2026-05-03T09:05:26.232Z</time></trkpt><trkpt lat="45.4087491" lon="10.4983764"><ele>138.33333333333334</ele><time>2026-05-03T09:05:29.232Z</time></trkpt><trkpt lat="45.4086997" lon="10.4984579"><ele>138.5</ele><time>2026-05-03T09:05:31.232Z</time></trkpt><trkpt lat="45.4086601" lon="10.4985313"><ele>138.66666666666669</ele><time>2026-05-03T09:05:32.232Z</time></trkpt><trkpt lat="45.4085926" lon="10.4986345"><ele>138.83333333333334</ele><time>2026-05-03T09:05:33.233Z</time></trkpt><trkpt lat="45.4085208" lon="10.4987414"><ele>139.0</ele><time>2026-05-03T09:05:34.232Z</time></trkpt><trkpt lat="45.4084418" lon="10.4988624"><ele>139.25</ele><time>2026-05-03T09:05:35.233Z</time></trkpt><trkpt lat="45.4083683" lon="10.4989941"><ele>139.5</ele><time>2026-05-03T09:05:36.232Z</time></trkpt><trkpt lat="45.4082865" lon="10.4991335"><ele>139.75</ele><time>2026-05-03T09:05:37.233Z</time></trkpt><trkpt lat="45.4081997" lon="10.4992719"><ele>140.0</ele><time>2026-05-03T09:05:38.232Z</time></trkpt><trkpt lat="45.4081172" lon="10.4994053"><ele>140.0</ele><time>2026-05-03T09:05:39.232Z</time></trkpt><trkpt lat="45.40804" lon="10.4995329"><ele>140.0</ele><time>2026-05-03T09:05:40.232Z</time></trkpt><trkpt lat="45.4079606" lon="10.499643"><ele>140.0</ele><time>2026-05-03T09:05:41.232Z</time></trkpt><trkpt lat="45.4078828" lon="10.4997629"><ele>140.0</ele><time>2026-05-03T09:05:42.232Z</time></trkpt><trkpt lat="45.4078079" lon="10.499871"><ele>140.8</ele><time>2026-05-03T09:05:43.232Z</time></trkpt><trkpt lat="45.407741" lon="10.4999798"><ele>141.6</ele><time>2026-05-03T09:05:44.232Z</time></trkpt><trkpt lat="45.407676" lon="10.500086"><ele>142.4</ele><time>2026-05-03T09:05:45.232Z</time></trkpt><trkpt lat="45.4076121" lon="10.5001678"><ele>143.2</ele><time>2026-05-03T09:05:46.232Z</time></trkpt><trkpt lat="45.4075459" lon="10.500242"><ele>144.0</ele><time>2026-05-03T09:05:47.232Z</time></trkpt><trkpt lat="45.4074644" lon="10.5002929"><ele>144.0</ele><time>2026-05-03T09:05:48.232Z</time></trkpt><trkpt lat="45.4073799" lon="10.5003437"><ele>144.0</ele><time>2026-05-03T09:05:49.232Z</time></trkpt><trkpt lat="45.4073028" lon="10.5003861"><ele>144.0</ele><time>2026-05-03T09:05:50.232Z</time></trkpt><trkpt lat="45.407209" lon="10.5004273"><ele>144.0</ele><time>2026-05-03T09:05:51.232Z</time></trkpt><trkpt lat="45.4071213" lon="10.5004711"><ele>144.0</ele><time>2026-05-03T09:05:52.232Z</time></trkpt><trkpt lat="45.4070464" lon="10.5005163"><ele>144.0</ele><time>2026-05-03T09:05:53.232Z</time></trkpt><trkpt lat="45.4069868" lon="10.5005494"><ele>143.83333333333334</ele><time>2026-05-03T09:05:54.232Z</time></trkpt><trkpt lat="45.4069215" lon="10.5005758"><ele>143.66666666666666</ele><time>2026-05-03T09:06:01.232Z</time></trkpt><trkpt lat="45.4068255" lon="10.5006678"><ele>143.5</ele><time>2026-05-03T09:06:03.232Z</time></trkpt><trkpt lat="45.4067753" lon="10.5007473"><ele>143.33333333333331</ele><time>2026-05-03T09:06:04.232Z</time></trkpt><trkpt lat="45.406737" lon="10.5008714"><ele>143.16666666666666</ele><time>2026-05-03T09:06:05.232Z</time></trkpt><trkpt lat="45.4066971" lon="10.5009908"><ele>143.0</ele><time>2026-05-03T09:06:06.232Z</time></trkpt><trkpt lat="45.4066652" lon="10.5011245"><ele>143.0</ele><time>2026-05-03T09:06:07.232Z</time></trkpt><trkpt lat="45.4066256" lon="10.501245"><ele>143.0</ele><time>2026-05-03T09:06:08.233Z</time></trkpt><trkpt lat="45.406591" lon="10.5013628"><ele>143.0</ele><time>2026-05-03T09:06:09.232Z</time></trkpt><trkpt lat="45.4065584" lon="10.5014686"><ele>143.0</ele><time>2026-05-03T09:06:10.232Z</time></trkpt><trkpt lat="45.4065323" lon="10.5015665"><ele>143.0</ele><time>2026-05-03T09:06:11.232Z</time></trkpt><trkpt lat="45.4065141" lon="10.501656"><ele>143.0</ele><time>2026-05-03T09:06:12.232Z</time></trkpt><trkpt lat="45.40657" lon="10.5018146"><ele>142.8</ele><time>2026-05-03T09:06:14.232Z</time></trkpt><trkpt lat="45.4066162" lon="10.5018777"><ele>142.60000000000002</ele><time>2026-05-03T09:06:15.233Z</time></trkpt><trkpt lat="45.406686" lon="10.5019527"><ele>142.39999999999998</ele><time>2026-05-03T09:06:16.232Z</time></trkpt><trkpt lat="45.4067769" lon="10.5020523"><ele>142.2</ele><time>2026-05-03T09:06:17.232Z</time></trkpt><trkpt lat="45.4068594" lon="10.5021373"><ele>142.0</ele><time>2026-05-03T09:06:18.232Z</time></trkpt><trkpt lat="45.4069339" lon="10.502227"><ele>142.33333333333334</ele><time>2026-05-03T09:06:19.232Z</time></trkpt><trkpt lat="45.4069985" lon="10.5022935"><ele>142.66666666666669</ele><time>2026-05-03T09:06:20.232Z</time></trkpt><trkpt lat="45.4070528" lon="10.5023448"><ele>143.0</ele><time>2026-05-03T09:06:21.232Z</time></trkpt><trkpt lat="45.4071488" lon="10.5023126"><ele>143.33333333333334</ele><time>2026-05-03T09:06:23.233Z</time></trkpt><trkpt lat="45.4072485" lon="10.5022715"><ele>143.66666666666666</ele><time>2026-05-03T09:06:25.232Z</time></trkpt><trkpt lat="45.4073328" lon="10.5022383"><ele>144.0</ele><time>2026-05-03T09:06:27.232Z</time></trkpt><trkpt lat="45.4074423" lon="10.5022209"><ele>144.0</ele><time>2026-05-03T09:06:29.233Z</time></trkpt><trkpt lat="45.4075173" lon="10.5022384"><ele>144.0</ele><time>2026-05-03T09:06:30.232Z</time></trkpt><trkpt lat="45.4075909" lon="10.5022506"><ele>144.0</ele><time>2026-05-03T09:06:31.232Z</time></trkpt><trkpt lat="45.4076656" lon="10.5023031"><ele>144.0</ele><time>2026-05-03T09:06:32.233Z</time></trkpt><trkpt lat="45.4077519" lon="10.5023382"><ele>144.0</ele><time>2026-05-03T09:06:33.232Z</time></trkpt><trkpt lat="45.4078289" lon="10.5023649"><ele>144.0</ele><time>2026-05-03T09:06:34.232Z</time></trkpt><trkpt lat="45.4079109" lon="10.5023884"><ele>144.00000000000003</ele><time>2026-05-03T09:06:35.232Z</time></trkpt><trkpt lat="45.4079857" lon="10.5024259"><ele>144.0</ele><time>2026-05-03T09:06:36.232Z</time></trkpt><trkpt lat="45.408058" lon="10.5024655"><ele>144.0</ele><time>2026-05-03T09:06:37.232Z</time></trkpt><trkpt lat="45.4081223" lon="10.502492"><ele>144.0</ele><time>2026-05-03T09:06:38.233Z</time></trkpt><trkpt lat="45.408189" lon="10.5025258"><ele>144.0</ele><time>2026-05-03T09:06:40.233Z</time></trkpt><trkpt lat="45.4082508" lon="10.5025751"><ele>144.00000000000003</ele><time>2026-05-03T09:06:42.232Z</time></trkpt><trkpt lat="45.4083156" lon="10.5026386"><ele>144.0</ele><time>2026-05-03T09:06:44.232Z</time></trkpt><trkpt lat="45.4083825" lon="10.5026885"><ele>143.4</ele><time>2026-05-03T09:06:46.232Z</time></trkpt><trkpt lat="45.4084625" lon="10.5027458"><ele>142.8</ele><time>2026-05-03T09:06:48.232Z</time></trkpt><trkpt lat="45.4085554" lon="10.5027868"><ele>142.2</ele><time>2026-05-03T09:06:50.233Z</time></trkpt><trkpt lat="45.4086621" lon="10.5027876"><ele>141.6</ele><time>2026-05-03T09:06:52.232Z</time></trkpt><trkpt lat="45.408735" lon="10.5027875"><ele>141.0</ele><time>2026-05-03T09:06:53.232Z</time></trkpt><trkpt lat="45.4088538" lon="10.5028339"><ele>140.42857142857144</ele><time>2026-05-03T09:06:55.233Z</time></trkpt><trkpt lat="45.4089111" lon="10.5028711"><ele>139.85714285714286</ele><time>2026-05-03T09:06:56.232Z</time></trkpt><trkpt lat="45.4089745" lon="10.5029229"><ele>139.28571428571428</ele><time>2026-05-03T09:06:57.232Z</time></trkpt><trkpt lat="45.409036" lon="10.5029825"><ele>138.71428571428572</ele><time>2026-05-03T09:06:58.232Z</time></trkpt><trkpt lat="45.4090874" lon="10.5030662"><ele>138.14285714285714</ele><time>2026-05-03T09:06:59.232Z</time></trkpt><trkpt lat="45.409146" lon="10.5031471"><ele>137.57142857142858</ele><time>2026-05-03T09:07:00.233Z</time></trkpt><trkpt lat="45.4092011" lon="10.5032182"><ele>137.0</ele><time>2026-05-03T09:07:01.232Z</time></trkpt><trkpt lat="45.4092534" lon="10.5032895"><ele>136.6</ele><time>2026-05-03T09:07:02.232Z</time></trkpt><trkpt lat="45.409305" lon="10.5033636"><ele>136.2</ele><time>2026-05-03T09:07:03.232Z</time></trkpt><trkpt lat="45.4093467" lon="10.503439"><ele>135.8</ele><time>2026-05-03T09:07:04.232Z</time></trkpt><trkpt lat="45.4094066" lon="10.5035741"><ele>135.4</ele><time>2026-05-03T09:07:06.232Z</time></trkpt><trkpt lat="45.409447" lon="10.5037413"><ele>135.0</ele><time>2026-05-03T09:07:08.232Z</time></trkpt><trkpt lat="45.4094709" lon="10.503916"><ele>135.0</ele><time>2026-05-03T09:07:10.233Z</time></trkpt><trkpt lat="45.4094831" lon="10.5040112"><ele>135.0</ele><time>2026-05-03T09:07:11.232Z</time></trkpt><trkpt lat="45.4095088" lon="10.504106"><ele>135.0</ele><time>2026-05-03T09:07:12.232Z</time></trkpt><trkpt lat="45.4095527" lon="10.5042841"><ele>135.0</ele><time>2026-05-03T09:07:14.232Z</time></trkpt><trkpt lat="45.4095735" lon="10.5043712"><ele>135.0</ele><time>2026-05-03T09:07:15.233Z</time></trkpt><trkpt lat="45.409597" lon="10.5044608"><ele>135.0</ele><time>2026-05-03T09:07:16.232Z</time></trkpt><trkpt lat="45.4096355" lon="10.504626"><ele>135.0</ele><time>2026-05-03T09:07:18.233Z</time></trkpt><trkpt lat="45.4096753" lon="10.5047004"><ele>135.0</ele><time>2026-05-03T09:07:19.232Z</time></trkpt><trkpt lat="45.4097297" lon="10.5047661"><ele>135.0</ele><time>2026-05-03T09:07:20.232Z</time></trkpt><trkpt lat="45.4098028" lon="10.5048418"><ele>135.0</ele><time>2026-05-03T09:07:21.232Z</time></trkpt><trkpt lat="45.4098784" lon="10.5049185"><ele>135.0</ele><time>2026-05-03T09:07:22.232Z</time></trkpt><trkpt lat="45.4099547" lon="10.5049949"><ele>135.0</ele><time>2026-05-03T09:07:23.233Z</time></trkpt><trkpt lat="45.4100231" lon="10.5050721"><ele>135.0</ele><time>2026-05-03T09:07:24.232Z</time></trkpt><trkpt lat="45.4100874" lon="10.5051442"><ele>135.0</ele><time>2026-05-03T09:07:25.232Z</time></trkpt><trkpt lat="45.4101433" lon="10.5052059"><ele>135.0</ele><time>2026-05-03T09:07:26.232Z</time></trkpt><trkpt lat="45.4101958" lon="10.5052681"><ele>135.0</ele><time>2026-05-03T09:07:27.232Z</time></trkpt><trkpt lat="45.410242" lon="10.5053451"><ele>135.0</ele><time>2026-05-03T09:07:28.232Z</time></trkpt><trkpt lat="45.4102877" lon="10.5054273"><ele>135.0</ele><time>2026-05-03T09:07:29.232Z</time></trkpt><trkpt lat="45.410342" lon="10.5055172"><ele>135.0</ele><time>2026-05-03T09:07:30.232Z</time></trkpt><trkpt lat="45.4104049" lon="10.5056104"><ele>135.0</ele><time>2026-05-03T09:07:31.232Z</time></trkpt><trkpt lat="45.4104691" lon="10.5056958"><ele>135.0</ele><time>2026-05-03T09:07:32.232Z</time></trkpt><trkpt lat="45.4105371" lon="10.5057849"><ele>135.0</ele><time>2026-05-03T09:07:33.233Z</time></trkpt><trkpt lat="45.4106113" lon="10.5058906"><ele>135.0</ele><time>2026-05-03T09:07:34.233Z</time></trkpt><trkpt lat="45.4106988" lon="10.5060086"><ele>135.0</ele><time>2026-05-03T09:07:35.232Z</time></trkpt><trkpt lat="45.4107879" lon="10.5061198"><ele>135.4</ele><time>2026-05-03T09:07:36.233Z</time></trkpt><trkpt lat="45.4108717" lon="10.5062196"><ele>135.8</ele><time>2026-05-03T09:07:37.232Z</time></trkpt><trkpt lat="45.4109491" lon="10.5063293"><ele>136.2</ele><time>2026-05-03T09:07:38.232Z</time></trkpt><trkpt lat="45.4110222" lon="10.5064402"><ele>136.6</ele><time>2026-05-03T09:07:39.232Z</time></trkpt><trkpt lat="45.411101" lon="10.5065452"><ele>137.0</ele><time>2026-05-03T09:07:40.233Z</time></trkpt><trkpt lat="45.4111835" lon="10.5066401"><ele>135.0</ele><time>2026-05-03T09:07:41.232Z</time></trkpt><trkpt lat="45.4112662" lon="10.5067239"><ele>133.0</ele><time>2026-05-03T09:07:42.232Z</time></trkpt><trkpt lat="45.411344" lon="10.5067933"><ele>131.0</ele><time>2026-05-03T09:07:43.232Z</time></trkpt><trkpt lat="45.4114117" lon="10.5068654"><ele>129.0</ele><time>2026-05-03T09:07:44.232Z</time></trkpt><trkpt lat="45.4114683" lon="10.5069578"><ele>126.99999999999999</ele><time>2026-05-03T09:07:45.232Z</time></trkpt><trkpt lat="45.4114989" lon="10.5070601"><ele>125.0</ele><time>2026-05-03T09:07:46.232Z</time></trkpt><trkpt lat="45.4115023" lon="10.5071782"><ele>125.0</ele><time>2026-05-03T09:07:47.232Z</time></trkpt><trkpt lat="45.411508" lon="10.5073126"><ele>125.0</ele><time>2026-05-03T09:07:48.232Z</time></trkpt><trkpt lat="45.4115204" lon="10.5074503"><ele>125.0</ele><time>2026-05-03T09:07:49.232Z</time></trkpt><trkpt lat="45.4115304" lon="10.5075934"><ele>125.0</ele><time>2026-05-03T09:07:50.233Z</time></trkpt><trkpt lat="45.411541" lon="10.5077373"><ele>125.0</ele><time>2026-05-03T09:07:51.232Z</time></trkpt><trkpt lat="45.4115518" lon="10.5078895"><ele>124.6</ele><time>2026-05-03T09:07:52.232Z</time></trkpt><trkpt lat="45.411559" lon="10.5080517"><ele>124.2</ele><time>2026-05-03T09:07:53.232Z</time></trkpt><trkpt lat="45.411561" lon="10.5082117"><ele>123.80000000000001</ele><time>2026-05-03T09:07:54.232Z</time></trkpt><trkpt lat="45.4115652" lon="10.5083587"><ele>123.4</ele><time>2026-05-03T09:07:55.233Z</time></trkpt><trkpt lat="45.4115665" lon="10.5084947"><ele>123.0</ele><time>2026-05-03T09:07:56.233Z</time></trkpt><trkpt lat="45.4115677" lon="10.508622"><ele>123.0</ele><time>2026-05-03T09:07:57.232Z</time></trkpt><trkpt lat="45.4115709" lon="10.5087322"><ele>123.0</ele><time>2026-05-03T09:07:58.232Z</time></trkpt><trkpt lat="45.4115752" lon="10.5088338"><ele>123.0</ele><time>2026-05-03T09:07:59.233Z</time></trkpt><trkpt lat="45.4115772" lon="10.5089321"><ele>123.0</ele><time>2026-05-03T09:08:02.232Z</time></trkpt><trkpt lat="45.4116537" lon="10.5090358"><ele>123.0</ele><time>2026-05-03T09:08:22.233Z</time></trkpt><trkpt lat="45.4117399" lon="10.5090703"><ele>123.0</ele><time>2026-05-03T09:08:23.232Z</time></trkpt><trkpt lat="45.4118574" lon="10.5091024"><ele>122.0</ele><time>2026-05-03T09:08:24.232Z</time></trkpt><trkpt lat="45.4119551" lon="10.5091222"><ele>121.00000000000001</ele><time>2026-05-03T09:08:25.233Z</time></trkpt><trkpt lat="45.4120444" lon="10.5091476"><ele>120.00000000000001</ele><time>2026-05-03T09:08:26.232Z</time></trkpt><trkpt lat="45.4121303" lon="10.5091763"><ele>119.0</ele><time>2026-05-03T09:08:27.232Z</time></trkpt><trkpt lat="45.4121978" lon="10.5092173"><ele>118.0</ele><time>2026-05-03T09:08:28.232Z</time></trkpt><trkpt lat="45.4122691" lon="10.5093433"><ele>118.0</ele><time>2026-05-03T09:08:30.232Z</time></trkpt><trkpt lat="45.4122929" lon="10.5094496"><ele>118.00000000000001</ele><time>2026-05-03T09:08:31.232Z</time></trkpt><trkpt lat="45.4123225" lon="10.5095796"><ele>118.00000000000001</ele><time>2026-05-03T09:08:32.232Z</time></trkpt><trkpt lat="45.4123632" lon="10.509703"><ele>118.0</ele><time>2026-05-03T09:08:33.232Z</time></trkpt><trkpt lat="45.4124255" lon="10.5098593"><ele>118.0</ele><time>2026-05-03T09:08:34.232Z</time></trkpt><trkpt lat="45.4124995" lon="10.510059"><ele>118.0</ele><time>2026-05-03T09:08:35.233Z</time></trkpt><trkpt lat="45.4125834" lon="10.5102879"><ele>118.0</ele><time>2026-05-03T09:08:36.232Z</time></trkpt><trkpt lat="45.412674" lon="10.5105315"><ele>118.0</ele><time>2026-05-03T09:08:37.232Z</time></trkpt><trkpt lat="45.4127569" lon="10.5107658"><ele>118.0</ele><time>2026-05-03T09:08:38.232Z</time></trkpt><trkpt lat="45.4128423" lon="10.5109974"><ele>118.0</ele><time>2026-05-03T09:08:39.233Z</time></trkpt><trkpt lat="45.4129325" lon="10.5112077"><ele>118.0</ele><time>2026-05-03T09:08:40.232Z</time></trkpt><trkpt lat="45.413011" lon="10.5114082"><ele>117.75</ele><time>2026-05-03T09:08:41.232Z</time></trkpt><trkpt lat="45.4130821" lon="10.5115952"><ele>117.5</ele><time>2026-05-03T09:08:42.232Z</time></trkpt><trkpt lat="45.4131546" lon="10.511769"><ele>117.25</ele><time>2026-05-03T09:08:43.232Z</time></trkpt><trkpt lat="45.413237" lon="10.5119343"><ele>117.0</ele><time>2026-05-03T09:08:44.232Z</time></trkpt><trkpt lat="45.4133228" lon="10.5120871"><ele>117.5</ele><time>2026-05-03T09:08:45.232Z</time></trkpt><trkpt lat="45.4134214" lon="10.5122171"><ele>118.0</ele><time>2026-05-03T09:08:46.233Z</time></trkpt><trkpt lat="45.413524" lon="10.5123277"><ele>118.5</ele><time>2026-05-03T09:08:47.232Z</time></trkpt><trkpt lat="45.4136356" lon="10.5124293"><ele>119.0</ele><time>2026-05-03T09:08:48.232Z</time></trkpt><trkpt lat="45.4137734" lon="10.5125034"><ele>118.0</ele><time>2026-05-03T09:08:49.232Z</time></trkpt><trkpt lat="45.4139043" lon="10.5125686"><ele>117.0</ele><time>2026-05-03T09:08:50.232Z</time></trkpt><trkpt lat="45.4140505" lon="10.5126199"><ele>116.0</ele><time>2026-05-03T09:08:51.232Z</time></trkpt><trkpt lat="45.4141879" lon="10.5126605"><ele>115.0</ele><time>2026-05-03T09:08:52.232Z</time></trkpt><trkpt lat="45.414326" lon="10.5126877"><ele>115.0</ele><time>2026-05-03T09:08:53.232Z</time></trkpt><trkpt lat="45.4144525" lon="10.512713"><ele>115.0</ele><time>2026-05-03T09:08:54.233Z</time></trkpt><trkpt lat="45.4145631" lon="10.5127505"><ele>115.0</ele><time>2026-05-03T09:08:55.232Z</time></trkpt><trkpt lat="45.4146703" lon="10.5127828"><ele>115.0</ele><time>2026-05-03T09:08:56.232Z</time></trkpt><trkpt lat="45.4147669" lon="10.5128092"><ele>115.0</ele><time>2026-05-03T09:08:57.233Z</time></trkpt><trkpt lat="45.4148519" lon="10.5128288"><ele>115.00000000000001</ele><time>2026-05-03T09:08:58.232Z</time></trkpt><trkpt lat="45.4149151" lon="10.5128522"><ele>115.0</ele><time>2026-05-03T09:08:59.232Z</time></trkpt><trkpt lat="45.4149731" lon="10.512945"><ele>115.0</ele><time>2026-05-03T09:09:01.233Z</time></trkpt><trkpt lat="45.414963" lon="10.5130982"><ele>115.0</ele><time>2026-05-03T09:09:03.232Z</time></trkpt><trkpt lat="45.414953" lon="10.5132096"><ele>115.00000000000001</ele><time>2026-05-03T09:09:04.232Z</time></trkpt><trkpt lat="45.4149434" lon="10.5133579"><ele>115.0</ele><time>2026-05-03T09:09:05.232Z</time></trkpt><trkpt lat="45.4149361" lon="10.5135094"><ele>115.2</ele><time>2026-05-03T09:09:06.232Z</time></trkpt><trkpt lat="45.4149377" lon="10.5136499"><ele>115.4</ele><time>2026-05-03T09:09:07.232Z</time></trkpt><trkpt lat="45.4149348" lon="10.5137781"><ele>115.6</ele><time>2026-05-03T09:09:08.232Z</time></trkpt><trkpt lat="45.4149104" lon="10.5138788"><ele>115.8</ele><time>2026-05-03T09:09:09.232Z</time></trkpt><trkpt lat="45.4148296" lon="10.5139868"><ele>116.0</ele><time>2026-05-03T09:09:11.232Z</time></trkpt><trkpt lat="45.4146606" lon="10.5139941"><ele>116.0</ele><time>2026-05-03T09:09:13.232Z</time></trkpt><trkpt lat="45.4145428" lon="10.5140045"><ele>116.0</ele><time>2026-05-03T09:09:14.232Z</time></trkpt><trkpt lat="45.4144221" lon="10.5140069"><ele>116.0</ele><time>2026-05-03T09:09:15.233Z</time></trkpt><trkpt lat="45.414313" lon="10.5140229"><ele>116.0</ele><time>2026-05-03T09:09:16.232Z</time></trkpt><trkpt lat="45.4142227" lon="10.514051"><ele>116.0</ele><time>2026-05-03T09:09:17.232Z</time></trkpt><trkpt lat="45.414126" lon="10.5141013"><ele>116.0</ele><time>2026-05-03T09:09:18.232Z</time></trkpt><trkpt lat="45.4140264" lon="10.5141646"><ele>116.0</ele><time>2026-05-03T09:09:19.233Z</time></trkpt><trkpt lat="45.4139057" lon="10.514226"><ele>116.0</ele><time>2026-05-03T09:09:20.232Z</time></trkpt><trkpt lat="45.4137888" lon="10.514266"><ele>116.0</ele><time>2026-05-03T09:09:21.232Z</time></trkpt><trkpt lat="45.4136934" lon="10.5142964"><ele>115.99999999999999</ele><time>2026-05-03T09:09:22.232Z</time></trkpt><trkpt lat="45.4136097" lon="10.5143286"><ele>116.0</ele><time>2026-05-03T09:09:23.232Z</time></trkpt><trkpt lat="45.4135425" lon="10.514366"><ele>116.0</ele><time>2026-05-03T09:09:24.232Z</time></trkpt><trkpt lat="45.4134815" lon="10.514425"><ele>116.0</ele><time>2026-05-03T09:09:25.232Z</time></trkpt><trkpt lat="45.4134341" lon="10.514514"><ele>115.99999999999999</ele><time>2026-05-03T09:09:26.232Z</time></trkpt><trkpt lat="45.4133927" lon="10.5146295"><ele>116.0</ele><time>2026-05-03T09:09:27.232Z</time></trkpt><trkpt lat="45.4133572" lon="10.5147795"><ele>116.0</ele><time>2026-05-03T09:09:28.232Z</time></trkpt><trkpt lat="45.4133168" lon="10.5149371"><ele>116.0</ele><time>2026-05-03T09:09:29.233Z</time></trkpt><trkpt lat="45.4132829" lon="10.5151151"><ele>116.0</ele><time>2026-05-03T09:09:30.232Z</time></trkpt><trkpt lat="45.4132321" lon="10.5153287"><ele>116.0</ele><time>2026-05-03T09:09:31.232Z</time></trkpt><trkpt lat="45.4131703" lon="10.5155532"><ele>116.0</ele><time>2026-05-03T09:09:32.232Z</time></trkpt><trkpt lat="45.4131078" lon="10.5157525"><ele>116.0</ele><time>2026-05-03T09:09:33.232Z</time></trkpt><trkpt lat="45.4130481" lon="10.5159594"><ele>116.0</ele><time>2026-05-03T09:09:34.232Z</time></trkpt><trkpt lat="45.4129834" lon="10.5161474"><ele>115.33333333333333</ele><time>2026-05-03T09:09:35.232Z</time></trkpt><trkpt lat="45.4129076" lon="10.5163444"><ele>114.66666666666666</ele><time>2026-05-03T09:09:36.232Z</time></trkpt><trkpt lat="45.4128301" lon="10.5165563"><ele>114.0</ele><time>2026-05-03T09:09:37.232Z</time></trkpt><trkpt lat="45.4127646" lon="10.516761"><ele>114.0</ele><time>2026-05-03T09:09:38.232Z</time></trkpt><trkpt lat="45.412701" lon="10.5169601"><ele>114.0</ele><time>2026-05-03T09:09:39.232Z</time></trkpt><trkpt lat="45.4126404" lon="10.5171396"><ele>114.0</ele><time>2026-05-03T09:09:40.232Z</time></trkpt><trkpt lat="45.4125763" lon="10.5173084"><ele>114.0</ele><time>2026-05-03T09:09:41.232Z</time></trkpt><trkpt lat="45.4124995" lon="10.5174511"><ele>114.0</ele><time>2026-05-03T09:09:42.232Z</time></trkpt><trkpt lat="45.4124137" lon="10.517587"><ele>114.0</ele><time>2026-05-03T09:09:43.232Z</time></trkpt><trkpt lat="45.4123122" lon="10.5177278"><ele>114.0</ele><time>2026-05-03T09:09:44.232Z</time></trkpt><trkpt lat="45.4122117" lon="10.5178493"><ele>114.0</ele><time>2026-05-03T09:09:45.232Z</time></trkpt><trkpt lat="45.4121138" lon="10.517947"><ele>115.25</ele><time>2026-05-03T09:09:46.232Z</time></trkpt><trkpt lat="45.412018" lon="10.5180586"><ele>116.5</ele><time>2026-05-03T09:09:47.232Z</time></trkpt><trkpt lat="45.4119268" lon="10.518187"><ele>117.75</ele><time>2026-05-03T09:09:48.233Z</time></trkpt><trkpt lat="45.4118424" lon="10.5183142"><ele>119.0</ele><time>2026-05-03T09:09:49.232Z</time></trkpt><trkpt lat="45.4117599" lon="10.5184751"><ele>119.0</ele><time>2026-05-03T09:09:50.232Z</time></trkpt><trkpt lat="45.4116723" lon="10.5186408"><ele>119.0</ele><time>2026-05-03T09:09:51.232Z</time></trkpt><trkpt lat="45.411594" lon="10.5187931"><ele>119.0</ele><time>2026-05-03T09:09:52.233Z</time></trkpt><trkpt lat="45.4115258" lon="10.518923"><ele>119.0</ele><time>2026-05-03T09:09:53.233Z</time></trkpt><trkpt lat="45.4114662" lon="10.5190315"><ele>118.99999999999999</ele><time>2026-05-03T09:09:54.232Z</time></trkpt><trkpt lat="45.4114168" lon="10.5191261"><ele>119.0</ele><time>2026-05-03T09:09:55.232Z</time></trkpt><trkpt lat="45.4113815" lon="10.5192122"><ele>119.0</ele><time>2026-05-03T09:09:56.232Z</time></trkpt><trkpt lat="45.4113567" lon="10.5193"><ele>119.0</ele><time>2026-05-03T09:09:57.232Z</time></trkpt><trkpt lat="45.4113882" lon="10.5193793"><ele>118.99999999999999</ele><time>2026-05-03T09:09:58.233Z</time></trkpt><trkpt lat="45.4114544" lon="10.5195084"><ele>119.0</ele><time>2026-05-03T09:10:00.232Z</time></trkpt><trkpt lat="45.4115013" lon="10.5195879"><ele>118.6</ele><time>2026-05-03T09:10:01.232Z</time></trkpt><trkpt lat="45.4115411" lon="10.5196979"><ele>118.2</ele><time>2026-05-03T09:10:02.232Z</time></trkpt><trkpt lat="45.4115625" lon="10.5198249"><ele>117.79999999999998</ele><time>2026-05-03T09:10:03.232Z</time></trkpt><trkpt lat="45.4115729" lon="10.5199778"><ele>117.39999999999999</ele><time>2026-05-03T09:10:04.232Z</time></trkpt><trkpt lat="45.4115645" lon="10.5201482"><ele>117.0</ele><time>2026-05-03T09:10:05.233Z</time></trkpt><trkpt lat="45.4115632" lon="10.5203058"><ele>116.83333333333333</ele><time>2026-05-03T09:10:06.232Z</time></trkpt><trkpt lat="45.4115577" lon="10.5204436"><ele>116.66666666666666</ele><time>2026-05-03T09:10:07.232Z</time></trkpt><trkpt lat="45.4115539" lon="10.5205726"><ele>116.5</ele><time>2026-05-03T09:10:08.232Z</time></trkpt><trkpt lat="45.4115596" lon="10.5206917"><ele>116.33333333333333</ele><time>2026-05-03T09:10:09.232Z</time></trkpt><trkpt lat="45.4115766" lon="10.5208038"><ele>116.16666666666666</ele><time>2026-05-03T09:10:10.232Z</time></trkpt><trkpt lat="45.411609" lon="10.520894"><ele>116.0</ele><time>2026-05-03T09:10:11.232Z</time></trkpt><trkpt lat="45.4116735" lon="10.5209718"><ele>116.0</ele><time>2026-05-03T09:10:12.232Z</time></trkpt><trkpt lat="45.411757" lon="10.5210534"><ele>116.0</ele><time>2026-05-03T09:10:13.232Z</time></trkpt><trkpt lat="45.4118416" lon="10.52112"><ele>116.0</ele><time>2026-05-03T09:10:14.232Z</time></trkpt><trkpt lat="45.4119242" lon="10.5211719"><ele>116.0</ele><time>2026-05-03T09:10:15.232Z</time></trkpt><trkpt lat="45.4120063" lon="10.5212213"><ele>116.0</ele><time>2026-05-03T09:10:16.232Z</time></trkpt><trkpt lat="45.4120683" lon="10.5212884"><ele>116.14285714285717</ele><time>2026-05-03T09:10:17.232Z</time></trkpt><trkpt lat="45.412114" lon="10.5213677"><ele>116.28571428571429</ele><time>2026-05-03T09:10:18.232Z</time></trkpt><trkpt lat="45.4121454" lon="10.521458"><ele>116.42857142857144</ele><time>2026-05-03T09:10:19.232Z</time></trkpt><trkpt lat="45.4121536" lon="10.521559"><ele>116.57142857142858</ele><time>2026-05-03T09:10:20.232Z</time></trkpt><trkpt lat="45.4121456" lon="10.521663"><ele>116.71428571428572</ele><time>2026-05-03T09:10:21.232Z</time></trkpt><trkpt lat="45.4121322" lon="10.5217663"><ele>116.85714285714286</ele><time>2026-05-03T09:10:22.232Z</time></trkpt><trkpt lat="45.4121124" lon="10.5218736"><ele>117.0</ele><time>2026-05-03T09:10:23.232Z</time></trkpt><trkpt lat="45.4120865" lon="10.5219709"><ele>117.0</ele><time>2026-05-03T09:10:24.233Z</time></trkpt><trkpt lat="45.4120343" lon="10.5221007"><ele>116.99999999999999</ele><time>2026-05-03T09:10:26.232Z</time></trkpt><trkpt lat="45.4119479" lon="10.5221175"><ele>116.99999999999999</ele><time>2026-05-03T09:12:08.232Z</time></trkpt><trkpt lat="45.4118487" lon="10.5220673"><ele>117.0</ele><time>2026-05-03T09:12:09.233Z</time></trkpt><trkpt lat="45.411748" lon="10.5220195"><ele>117.0</ele><time>2026-05-03T09:12:10.232Z</time></trkpt><trkpt lat="45.4116508" lon="10.5219768"><ele>117.0</ele><time>2026-05-03T09:12:11.233Z</time></trkpt><trkpt lat="45.4115635" lon="10.5219485"><ele>116.99999999999999</ele><time>2026-05-03T09:12:12.232Z</time></trkpt><trkpt lat="45.4114651" lon="10.5219259"><ele>116.99999999999999</ele><time>2026-05-03T09:12:13.233Z</time></trkpt><trkpt lat="45.4113667" lon="10.5219317"><ele>117.0</ele><time>2026-05-03T09:12:14.232Z</time></trkpt><trkpt lat="45.4112693" lon="10.5219324"><ele>117.0</ele><time>2026-05-03T09:12:15.232Z</time></trkpt><trkpt lat="45.4111801" lon="10.5219377"><ele>117.0</ele><time>2026-05-03T09:12:16.233Z</time></trkpt><trkpt lat="45.4110931" lon="10.521947"><ele>117.0</ele><time>2026-05-03T09:12:17.233Z</time></trkpt><trkpt lat="45.4110153" lon="10.521972"><ele>117.0</ele><time>2026-05-03T09:12:18.233Z</time></trkpt><trkpt lat="45.4109235" lon="10.5219996"><ele>117.0</ele><time>2026-05-03T09:12:19.232Z</time></trkpt><trkpt lat="45.4108382" lon="10.5220346"><ele>117.0</ele><time>2026-05-03T09:12:20.233Z</time></trkpt><trkpt lat="45.4107599" lon="10.5220728"><ele>117.0</ele><time>2026-05-03T09:12:21.232Z</time></trkpt><trkpt lat="45.4106908" lon="10.5221068"><ele>117.0</ele><time>2026-05-03T09:12:22.232Z</time></trkpt><trkpt lat="45.4106241" lon="10.5221276"><ele>117.0</ele><time>2026-05-03T09:12:23.232Z</time></trkpt><trkpt lat="45.4105585" lon="10.5221574"><ele>117.0</ele><time>2026-05-03T09:12:24.233Z</time></trkpt><trkpt lat="45.4104891" lon="10.5221855"><ele>117.0</ele><time>2026-05-03T09:12:25.232Z</time></trkpt><trkpt lat="45.4104135" lon="10.5222071"><ele>117.0</ele><time>2026-05-03T09:12:26.232Z</time></trkpt><trkpt lat="45.4103347" lon="10.5222397"><ele>117.0</ele><time>2026-05-03T09:12:27.233Z</time></trkpt><trkpt lat="45.4102375" lon="10.5222831"><ele>117.75</ele><time>2026-05-03T09:12:28.232Z</time></trkpt><trkpt lat="45.4101278" lon="10.522336"><ele>118.5</ele><time>2026-05-03T09:12:29.232Z</time></trkpt><trkpt lat="45.4100071" lon="10.5223833"><ele>119.25</ele><time>2026-05-03T09:12:30.232Z</time></trkpt><trkpt lat="45.4098843" lon="10.522436"><ele>120.0</ele><time>2026-05-03T09:12:31.232Z</time></trkpt><trkpt lat="45.4097607" lon="10.5224618"><ele>121.25</ele><time>2026-05-03T09:12:32.232Z</time></trkpt><trkpt lat="45.4096401" lon="10.5225166"><ele>122.5</ele><time>2026-05-03T09:12:33.232Z</time></trkpt><trkpt lat="45.4095177" lon="10.5225501"><ele>123.75</ele><time>2026-05-03T09:12:34.232Z</time></trkpt><trkpt lat="45.4093954" lon="10.5225946"><ele>125.0</ele><time>2026-05-03T09:12:35.232Z</time></trkpt><trkpt lat="45.4092563" lon="10.5226608"><ele>125.0</ele><time>2026-05-03T09:12:36.232Z</time></trkpt><trkpt lat="45.4091115" lon="10.5227229"><ele>125.0</ele><time>2026-05-03T09:12:37.232Z</time></trkpt><trkpt lat="45.4089728" lon="10.5227889"><ele>125.0</ele><time>2026-05-03T09:12:38.232Z</time></trkpt><trkpt lat="45.4088468" lon="10.5228486"><ele>125.0</ele><time>2026-05-03T09:12:39.232Z</time></trkpt><trkpt lat="45.4087306" lon="10.5229072"><ele>125.4</ele><time>2026-05-03T09:12:40.232Z</time></trkpt><trkpt lat="45.4086275" lon="10.5229489"><ele>125.8</ele><time>2026-05-03T09:12:41.232Z</time></trkpt><trkpt lat="45.4085356" lon="10.5229845"><ele>126.19999999999999</ele><time>2026-05-03T09:12:42.232Z</time></trkpt><trkpt lat="45.4084454" lon="10.5230283"><ele>126.6</ele><time>2026-05-03T09:12:43.232Z</time></trkpt><trkpt lat="45.4083696" lon="10.5230321"><ele>127.0</ele><time>2026-05-03T09:12:44.233Z</time></trkpt><trkpt lat="45.4082895" lon="10.5230875"><ele>127.0</ele><time>2026-05-03T09:12:45.233Z</time></trkpt><trkpt lat="45.4082189" lon="10.5231598"><ele>127.0</ele><time>2026-05-03T09:12:46.233Z</time></trkpt><trkpt lat="45.4081131" lon="10.5232549"><ele>127.0</ele><time>2026-05-03T09:12:47.233Z</time></trkpt><trkpt lat="45.4079996" lon="10.5233464"><ele>127.0</ele><time>2026-05-03T09:12:48.233Z</time></trkpt><trkpt lat="45.407878" lon="10.5234436"><ele>127.5</ele><time>2026-05-03T09:12:49.233Z</time></trkpt><trkpt lat="45.4077672" lon="10.523528"><ele>128.0</ele><time>2026-05-03T09:12:50.232Z</time></trkpt><trkpt lat="45.4076545" lon="10.5236122"><ele>128.5</ele><time>2026-05-03T09:12:51.232Z</time></trkpt><trkpt lat="45.4075369" lon="10.5237269"><ele>129.0</ele><time>2026-05-03T09:12:52.232Z</time></trkpt><trkpt lat="45.4073857" lon="10.523843"><ele>129.25</ele><time>2026-05-03T09:12:53.232Z</time></trkpt><trkpt lat="45.4072557" lon="10.5239373"><ele>129.5</ele><time>2026-05-03T09:12:54.232Z</time></trkpt><trkpt lat="45.4071359" lon="10.5240291"><ele>129.75</ele><time>2026-05-03T09:12:55.232Z</time></trkpt><trkpt lat="45.4070216" lon="10.5241088"><ele>130.0</ele><time>2026-05-03T09:12:56.232Z</time></trkpt><trkpt lat="45.4069207" lon="10.5241763"><ele>130.66666666666669</ele><time>2026-05-03T09:12:57.232Z</time></trkpt><trkpt lat="45.4068238" lon="10.5242445"><ele>131.33333333333334</ele><time>2026-05-03T09:12:58.232Z</time></trkpt><trkpt lat="45.4067355" lon="10.5243013"><ele>132.0</ele><time>2026-05-03T09:12:59.232Z</time></trkpt><trkpt lat="45.4066603" lon="10.524345"><ele>132.66666666666666</ele><time>2026-05-03T09:13:00.232Z</time></trkpt><trkpt lat="45.4065889" lon="10.5244002"><ele>133.33333333333331</ele><time>2026-05-03T09:13:01.232Z</time></trkpt><trkpt lat="45.406521" lon="10.524459"><ele>134.0</ele><time>2026-05-03T09:13:02.232Z</time></trkpt><trkpt lat="45.4064552" lon="10.5245197"><ele>134.0</ele><time>2026-05-03T09:13:03.232Z</time></trkpt><trkpt lat="45.4063863" lon="10.5245781"><ele>134.0</ele><time>2026-05-03T09:13:04.232Z</time></trkpt><trkpt lat="45.4063174" lon="10.5246528"><ele>134.0</ele><time>2026-05-03T09:13:05.232Z</time></trkpt><trkpt lat="45.4062384" lon="10.5247663"><ele>134.0</ele><time>2026-05-03T09:13:06.232Z</time></trkpt><trkpt lat="45.4061487" lon="10.5248949"><ele>134.0</ele><time>2026-05-03T09:13:07.232Z</time></trkpt><trkpt lat="45.4060525" lon="10.5250371"><ele>133.0</ele><time>2026-05-03T09:13:08.232Z</time></trkpt><trkpt lat="45.4059458" lon="10.525169"><ele>132.0</ele><time>2026-05-03T09:13:09.232Z</time></trkpt><trkpt lat="45.4058317" lon="10.5253094"><ele>131.0</ele><time>2026-05-03T09:13:10.232Z</time></trkpt><trkpt lat="45.4057109" lon="10.5254593"><ele>131.0</ele><time>2026-05-03T09:13:11.232Z</time></trkpt><trkpt lat="45.405605" lon="10.5256058"><ele>131.0</ele><time>2026-05-03T09:13:12.232Z</time></trkpt><trkpt lat="45.405517" lon="10.5257341"><ele>131.0</ele><time>2026-05-03T09:13:13.232Z</time></trkpt><trkpt lat="45.4054273" lon="10.5258619"><ele>131.0</ele><time>2026-05-03T09:13:14.233Z</time></trkpt><trkpt lat="45.4053377" lon="10.5259882"><ele>131.33333333333331</ele><time>2026-05-03T09:13:15.232Z</time></trkpt><trkpt lat="45.405245" lon="10.5261312"><ele>131.66666666666666</ele><time>2026-05-03T09:13:16.232Z</time></trkpt><trkpt lat="45.4051248" lon="10.526279"><ele>132.0</ele><time>2026-05-03T09:13:17.232Z</time></trkpt><trkpt lat="45.4050163" lon="10.5264437"><ele>132.0</ele><time>2026-05-03T09:13:18.233Z</time></trkpt><trkpt lat="45.4048916" lon="10.526618"><ele>132.0</ele><time>2026-05-03T09:13:19.232Z</time></trkpt><trkpt lat="45.4047608" lon="10.5268014"><ele>132.0</ele><time>2026-05-03T09:13:20.232Z</time></trkpt><trkpt lat="45.4046387" lon="10.5269736"><ele>132.25</ele><time>2026-05-03T09:13:21.232Z</time></trkpt><trkpt lat="45.4045232" lon="10.5271373"><ele>132.5</ele><time>2026-05-03T09:13:22.232Z</time></trkpt><trkpt lat="45.4044233" lon="10.5272762"><ele>132.75</ele><time>2026-05-03T09:13:23.232Z</time></trkpt><trkpt lat="45.4043196" lon="10.5274145"><ele>133.0</ele><time>2026-05-03T09:13:24.232Z</time></trkpt><trkpt lat="45.4042254" lon="10.5275295"><ele>133.0</ele><time>2026-05-03T09:13:25.232Z</time></trkpt><trkpt lat="45.4041432" lon="10.527632"><ele>133.0</ele><time>2026-05-03T09:13:26.232Z</time></trkpt><trkpt lat="45.4040502" lon="10.5277054"><ele>133.0</ele><time>2026-05-03T09:13:27.232Z</time></trkpt><trkpt lat="45.4039642" lon="10.5277161"><ele>133.0</ele><time>2026-05-03T09:13:28.232Z</time></trkpt><trkpt lat="45.4038853" lon="10.5277327"><ele>133.0</ele><time>2026-05-03T09:13:29.233Z</time></trkpt><trkpt lat="45.4038221" lon="10.5277337"><ele>133.0</ele><time>2026-05-03T09:13:30.232Z</time></trkpt><trkpt lat="45.4037208" lon="10.5277397"><ele>133.33333333333334</ele><time>2026-05-03T09:13:32.232Z</time></trkpt><trkpt lat="45.4036143" lon="10.5277465"><ele>133.66666666666669</ele><time>2026-05-03T09:13:34.232Z</time></trkpt><trkpt lat="45.4035455" lon="10.5277555"><ele>134.0</ele><time>2026-05-03T09:13:35.232Z</time></trkpt><trkpt lat="45.4034638" lon="10.5277729"><ele>134.33333333333334</ele><time>2026-05-03T09:13:36.232Z</time></trkpt><trkpt lat="45.4033767" lon="10.5277964"><ele>134.66666666666666</ele><time>2026-05-03T09:13:37.232Z</time></trkpt><trkpt lat="45.4032821" lon="10.5278191"><ele>135.0</ele><time>2026-05-03T09:13:38.232Z</time></trkpt><trkpt lat="45.4031746" lon="10.5278447"><ele>135.0</ele><time>2026-05-03T09:13:39.232Z</time></trkpt><trkpt lat="45.4030597" lon="10.5278625"><ele>135.0</ele><time>2026-05-03T09:13:40.232Z</time></trkpt><trkpt lat="45.402958" lon="10.5278878"><ele>135.0</ele><time>2026-05-03T09:13:41.232Z</time></trkpt><trkpt lat="45.4028624" lon="10.5279226"><ele>135.0</ele><time>2026-05-03T09:13:42.233Z</time></trkpt><trkpt lat="45.4027691" lon="10.5279755"><ele>135.0</ele><time>2026-05-03T09:13:43.232Z</time></trkpt><trkpt lat="45.4026766" lon="10.5280419"><ele>135.75</ele><time>2026-05-03T09:13:44.232Z</time></trkpt><trkpt lat="45.4025708" lon="10.5281164"><ele>136.5</ele><time>2026-05-03T09:13:45.232Z</time></trkpt><trkpt lat="45.4024464" lon="10.5282194"><ele>137.25</ele><time>2026-05-03T09:13:46.232Z</time></trkpt><trkpt lat="45.4023064" lon="10.5283463"><ele>138.0</ele><time>2026-05-03T09:13:47.233Z</time></trkpt><trkpt lat="45.4021586" lon="10.5284699"><ele>138.0</ele><time>2026-05-03T09:13:48.232Z</time></trkpt><trkpt lat="45.402011" lon="10.5285909"><ele>138.0</ele><time>2026-05-03T09:13:49.232Z</time></trkpt><trkpt lat="45.4018724" lon="10.528703"><ele>138.0</ele><time>2026-05-03T09:13:50.232Z</time></trkpt><trkpt lat="45.4017499" lon="10.5288003"><ele>137.75</ele><time>2026-05-03T09:13:51.232Z</time></trkpt><trkpt lat="45.4016312" lon="10.5289024"><ele>137.5</ele><time>2026-05-03T09:13:52.232Z</time></trkpt><trkpt lat="45.4015209" lon="10.5289986"><ele>137.25</ele><time>2026-05-03T09:13:53.232Z</time></trkpt><trkpt lat="45.4014099" lon="10.5290854"><ele>137.0</ele><time>2026-05-03T09:13:54.232Z</time></trkpt><trkpt lat="45.4012988" lon="10.5291791"><ele>136.75</ele><time>2026-05-03T09:13:55.232Z</time></trkpt><trkpt lat="45.4011921" lon="10.5292709"><ele>136.5</ele><time>2026-05-03T09:13:56.232Z</time></trkpt><trkpt lat="45.4010921" lon="10.5293523"><ele>136.25</ele><time>2026-05-03T09:13:57.232Z</time></trkpt><trkpt lat="45.4010003" lon="10.5294331"><ele>136.0</ele><time>2026-05-03T09:13:58.232Z</time></trkpt><trkpt lat="45.4009138" lon="10.5295137"><ele>135.83333333333334</ele><time>2026-05-03T09:13:59.232Z</time></trkpt><trkpt lat="45.400835" lon="10.5295742"><ele>135.66666666666669</ele><time>2026-05-03T09:14:00.233Z</time></trkpt><trkpt lat="45.400779" lon="10.5296203"><ele>135.5</ele><time>2026-05-03T09:14:01.232Z</time></trkpt><trkpt lat="45.400715" lon="10.5296983"><ele>135.33333333333334</ele><time>2026-05-03T09:14:03.232Z</time></trkpt><trkpt lat="45.4007066" lon="10.5297918"><ele>135.16666666666666</ele><time>2026-05-03T09:14:05.232Z</time></trkpt><trkpt lat="45.4007537" lon="10.5299532"><ele>135.0</ele><time>2026-05-03T09:14:07.232Z</time></trkpt><trkpt lat="45.4007903" lon="10.5300738"><ele>135.0</ele><time>2026-05-03T09:14:08.232Z</time></trkpt><trkpt lat="45.400835" lon="10.5302044"><ele>135.0</ele><time>2026-05-03T09:14:09.232Z</time></trkpt><trkpt lat="45.4008786" lon="10.5304044"><ele>135.0</ele><time>2026-05-03T09:14:10.232Z</time></trkpt><trkpt lat="45.4009243" lon="10.5305776"><ele>135.0</ele><time>2026-05-03T09:14:11.232Z</time></trkpt><trkpt lat="45.4009654" lon="10.5307327"><ele>134.8</ele><time>2026-05-03T09:14:12.232Z</time></trkpt><trkpt lat="45.4010043" lon="10.5308812"><ele>134.6</ele><time>2026-05-03T09:14:13.232Z</time></trkpt><trkpt lat="45.4010335" lon="10.5310199"><ele>134.4</ele><time>2026-05-03T09:14:14.232Z</time></trkpt><trkpt lat="45.4010652" lon="10.5311435"><ele>134.2</ele><time>2026-05-03T09:14:15.232Z</time></trkpt><trkpt lat="45.4010852" lon="10.5312787"><ele>134.0</ele><time>2026-05-03T09:14:16.232Z</time></trkpt><trkpt lat="45.401096" lon="10.5314149"><ele>133.5</ele><time>2026-05-03T09:14:17.233Z</time></trkpt><trkpt lat="45.4010958" lon="10.5315353"><ele>133.0</ele><time>2026-05-03T09:14:18.232Z</time></trkpt><trkpt lat="45.4011012" lon="10.5316596"><ele>132.5</ele><time>2026-05-03T09:14:19.232Z</time></trkpt><trkpt lat="45.4011159" lon="10.5317806"><ele>132.0</ele><time>2026-05-03T09:14:20.232Z</time></trkpt><trkpt lat="45.4011383" lon="10.5318932"><ele>131.5</ele><time>2026-05-03T09:14:21.232Z</time></trkpt><trkpt lat="45.4011659" lon="10.5319898"><ele>131.0</ele><time>2026-05-03T09:14:22.232Z</time></trkpt><trkpt lat="45.401199" lon="10.5320677"><ele>130.4</ele><time>2026-05-03T09:14:23.232Z</time></trkpt><trkpt lat="45.4012943" lon="10.5321717"><ele>129.8</ele><time>2026-05-03T09:14:25.232Z</time></trkpt><trkpt lat="45.4013512" lon="10.5322369"><ele>129.20000000000002</ele><time>2026-05-03T09:14:26.232Z</time></trkpt><trkpt lat="45.4014241" lon="10.5322996"><ele>128.6</ele><time>2026-05-03T09:14:27.232Z</time></trkpt><trkpt lat="45.4014948" lon="10.5323466"><ele>128.0</ele><time>2026-05-03T09:14:28.232Z</time></trkpt><trkpt lat="45.4015812" lon="10.5324019"><ele>127.80000000000001</ele><time>2026-05-03T09:14:29.232Z</time></trkpt><trkpt lat="45.4016649" lon="10.5324621"><ele>127.60000000000001</ele><time>2026-05-03T09:14:30.232Z</time></trkpt><trkpt lat="45.4017461" lon="10.5325164"><ele>127.39999999999999</ele><time>2026-05-03T09:14:31.232Z</time></trkpt><trkpt lat="45.401822" lon="10.5325658"><ele>127.19999999999999</ele><time>2026-05-03T09:14:32.232Z</time></trkpt><trkpt lat="45.4019085" lon="10.5326058"><ele>127.0</ele><time>2026-05-03T09:14:33.232Z</time></trkpt><trkpt lat="45.4019974" lon="10.5326419"><ele>127.00000000000001</ele><time>2026-05-03T09:14:34.232Z</time></trkpt><trkpt lat="45.4020954" lon="10.5326708"><ele>127.0</ele><time>2026-05-03T09:14:35.232Z</time></trkpt><trkpt lat="45.4021961" lon="10.5327011"><ele>127.0</ele><time>2026-05-03T09:14:36.232Z</time></trkpt><trkpt lat="45.4022875" lon="10.5327225"><ele>127.0</ele><time>2026-05-03T09:14:37.233Z</time></trkpt><trkpt lat="45.4023692" lon="10.5327341"><ele>127.00000000000001</ele><time>2026-05-03T09:14:38.232Z</time></trkpt><trkpt lat="45.4024355" lon="10.5327668"><ele>127.0</ele><time>2026-05-03T09:14:39.232Z</time></trkpt><trkpt lat="45.4025003" lon="10.5328324"><ele>126.39999999999999</ele><time>2026-05-03T09:14:40.232Z</time></trkpt><trkpt lat="45.4025561" lon="10.5329268"><ele>125.79999999999998</ele><time>2026-05-03T09:14:41.232Z</time></trkpt><trkpt lat="45.4026111" lon="10.5330188"><ele>125.2</ele><time>2026-05-03T09:14:43.232Z</time></trkpt><trkpt lat="45.4026415" lon="10.5331301"><ele>124.6</ele><time>2026-05-03T09:14:48.232Z</time></trkpt><trkpt lat="45.4027028" lon="10.5332227"><ele>124.0</ele><time>2026-05-03T09:14:50.233Z</time></trkpt><trkpt lat="45.4027899" lon="10.5333797"><ele>124.0</ele><time>2026-05-03T09:14:52.233Z</time></trkpt><trkpt lat="45.4028648" lon="10.5334817"><ele>124.0</ele><time>2026-05-03T09:14:53.232Z</time></trkpt><trkpt lat="45.402944" lon="10.5335738"><ele>124.0</ele><time>2026-05-03T09:14:54.232Z</time></trkpt><trkpt lat="45.4030314" lon="10.5336735"><ele>124.0</ele><time>2026-05-03T09:14:55.232Z</time></trkpt><trkpt lat="45.4031207" lon="10.533779"><ele>124.0</ele><time>2026-05-03T09:14:56.232Z</time></trkpt><trkpt lat="45.4031979" lon="10.5338801"><ele>123.4</ele><time>2026-05-03T09:14:57.232Z</time></trkpt><trkpt lat="45.4032708" lon="10.5339667"><ele>122.80000000000001</ele><time>2026-05-03T09:14:58.232Z</time></trkpt><trkpt lat="45.4033462" lon="10.5340302"><ele>122.19999999999999</ele><time>2026-05-03T09:14:59.232Z</time></trkpt><trkpt lat="45.4034152" lon="10.5340767"><ele>121.6</ele><time>2026-05-03T09:15:00.232Z</time></trkpt><trkpt lat="45.4035032" lon="10.5340948"><ele>121.0</ele><time>2026-05-03T09:15:01.232Z</time></trkpt><trkpt lat="45.4036118" lon="10.534136"><ele>121.0</ele><time>2026-05-03T09:15:02.232Z</time></trkpt><trkpt lat="45.4037331" lon="10.5341895"><ele>121.0</ele><time>2026-05-03T09:15:03.233Z</time></trkpt><trkpt lat="45.4038555" lon="10.5342448"><ele>121.0</ele><time>2026-05-03T09:15:04.232Z</time></trkpt><trkpt lat="45.403992" lon="10.5343071"><ele>121.0</ele><time>2026-05-03T09:15:05.232Z</time></trkpt><trkpt lat="45.4041154" lon="10.5343663"><ele>120.25</ele><time>2026-05-03T09:15:06.232Z</time></trkpt><trkpt lat="45.4042422" lon="10.5344292"><ele>119.5</ele><time>2026-05-03T09:15:07.233Z</time></trkpt><trkpt lat="45.4043651" lon="10.534485"><ele>118.75</ele><time>2026-05-03T09:15:08.232Z</time></trkpt><trkpt lat="45.4044959" lon="10.5345449"><ele>118.0</ele><time>2026-05-03T09:15:09.232Z</time></trkpt><trkpt lat="45.4046264" lon="10.5346036"><ele>116.75</ele><time>2026-05-03T09:15:10.232Z</time></trkpt><trkpt lat="45.4047488" lon="10.5346554"><ele>115.5</ele><time>2026-05-03T09:15:11.232Z</time></trkpt><trkpt lat="45.4048685" lon="10.5347113"><ele>114.25</ele><time>2026-05-03T09:15:12.232Z</time></trkpt><trkpt lat="45.4049842" lon="10.5347669"><ele>113.0</ele><time>2026-05-03T09:15:13.233Z</time></trkpt><trkpt lat="45.405105" lon="10.5348215"><ele>113.0</ele><time>2026-05-03T09:15:14.232Z</time></trkpt><trkpt lat="45.4052287" lon="10.5348745"><ele>113.00000000000001</ele><time>2026-05-03T09:15:15.232Z</time></trkpt><trkpt lat="45.4053485" lon="10.534926"><ele>113.00000000000001</ele><time>2026-05-03T09:15:16.232Z</time></trkpt><trkpt lat="45.4054415" lon="10.5349698"><ele>113.0</ele><time>2026-05-03T09:15:17.233Z</time></trkpt><trkpt lat="45.4055213" lon="10.5349971"><ele>113.0</ele><time>2026-05-03T09:15:18.232Z</time></trkpt><trkpt lat="45.4055938" lon="10.5350054"><ele>112.80000000000001</ele><time>2026-05-03T09:15:19.232Z</time></trkpt><trkpt lat="45.4056596" lon="10.5349862"><ele>112.60000000000001</ele><time>2026-05-03T09:15:20.232Z</time></trkpt><trkpt lat="45.405732" lon="10.5350108"><ele>112.39999999999999</ele><time>2026-05-03T09:15:22.232Z</time></trkpt><trkpt lat="45.4058635" lon="10.5351108"><ele>112.19999999999999</ele><time>2026-05-03T09:15:24.232Z</time></trkpt><trkpt lat="45.4059567" lon="10.5351713"><ele>112.0</ele><time>2026-05-03T09:15:25.232Z</time></trkpt><trkpt lat="45.4060342" lon="10.5352273"><ele>112.0</ele><time>2026-05-03T09:15:26.232Z</time></trkpt><trkpt lat="45.4061095" lon="10.5352753"><ele>111.99999999999999</ele><time>2026-05-03T09:15:27.232Z</time></trkpt><trkpt lat="45.4062082" lon="10.5353163"><ele>111.99999999999999</ele><time>2026-05-03T09:15:29.232Z</time></trkpt><trkpt lat="45.4063114" lon="10.5352636"><ele>112.0</ele><time>2026-05-03T09:15:31.232Z</time></trkpt><trkpt lat="45.4063843" lon="10.5351898"><ele>112.0</ele><time>2026-05-03T09:15:32.232Z</time></trkpt><trkpt lat="45.4064679" lon="10.5350799"><ele>111.66666666666667</ele><time>2026-05-03T09:15:33.232Z</time></trkpt><trkpt lat="45.4065439" lon="10.5349751"><ele>111.33333333333334</ele><time>2026-05-03T09:15:34.232Z</time></trkpt><trkpt lat="45.4066026" lon="10.5349009"><ele>111.0</ele><time>2026-05-03T09:15:35.232Z</time></trkpt><trkpt lat="45.4066628" lon="10.5348278"><ele>110.66666666666666</ele><time>2026-05-03T09:15:36.232Z</time></trkpt><trkpt lat="45.4067237" lon="10.5349207"><ele>110.33333333333333</ele><time>2026-05-03T09:15:39.232Z</time></trkpt><trkpt lat="45.4067573" lon="10.5350365"><ele>110.0</ele><time>2026-05-03T09:15:40.233Z</time></trkpt><trkpt lat="45.4067984" lon="10.5351814"><ele>110.0</ele><time>2026-05-03T09:15:41.232Z</time></trkpt><trkpt lat="45.4068451" lon="10.5353537"><ele>110.0</ele><time>2026-05-03T09:15:42.233Z</time></trkpt><trkpt lat="45.40689" lon="10.5355142"><ele>110.0</ele><time>2026-05-03T09:15:43.232Z</time></trkpt><trkpt lat="45.4069305" lon="10.5356673"><ele>110.0</ele><time>2026-05-03T09:15:44.232Z</time></trkpt><trkpt lat="45.4069727" lon="10.5358397"><ele>110.0</ele><time>2026-05-03T09:15:45.232Z</time></trkpt><trkpt lat="45.4070258" lon="10.5360301"><ele>110.0</ele><time>2026-05-03T09:15:46.232Z</time></trkpt><trkpt lat="45.4070706" lon="10.5361931"><ele>110.0</ele><time>2026-05-03T09:15:47.232Z</time></trkpt><trkpt lat="45.407116" lon="10.5363598"><ele>110.0</ele><time>2026-05-03T09:15:48.232Z</time></trkpt><trkpt lat="45.4071739" lon="10.5365532"><ele>110.25</ele><time>2026-05-03T09:15:49.232Z</time></trkpt><trkpt lat="45.4072241" lon="10.5367355"><ele>110.5</ele><time>2026-05-03T09:15:50.232Z</time></trkpt><trkpt lat="45.4072732" lon="10.5369106"><ele>110.75</ele><time>2026-05-03T09:15:51.232Z</time></trkpt><trkpt lat="45.407324" lon="10.5370908"><ele>111.0</ele><time>2026-05-03T09:15:52.232Z</time></trkpt><trkpt lat="45.4073665" lon="10.5372492"><ele>111.5</ele><time>2026-05-03T09:15:53.232Z</time></trkpt><trkpt lat="45.4074059" lon="10.5373762"><ele>112.0</ele><time>2026-05-03T09:15:54.232Z</time></trkpt><trkpt lat="45.407439" lon="10.5374993"><ele>112.5</ele><time>2026-05-03T09:15:55.233Z</time></trkpt><trkpt lat="45.4074701" lon="10.5376103"><ele>113.0</ele><time>2026-05-03T09:15:56.233Z</time></trkpt><trkpt lat="45.4074955" lon="10.5377009"><ele>113.5</ele><time>2026-05-03T09:15:57.232Z</time></trkpt><trkpt lat="45.4075505" lon="10.5378046"><ele>114.0</ele><time>2026-05-03T09:15:59.232Z</time></trkpt><trkpt lat="45.4076181" lon="10.5378102"><ele>114.0</ele><time>2026-05-03T09:16:01.232Z</time></trkpt><trkpt lat="45.4076782" lon="10.5377809"><ele>114.0</ele><time>2026-05-03T09:16:02.232Z</time></trkpt><trkpt lat="45.4077678" lon="10.5377451"><ele>114.0</ele><time>2026-05-03T09:16:03.233Z</time></trkpt><trkpt lat="45.4078541" lon="10.5376954"><ele>114.0</ele><time>2026-05-03T09:16:04.232Z</time></trkpt><trkpt lat="45.4080139" lon="10.5376547"><ele>114.0</ele><time>2026-05-03T09:16:05.232Z</time></trkpt><trkpt lat="45.4081514" lon="10.5375236"><ele>114.4</ele><time>2026-05-03T09:16:06.233Z</time></trkpt><trkpt lat="45.40827" lon="10.5374574"><ele>114.80000000000001</ele><time>2026-05-03T09:16:07.232Z</time></trkpt><trkpt lat="45.4083837" lon="10.5373826"><ele>115.19999999999999</ele><time>2026-05-03T09:16:08.232Z</time></trkpt><trkpt lat="45.4084784" lon="10.5373224"><ele>115.6</ele><time>2026-05-03T09:16:09.232Z</time></trkpt><trkpt lat="45.4085569" lon="10.5372749"><ele>116.0</ele><time>2026-05-03T09:16:10.232Z</time></trkpt><trkpt lat="45.4086555" lon="10.5372323"><ele>115.99999999999999</ele><time>2026-05-03T09:16:12.232Z</time></trkpt><trkpt lat="45.4087267" lon="10.5372629"><ele>116.0</ele><time>2026-05-03T09:16:15.232Z</time></trkpt><trkpt lat="45.4087295" lon="10.5374101"><ele>116.0</ele><time>2026-05-03T09:16:17.232Z</time></trkpt><trkpt lat="45.4087292" lon="10.5375114"><ele>116.0</ele><time>2026-05-03T09:16:18.232Z</time></trkpt><trkpt lat="45.4087216" lon="10.5376302"><ele>115.99999999999999</ele><time>2026-05-03T09:16:19.232Z</time></trkpt><trkpt lat="45.4087219" lon="10.5377633"><ele>116.0</ele><time>2026-05-03T09:16:20.232Z</time></trkpt><trkpt lat="45.408737" lon="10.5379265"><ele>116.6</ele><time>2026-05-03T09:16:21.232Z</time></trkpt><trkpt lat="45.4087446" lon="10.5381034"><ele>117.19999999999999</ele><time>2026-05-03T09:16:22.232Z</time></trkpt><trkpt lat="45.408756" lon="10.5382639"><ele>117.80000000000001</ele><time>2026-05-03T09:16:23.232Z</time></trkpt><trkpt lat="45.4087587" lon="10.5384121"><ele>118.4</ele><time>2026-05-03T09:16:24.232Z</time></trkpt><trkpt lat="45.4087658" lon="10.5385475"><ele>119.0</ele><time>2026-05-03T09:16:25.232Z</time></trkpt><trkpt lat="45.408772" lon="10.5386687"><ele>119.33333333333333</ele><time>2026-05-03T09:16:26.232Z</time></trkpt><trkpt lat="45.4087753" lon="10.5387726"><ele>119.66666666666666</ele><time>2026-05-03T09:16:27.232Z</time></trkpt><trkpt lat="45.4087675" lon="10.538898"><ele>120.0</ele><time>2026-05-03T09:16:29.232Z</time></trkpt><trkpt lat="45.4086863" lon="10.5389382"><ele>120.33333333333334</ele><time>2026-05-03T09:16:31.232Z</time></trkpt><trkpt lat="45.4086099" lon="10.5389564"><ele>120.66666666666667</ele><time>2026-05-03T09:16:32.232Z</time></trkpt><trkpt lat="45.4085095" lon="10.5389792"><ele>121.0</ele><time>2026-05-03T09:16:33.232Z</time></trkpt><trkpt lat="45.4084211" lon="10.5390041"><ele>121.00000000000001</ele><time>2026-05-03T09:16:34.232Z</time></trkpt><trkpt lat="45.4083382" lon="10.5390245"><ele>121.0</ele><time>2026-05-03T09:16:35.232Z</time></trkpt><trkpt lat="45.4082601" lon="10.5390405"><ele>121.0</ele><time>2026-05-03T09:16:36.232Z</time></trkpt><trkpt lat="45.4081948" lon="10.5390622"><ele>121.0</ele><time>2026-05-03T09:16:37.232Z</time></trkpt><trkpt lat="45.4081085" lon="10.5391316"><ele>121.00000000000001</ele><time>2026-05-03T09:16:39.232Z</time></trkpt><trkpt lat="45.4080916" lon="10.5392848"><ele>121.0</ele><time>2026-05-03T09:16:41.232Z</time></trkpt><trkpt lat="45.408105" lon="10.5393948"><ele>121.0</ele><time>2026-05-03T09:16:42.232Z</time></trkpt><trkpt lat="45.4081258" lon="10.5395291"><ele>121.0</ele><time>2026-05-03T09:16:43.232Z</time></trkpt><trkpt lat="45.4081437" lon="10.5396802"><ele>121.0</ele><time>2026-05-03T09:16:44.233Z</time></trkpt><trkpt lat="45.4081632" lon="10.5398133"><ele>121.0</ele><time>2026-05-03T09:16:45.232Z</time></trkpt><trkpt lat="45.4081812" lon="10.5399385"><ele>121.0</ele><time>2026-05-03T09:16:46.233Z</time></trkpt><trkpt lat="45.4081867" lon="10.5400288"><ele>121.6</ele><time>2026-05-03T09:16:47.233Z</time></trkpt><trkpt lat="45.4081327" lon="10.5401281"><ele>122.19999999999999</ele><time>2026-05-03T09:16:49.233Z</time></trkpt><trkpt lat="45.408072" lon="10.540173"><ele>122.80000000000001</ele><time>2026-05-03T09:16:50.232Z</time></trkpt><trkpt lat="45.4079937" lon="10.5402899"><ele>123.4</ele><time>2026-05-03T09:16:52.233Z</time></trkpt><trkpt lat="45.4079801" lon="10.5404687"><ele>124.0</ele><time>2026-05-03T09:16:54.232Z</time></trkpt><trkpt lat="45.4079959" lon="10.5405828"><ele>125.6</ele><time>2026-05-03T09:16:55.232Z</time></trkpt><trkpt lat="45.4079994" lon="10.5407177"><ele>127.2</ele><time>2026-05-03T09:16:56.232Z</time></trkpt><trkpt lat="45.4080104" lon="10.5408806"><ele>128.79999999999998</ele><time>2026-05-03T09:16:57.232Z</time></trkpt><trkpt lat="45.4080234" lon="10.5410389"><ele>130.4</ele><time>2026-05-03T09:16:58.233Z</time></trkpt><trkpt lat="45.4080343" lon="10.5411938"><ele>132.0</ele><time>2026-05-03T09:16:59.232Z</time></trkpt><trkpt lat="45.4080477" lon="10.5413232"><ele>133.66666666666666</ele><time>2026-05-03T09:17:00.232Z</time></trkpt><trkpt lat="45.4080457" lon="10.5414182"><ele>135.33333333333334</ele><time>2026-05-03T09:17:01.232Z</time></trkpt><trkpt lat="45.4080571" lon="10.5415626"><ele>137.0</ele><time>2026-05-03T09:17:03.232Z</time></trkpt><trkpt lat="45.4080604" lon="10.5416938"><ele>138.66666666666669</ele><time>2026-05-03T09:17:05.232Z</time></trkpt><trkpt lat="45.408062" lon="10.5418191"><ele>140.33333333333334</ele><time>2026-05-03T09:17:07.232Z</time></trkpt><trkpt lat="45.4080603" lon="10.5419527"><ele>142.0</ele><time>2026-05-03T09:17:09.232Z</time></trkpt><trkpt lat="45.4080708" lon="10.5420715"><ele>142.0</ele><time>2026-05-03T09:17:11.232Z</time></trkpt><trkpt lat="45.4080815" lon="10.5422005"><ele>142.0</ele><time>2026-05-03T09:17:13.233Z</time></trkpt><trkpt lat="45.40808" lon="10.5423"><ele>142.0</ele><time>2026-05-03T09:17:15.232Z</time></trkpt><trkpt lat="45.4080174" lon="10.5423347"><ele>142.0</ele><time>2026-05-03T09:17:19.233Z</time></trkpt><trkpt lat="45.4079333" lon="10.5423401"><ele>142.0</ele><time>2026-05-03T09:17:22.232Z</time></trkpt><trkpt lat="45.4078677" lon="10.5423181"><ele>142.0</ele><time>2026-05-03T09:17:25.232Z</time></trkpt><trkpt lat="45.4077886" lon="10.5422886"><ele>142.0</ele><time>2026-05-03T09:17:28.233Z</time></trkpt><trkpt lat="45.4076888" lon="10.5423027"><ele>142.0</ele><time>2026-05-03T09:17:30.232Z</time></trkpt><trkpt lat="45.4075996" lon="10.54228"><ele>142.0</ele><time>2026-05-03T09:17:32.232Z</time></trkpt><trkpt lat="45.4075173" lon="10.5422425"><ele>142.0</ele><time>2026-05-03T09:17:34.233Z</time></trkpt><trkpt lat="45.4074354" lon="10.5422433"><ele>142.0</ele><time>2026-05-03T09:17:36.232Z</time></trkpt><trkpt lat="45.4073549" lon="10.5422333"><ele>142.0</ele><time>2026-05-03T09:17:38.232Z</time></trkpt><trkpt lat="45.4072613" lon="10.5421828"><ele>141.25</ele><time>2026-05-03T09:17:40.232Z</time></trkpt><trkpt lat="45.4071317" lon="10.542134"><ele>140.5</ele><time>2026-05-03T09:17:42.232Z</time></trkpt><trkpt lat="45.4070185" lon="10.5421098"><ele>139.75</ele><time>2026-05-03T09:17:44.232Z</time></trkpt><trkpt lat="45.4069026" lon="10.542103"><ele>139.0</ele><time>2026-05-03T09:17:46.232Z</time></trkpt><trkpt lat="45.4067938" lon="10.5420646"><ele>139.0</ele><time>2026-05-03T09:17:48.232Z</time></trkpt><trkpt lat="45.4067038" lon="10.5420489"><ele>139.0</ele><time>2026-05-03T09:17:50.233Z</time></trkpt><trkpt lat="45.406564" lon="10.5420232"><ele>139.0</ele><time>2026-05-03T09:17:52.232Z</time></trkpt><trkpt lat="45.4064653" lon="10.5419988"><ele>139.0</ele><time>2026-05-03T09:17:53.232Z</time></trkpt><trkpt lat="45.4063765" lon="10.5419796"><ele>139.0</ele><time>2026-05-03T09:17:54.232Z</time></trkpt><trkpt lat="45.4062956" lon="10.5419646"><ele>139.57142857142856</ele><time>2026-05-03T09:17:55.232Z</time></trkpt><trkpt lat="45.4062279" lon="10.5419414"><ele>140.14285714285714</ele><time>2026-05-03T09:17:56.233Z</time></trkpt><trkpt lat="45.4061664" lon="10.5419221"><ele>140.71428571428572</ele><time>2026-05-03T09:17:57.232Z</time></trkpt><trkpt lat="45.4060887" lon="10.5419232"><ele>141.28571428571428</ele><time>2026-05-03T09:17:58.232Z</time></trkpt><trkpt lat="45.405997" lon="10.5419056"><ele>141.85714285714286</ele><time>2026-05-03T09:17:59.232Z</time></trkpt><trkpt lat="45.4059228" lon="10.5418971"><ele>142.42857142857142</ele><time>2026-05-03T09:18:00.232Z</time></trkpt><trkpt lat="45.4058571" lon="10.5418791"><ele>143.0</ele><time>2026-05-03T09:18:01.232Z</time></trkpt><trkpt lat="45.405791" lon="10.5418765"><ele>143.0</ele><time>2026-05-03T09:18:02.232Z</time></trkpt><trkpt lat="45.405709" lon="10.541838"><ele>143.0</ele><time>2026-05-03T09:18:04.232Z</time></trkpt><trkpt lat="45.4056417" lon="10.5418268"><ele>143.0</ele><time>2026-05-03T09:18:05.232Z</time></trkpt><trkpt lat="45.4055805" lon="10.5417957"><ele>143.0</ele><time>2026-05-03T09:18:06.232Z</time></trkpt><trkpt lat="45.4055002" lon="10.5417764"><ele>143.0</ele><time>2026-05-03T09:18:08.233Z</time></trkpt><trkpt lat="45.4054182" lon="10.5417606"><ele>143.0</ele><time>2026-05-03T09:18:10.232Z</time></trkpt><trkpt lat="45.4053499" lon="10.5417599"><ele>142.66666666666666</ele><time>2026-05-03T09:18:11.232Z</time></trkpt><trkpt lat="45.4052351" lon="10.541735"><ele>142.33333333333331</ele><time>2026-05-03T09:18:13.232Z</time></trkpt><trkpt lat="45.4051685" lon="10.5417358"><ele>142.0</ele><time>2026-05-03T09:18:15.232Z</time></trkpt><trkpt lat="45.4050788" lon="10.5417305"><ele>141.66666666666666</ele><time>2026-05-03T09:18:17.233Z</time></trkpt><trkpt lat="45.4049752" lon="10.5417176"><ele>141.33333333333334</ele><time>2026-05-03T09:18:19.232Z</time></trkpt><trkpt lat="45.4049073" lon="10.5416971"><ele>141.0</ele><time>2026-05-03T09:18:20.232Z</time></trkpt><trkpt lat="45.4048414" lon="10.5416806"><ele>141.0</ele><time>2026-05-03T09:18:21.232Z</time></trkpt><trkpt lat="45.4047743" lon="10.5416668"><ele>141.0</ele><time>2026-05-03T09:18:22.232Z</time></trkpt><trkpt lat="45.4046976" lon="10.5416434"><ele>141.0</ele><time>2026-05-03T09:18:24.232Z</time></trkpt><trkpt lat="45.4046131" lon="10.5416466"><ele>141.0</ele><time>2026-05-03T09:18:26.233Z</time></trkpt><trkpt lat="45.4045009" lon="10.5416231"><ele>141.0</ele><time>2026-05-03T09:18:28.232Z</time></trkpt><trkpt lat="45.4044082" lon="10.5416229"><ele>141.0</ele><time>2026-05-03T09:18:30.232Z</time></trkpt><trkpt lat="45.4043164" lon="10.5416259"><ele>140.4</ele><time>2026-05-03T09:18:32.233Z</time></trkpt><trkpt lat="45.4042327" lon="10.5416131"><ele>139.8</ele><time>2026-05-03T09:18:35.232Z</time></trkpt><trkpt lat="45.4041148" lon="10.5416057"><ele>139.20000000000002</ele><time>2026-05-03T09:18:37.233Z</time></trkpt><trkpt lat="45.404032" lon="10.5416197"><ele>138.6</ele><time>2026-05-03T09:18:39.232Z</time></trkpt><trkpt lat="45.403926" lon="10.5415944"><ele>138.0</ele><time>2026-05-03T09:18:41.232Z</time></trkpt><trkpt lat="45.4038235" lon="10.5415487"><ele>138.0</ele><time>2026-05-03T09:18:43.232Z</time></trkpt><trkpt lat="45.4037586" lon="10.5415219"><ele>138.0</ele><time>2026-05-03T09:18:45.232Z</time></trkpt><trkpt lat="45.4036785" lon="10.5415288"><ele>138.0</ele><time>2026-05-03T09:18:47.232Z</time></trkpt><trkpt lat="45.4036082" lon="10.541522"><ele>138.0</ele><time>2026-05-03T09:18:48.232Z</time></trkpt><trkpt lat="45.4035413" lon="10.541516"><ele>138.0</ele><time>2026-05-03T09:18:49.232Z</time></trkpt><trkpt lat="45.4034406" lon="10.5415142"><ele>138.0</ele><time>2026-05-03T09:18:50.232Z</time></trkpt><trkpt lat="45.4033296" lon="10.5414955"><ele>138.0</ele><time>2026-05-03T09:18:52.232Z</time></trkpt><trkpt lat="45.4032527" lon="10.5414988"><ele>138.0</ele><time>2026-05-03T09:18:53.232Z</time></trkpt><trkpt lat="45.4031365" lon="10.5415397"><ele>138.0</ele><time>2026-05-03T09:18:55.232Z</time></trkpt><trkpt lat="45.4030598" lon="10.541579"><ele>138.0</ele><time>2026-05-03T09:18:57.232Z</time></trkpt><trkpt lat="45.4029784" lon="10.5416234"><ele>138.0</ele><time>2026-05-03T09:18:58.233Z</time></trkpt><trkpt lat="45.402905" lon="10.5416572"><ele>138.0</ele><time>2026-05-03T09:18:59.233Z</time></trkpt><trkpt lat="45.4028417" lon="10.5416641"><ele>138.20000000000002</ele><time>2026-05-03T09:19:00.232Z</time></trkpt><trkpt lat="45.4027456" lon="10.5416384"><ele>138.4</ele><time>2026-05-03T09:19:02.232Z</time></trkpt><trkpt lat="45.4026507" lon="10.5416278"><ele>138.60000000000002</ele><time>2026-05-03T09:19:04.232Z</time></trkpt><trkpt lat="45.40255" lon="10.5416132"><ele>138.8</ele><time>2026-05-03T09:19:06.232Z</time></trkpt><trkpt lat="45.4024786" lon="10.5415753"><ele>139.0</ele><time>2026-05-03T09:19:08.232Z</time></trkpt><trkpt lat="45.402362" lon="10.5415668"><ele>139.0</ele><time>2026-05-03T09:19:11.232Z</time></trkpt><trkpt lat="45.4022947" lon="10.5415488"><ele>139.0</ele><time>2026-05-03T09:19:12.232Z</time></trkpt><trkpt lat="45.4022272" lon="10.5415285"><ele>139.0</ele><time>2026-05-03T09:19:13.233Z</time></trkpt><trkpt lat="45.4021285" lon="10.5414867"><ele>139.0</ele><time>2026-05-03T09:19:15.233Z</time></trkpt><trkpt lat="45.4020285" lon="10.5414522"><ele>139.0</ele><time>2026-05-03T09:19:17.232Z</time></trkpt><trkpt lat="45.4019466" lon="10.5414282"><ele>139.0</ele><time>2026-05-03T09:19:19.232Z</time></trkpt><trkpt lat="45.4018484" lon="10.5414498"><ele>138.5</ele><time>2026-05-03T09:19:21.232Z</time></trkpt><trkpt lat="45.4017856" lon="10.541476"><ele>138.0</ele><time>2026-05-03T09:19:23.232Z</time></trkpt><trkpt lat="45.4017171" lon="10.5415068"><ele>137.5</ele><time>2026-05-03T09:19:29.232Z</time></trkpt><trkpt lat="45.401637" lon="10.541499"><ele>137.0</ele><time>2026-05-03T09:19:31.232Z</time></trkpt><trkpt lat="45.4015674" lon="10.5415158"><ele>136.5</ele><time>2026-05-03T09:19:33.232Z</time></trkpt><trkpt lat="45.4015012" lon="10.5416011"><ele>136.0</ele><time>2026-05-03T09:19:35.232Z</time></trkpt><trkpt lat="45.401467" lon="10.5417243"><ele>136.0</ele><time>2026-05-03T09:19:37.233Z</time></trkpt><trkpt lat="45.4014538" lon="10.5418877"><ele>136.0</ele><time>2026-05-03T09:19:39.232Z</time></trkpt><trkpt lat="45.4014659" lon="10.5420185"><ele>136.0</ele><time>2026-05-03T09:19:41.232Z</time></trkpt><trkpt lat="45.401447" lon="10.5421187"><ele>136.0</ele><time>2026-05-03T09:19:44.232Z</time></trkpt><trkpt lat="45.4013527" lon="10.5421389"><ele>136.0</ele><time>2026-05-03T09:19:47.232Z</time></trkpt><trkpt lat="45.4012336" lon="10.5421137"><ele>136.0</ele><time>2026-05-03T09:19:49.232Z</time></trkpt><trkpt lat="45.401108" lon="10.5421042"><ele>136.0</ele><time>2026-05-03T09:19:51.232Z</time></trkpt><trkpt lat="45.4009898" lon="10.542097"><ele>136.0</ele><time>2026-05-03T09:19:53.232Z</time></trkpt><trkpt lat="45.4009206" lon="10.5421275"><ele>136.0</ele><time>2026-05-03T09:19:54.232Z</time></trkpt><trkpt lat="45.4008443" lon="10.5421467"><ele>136.0</ele><time>2026-05-03T09:19:55.232Z</time></trkpt><trkpt lat="45.4007364" lon="10.5421804"><ele>136.0</ele><time>2026-05-03T09:19:57.232Z</time></trkpt><trkpt lat="45.4006563" lon="10.5422352"><ele>136.0</ele><time>2026-05-03T09:19:59.232Z</time></trkpt><trkpt lat="45.4005951" lon="10.5423236"><ele>136.0</ele><time>2026-05-03T09:20:01.232Z</time></trkpt><trkpt lat="45.4005104" lon="10.5423467"><ele>136.0</ele><time>2026-05-03T09:20:04.232Z</time></trkpt><trkpt lat="45.4004248" lon="10.5423856"><ele>136.0</ele><time>2026-05-03T09:20:06.232Z</time></trkpt><trkpt lat="45.4003086" lon="10.5424047"><ele>135.16666666666669</ele><time>2026-05-03T09:20:08.233Z</time></trkpt><trkpt lat="45.4001856" lon="10.5424057"><ele>134.33333333333334</ele><time>2026-05-03T09:20:10.232Z</time></trkpt><trkpt lat="45.4001196" lon="10.5424389"><ele>133.5</ele><time>2026-05-03T09:20:11.232Z</time></trkpt><trkpt lat="45.4000475" lon="10.5424791"><ele>132.66666666666666</ele><time>2026-05-03T09:20:13.232Z</time></trkpt><trkpt lat="45.4000178" lon="10.542586"><ele>131.83333333333331</ele><time>2026-05-03T09:20:16.232Z</time></trkpt><trkpt lat="45.4000964" lon="10.5426544"><ele>131.0</ele><time>2026-05-03T09:20:19.232Z</time></trkpt><trkpt lat="45.4001692" lon="10.5426636"><ele>131.0</ele><time>2026-05-03T09:20:21.232Z</time></trkpt><trkpt lat="45.4002384" lon="10.5427028"><ele>131.0</ele><time>2026-05-03T09:20:23.232Z</time></trkpt><trkpt lat="45.4002967" lon="10.5427808"><ele>131.0</ele><time>2026-05-03T09:20:26.232Z</time></trkpt><trkpt lat="45.4003339" lon="10.5428942"><ele>131.0</ele><time>2026-05-03T09:20:29.232Z</time></trkpt><trkpt lat="45.4003449" lon="10.5430142"><ele>131.0</ele><time>2026-05-03T09:20:31.232Z</time></trkpt><trkpt lat="45.4003474" lon="10.5431042"><ele>131.0</ele><time>2026-05-03T09:20:34.232Z</time></trkpt><trkpt lat="45.4002883" lon="10.5431474"><ele>130.66666666666666</ele><time>2026-05-03T09:20:37.233Z</time></trkpt><trkpt lat="45.4002224" lon="10.5431233"><ele>130.33333333333331</ele><time>2026-05-03T09:20:39.232Z</time></trkpt><trkpt lat="45.4001249" lon="10.5430999"><ele>130.0</ele><time>2026-05-03T09:20:41.232Z</time></trkpt><trkpt lat="45.4000409" lon="10.5430944"><ele>129.66666666666666</ele><time>2026-05-03T09:20:43.232Z</time></trkpt><trkpt lat="45.3999486" lon="10.5431387"><ele>129.33333333333334</ele><time>2026-05-03T09:20:45.232Z</time></trkpt><trkpt lat="45.3998645" lon="10.5431435"><ele>129.0</ele><time>2026-05-03T09:20:47.233Z</time></trkpt><trkpt lat="45.3997674" lon="10.5431379"><ele>126.6</ele><time>2026-05-03T09:20:49.232Z</time></trkpt><trkpt lat="45.3996627" lon="10.5431758"><ele>124.2</ele><time>2026-05-03T09:20:51.232Z</time></trkpt><trkpt lat="45.3995842" lon="10.543083"><ele>121.79999999999998</ele><time>2026-05-03T09:20:53.232Z</time></trkpt><trkpt lat="45.3994944" lon="10.5430363"><ele>119.39999999999999</ele><time>2026-05-03T09:20:55.232Z</time></trkpt><trkpt lat="45.399408" lon="10.5429927"><ele>117.0</ele><time>2026-05-03T09:20:57.232Z</time></trkpt><trkpt lat="45.3993367" lon="10.5429265"><ele>117.0</ele><time>2026-05-03T09:20:59.232Z</time></trkpt><trkpt lat="45.3992625" lon="10.5428767"><ele>117.0</ele><time>2026-05-03T09:21:01.232Z</time></trkpt><trkpt lat="45.3992079" lon="10.5428101"><ele>117.0</ele><time>2026-05-03T09:21:03.233Z</time></trkpt><trkpt lat="45.3991755" lon="10.5427025"><ele>117.0</ele><time>2026-05-03T09:21:05.233Z</time></trkpt><trkpt lat="45.3991503" lon="10.5425571"><ele>117.0</ele><time>2026-05-03T09:21:07.232Z</time></trkpt><trkpt lat="45.3991487" lon="10.5424348"><ele>117.0</ele><time>2026-05-03T09:21:09.233Z</time></trkpt><trkpt lat="45.3991394" lon="10.5423028"><ele>117.0</ele><time>2026-05-03T09:21:11.232Z</time></trkpt><trkpt lat="45.3991171" lon="10.5421764"><ele>116.99999999999999</ele><time>2026-05-03T09:21:13.232Z</time></trkpt><trkpt lat="45.399103" lon="10.5420425"><ele>116.99999999999999</ele><time>2026-05-03T09:21:15.232Z</time></trkpt><trkpt lat="45.3990522" lon="10.5419422"><ele>117.0</ele><time>2026-05-03T09:21:17.232Z</time></trkpt><trkpt lat="45.3989557" lon="10.5419305"><ele>117.0</ele><time>2026-05-03T09:21:19.232Z</time></trkpt><trkpt lat="45.398868" lon="10.5419858"><ele>117.0</ele><time>2026-05-03T09:21:21.233Z</time></trkpt><trkpt lat="45.3988409" lon="10.5420736"><ele>116.99999999999999</ele><time>2026-05-03T09:21:22.232Z</time></trkpt><trkpt lat="45.398801" lon="10.5421823"><ele>116.99999999999999</ele><time>2026-05-03T09:21:23.232Z</time></trkpt><trkpt lat="45.398765" lon="10.5422962"><ele>117.0</ele><time>2026-05-03T09:21:24.232Z</time></trkpt><trkpt lat="45.3987251" lon="10.5424349"><ele>117.0</ele><time>2026-05-03T09:21:25.233Z</time></trkpt><trkpt lat="45.3986836" lon="10.5425953"><ele>115.5</ele><time>2026-05-03T09:21:26.233Z</time></trkpt><trkpt lat="45.398645" lon="10.5427794"><ele>114.0</ele><time>2026-05-03T09:21:27.232Z</time></trkpt><trkpt lat="45.3986065" lon="10.542993"><ele>112.5</ele><time>2026-05-03T09:21:28.232Z</time></trkpt><trkpt lat="45.39855" lon="10.5431984"><ele>111.0</ele><time>2026-05-03T09:21:29.232Z</time></trkpt><trkpt lat="45.3984834" lon="10.543418"><ele>111.0</ele><time>2026-05-03T09:21:30.232Z</time></trkpt><trkpt lat="45.3984213" lon="10.5436"><ele>111.0</ele><time>2026-05-03T09:21:31.232Z</time></trkpt><trkpt lat="45.3983681" lon="10.5437539"><ele>111.0</ele><time>2026-05-03T09:21:32.232Z</time></trkpt><trkpt lat="45.3983193" lon="10.5438739"><ele>111.0</ele><time>2026-05-03T09:21:33.232Z</time></trkpt><trkpt lat="45.3982816" lon="10.5439691"><ele>111.0</ele><time>2026-05-03T09:21:34.232Z</time></trkpt><trkpt lat="45.3982487" lon="10.5440545"><ele>111.4</ele><time>2026-05-03T09:21:35.232Z</time></trkpt><trkpt lat="45.3982168" lon="10.5441329"><ele>111.8</ele><time>2026-05-03T09:21:36.232Z</time></trkpt><trkpt lat="45.3981563" lon="10.5442753"><ele>112.20000000000002</ele><time>2026-05-03T09:21:38.232Z</time></trkpt><trkpt lat="45.3980992" lon="10.5443957"><ele>112.60000000000001</ele><time>2026-05-03T09:21:40.232Z</time></trkpt><trkpt lat="45.3980441" lon="10.5445062"><ele>113.0</ele><time>2026-05-03T09:21:42.232Z</time></trkpt><trkpt lat="45.3979673" lon="10.5446409"><ele>112.99999999999999</ele><time>2026-05-03T09:21:44.233Z</time></trkpt><trkpt lat="45.3979212" lon="10.5447168"><ele>113.0</ele><time>2026-05-03T09:21:45.232Z</time></trkpt><trkpt lat="45.3978733" lon="10.544799"><ele>113.0</ele><time>2026-05-03T09:21:46.232Z</time></trkpt><trkpt lat="45.3978284" lon="10.5449017"><ele>113.0</ele><time>2026-05-03T09:21:47.232Z</time></trkpt><trkpt lat="45.3977856" lon="10.5450234"><ele>112.99999999999999</ele><time>2026-05-03T09:21:48.232Z</time></trkpt><trkpt lat="45.3977498" lon="10.5451446"><ele>113.0</ele><time>2026-05-03T09:21:49.232Z</time></trkpt><trkpt lat="45.3977149" lon="10.5452983"><ele>113.0</ele><time>2026-05-03T09:21:50.232Z</time></trkpt><trkpt lat="45.3976649" lon="10.5454482"><ele>113.00000000000001</ele><time>2026-05-03T09:21:51.232Z</time></trkpt><trkpt lat="45.3976292" lon="10.5455912"><ele>113.00000000000001</ele><time>2026-05-03T09:21:52.233Z</time></trkpt><trkpt lat="45.3976136" lon="10.5457375"><ele>113.0</ele><time>2026-05-03T09:21:53.232Z</time></trkpt><trkpt lat="45.3976104" lon="10.5459027"><ele>113.0</ele><time>2026-05-03T09:21:54.232Z</time></trkpt><trkpt lat="45.3976208" lon="10.5460942"><ele>113.0</ele><time>2026-05-03T09:21:55.232Z</time></trkpt><trkpt lat="45.3976459" lon="10.5462976"><ele>113.0</ele><time>2026-05-03T09:21:56.232Z</time></trkpt><trkpt lat="45.3976676" lon="10.5464921"><ele>113.0</ele><time>2026-05-03T09:21:57.232Z</time></trkpt><trkpt lat="45.3976751" lon="10.5466895"><ele>113.0</ele><time>2026-05-03T09:21:58.232Z</time></trkpt><trkpt lat="45.3976584" lon="10.5468924"><ele>114.0</ele><time>2026-05-03T09:21:59.232Z</time></trkpt><trkpt lat="45.3976249" lon="10.5471156"><ele>115.0</ele><time>2026-05-03T09:22:00.232Z</time></trkpt><trkpt lat="45.3975826" lon="10.5473341"><ele>116.0</ele><time>2026-05-03T09:22:01.232Z</time></trkpt><trkpt lat="45.3975299" lon="10.5475476"><ele>116.0</ele><time>2026-05-03T09:22:02.232Z</time></trkpt><trkpt lat="45.3974875" lon="10.5477412"><ele>116.0</ele><time>2026-05-03T09:22:03.232Z</time></trkpt><trkpt lat="45.3974505" lon="10.5479294"><ele>116.0</ele><time>2026-05-03T09:22:04.232Z</time></trkpt><trkpt lat="45.3974289" lon="10.5481372"><ele>116.0</ele><time>2026-05-03T09:22:05.232Z</time></trkpt><trkpt lat="45.397396" lon="10.5483593"><ele>116.33333333333333</ele><time>2026-05-03T09:22:06.233Z</time></trkpt><trkpt lat="45.397359" lon="10.5486037"><ele>116.66666666666666</ele><time>2026-05-03T09:22:07.233Z</time></trkpt><trkpt lat="45.3973328" lon="10.5488476"><ele>117.0</ele><time>2026-05-03T09:22:08.232Z</time></trkpt><trkpt lat="45.3973017" lon="10.5491092"><ele>118.0</ele><time>2026-05-03T09:22:09.232Z</time></trkpt><trkpt lat="45.397269" lon="10.5493483"><ele>119.0</ele><time>2026-05-03T09:22:10.232Z</time></trkpt><trkpt lat="45.3972438" lon="10.5496002"><ele>120.0</ele><time>2026-05-03T09:22:11.233Z</time></trkpt><trkpt lat="45.3972219" lon="10.549828"><ele>120.66666666666666</ele><time>2026-05-03T09:22:12.232Z</time></trkpt><trkpt lat="45.3971957" lon="10.5500595"><ele>121.33333333333333</ele><time>2026-05-03T09:22:13.232Z</time></trkpt><trkpt lat="45.3971701" lon="10.5502713"><ele>122.0</ele><time>2026-05-03T09:22:14.232Z</time></trkpt><trkpt lat="45.3971393" lon="10.5504691"><ele>120.6</ele><time>2026-05-03T09:22:15.232Z</time></trkpt><trkpt lat="45.3970991" lon="10.550642"><ele>119.19999999999999</ele><time>2026-05-03T09:22:16.232Z</time></trkpt><trkpt lat="45.3970657" lon="10.5507653"><ele>117.8</ele><time>2026-05-03T09:22:17.232Z</time></trkpt><trkpt lat="45.3970397" lon="10.5508656"><ele>116.4</ele><time>2026-05-03T09:22:18.232Z</time></trkpt><trkpt lat="45.3970021" lon="10.5509824"><ele>115.0</ele><time>2026-05-03T09:22:20.232Z</time></trkpt><trkpt lat="45.3969733" lon="10.5510752"><ele>115.00000000000001</ele><time>2026-05-03T09:22:24.233Z</time></trkpt><trkpt lat="45.3969498" lon="10.5511615"><ele>115.0</ele><time>2026-05-03T09:22:27.232Z</time></trkpt><trkpt lat="45.3969315" lon="10.5512527"><ele>115.0</ele><time>2026-05-03T09:22:30.232Z</time></trkpt><trkpt lat="45.3969144" lon="10.5513719"><ele>115.0</ele><time>2026-05-03T09:22:34.232Z</time></trkpt><trkpt lat="45.3969" lon="10.5514861"><ele>115.00000000000001</ele><time>2026-05-03T09:22:37.232Z</time></trkpt><trkpt lat="45.3968991" lon="10.5516266"><ele>115.0</ele><time>2026-05-03T09:22:40.232Z</time></trkpt><trkpt lat="45.3968601" lon="10.5517111"><ele>116.2</ele><time>2026-05-03T09:22:43.232Z</time></trkpt><trkpt lat="45.3967927" lon="10.5517069"><ele>117.4</ele><time>2026-05-03T09:22:45.233Z</time></trkpt><trkpt lat="45.3966881" lon="10.5517097"><ele>118.6</ele><time>2026-05-03T09:22:47.232Z</time></trkpt><trkpt lat="45.3965334" lon="10.5517068"><ele>119.8</ele><time>2026-05-03T09:22:49.232Z</time></trkpt><trkpt lat="45.3964183" lon="10.5517335"><ele>121.0</ele><time>2026-05-03T09:22:50.232Z</time></trkpt><trkpt lat="45.3963127" lon="10.5517376"><ele>121.25</ele><time>2026-05-03T09:22:51.232Z</time></trkpt><trkpt lat="45.3962156" lon="10.5517432"><ele>121.5</ele><time>2026-05-03T09:22:52.232Z</time></trkpt><trkpt lat="45.3960968" lon="10.5517564"><ele>121.75</ele><time>2026-05-03T09:22:53.232Z</time></trkpt><trkpt lat="45.395981" lon="10.5517704"><ele>122.0</ele><time>2026-05-03T09:22:54.232Z</time></trkpt><trkpt lat="45.3958484" lon="10.5517862"><ele>122.0</ele><time>2026-05-03T09:22:55.232Z</time></trkpt><trkpt lat="45.3956824" lon="10.5517962"><ele>122.0</ele><time>2026-05-03T09:22:56.232Z</time></trkpt><trkpt lat="45.3955571" lon="10.5518194"><ele>122.0</ele><time>2026-05-03T09:22:57.233Z</time></trkpt><trkpt lat="45.39543" lon="10.5518216"><ele>122.0</ele><time>2026-05-03T09:22:58.232Z</time></trkpt><trkpt lat="45.3952891" lon="10.5517906"><ele>122.25</ele><time>2026-05-03T09:22:59.232Z</time></trkpt><trkpt lat="45.3951784" lon="10.5517573"><ele>122.5</ele><time>2026-05-03T09:23:00.232Z</time></trkpt><trkpt lat="45.3950581" lon="10.5517219"><ele>122.75</ele><time>2026-05-03T09:23:01.232Z</time></trkpt><trkpt lat="45.3949416" lon="10.5516757"><ele>123.0</ele><time>2026-05-03T09:23:02.232Z</time></trkpt><trkpt lat="45.394819" lon="10.5516442"><ele>123.0</ele><time>2026-05-03T09:23:03.232Z</time></trkpt><trkpt lat="45.3947042" lon="10.5516123"><ele>123.0</ele><time>2026-05-03T09:23:04.232Z</time></trkpt><trkpt lat="45.3945997" lon="10.551597"><ele>123.0</ele><time>2026-05-03T09:23:05.232Z</time></trkpt><trkpt lat="45.3944801" lon="10.5516024"><ele>123.0</ele><time>2026-05-03T09:23:06.232Z</time></trkpt><trkpt lat="45.3943642" lon="10.551608"><ele>121.5</ele><time>2026-05-03T09:23:07.232Z</time></trkpt><trkpt lat="45.3942401" lon="10.5516311"><ele>120.0</ele><time>2026-05-03T09:23:08.232Z</time></trkpt><trkpt lat="45.3941077" lon="10.5516492"><ele>118.5</ele><time>2026-05-03T09:23:09.232Z</time></trkpt><trkpt lat="45.3939708" lon="10.551688"><ele>117.0</ele><time>2026-05-03T09:23:10.232Z</time></trkpt><trkpt lat="45.3938415" lon="10.5517358"><ele>115.75</ele><time>2026-05-03T09:23:11.233Z</time></trkpt><trkpt lat="45.3937235" lon="10.5517917"><ele>114.5</ele><time>2026-05-03T09:23:12.232Z</time></trkpt><trkpt lat="45.3936099" lon="10.5518318"><ele>113.25</ele><time>2026-05-03T09:23:13.232Z</time></trkpt><trkpt lat="45.3934928" lon="10.55186"><ele>112.0</ele><time>2026-05-03T09:23:14.232Z</time></trkpt><trkpt lat="45.3934038" lon="10.5518886"><ele>112.0</ele><time>2026-05-03T09:23:15.232Z</time></trkpt><trkpt lat="45.3933129" lon="10.5518938"><ele>111.99999999999999</ele><time>2026-05-03T09:23:16.232Z</time></trkpt><trkpt lat="45.3932162" lon="10.551908"><ele>111.99999999999999</ele><time>2026-05-03T09:23:17.232Z</time></trkpt><trkpt lat="45.3931212" lon="10.5519027"><ele>112.0</ele><time>2026-05-03T09:23:18.232Z</time></trkpt><trkpt lat="45.3930678" lon="10.5517816"><ele>112.0</ele><time>2026-05-03T09:23:19.233Z</time></trkpt><trkpt lat="45.3929841" lon="10.5516772"><ele>111.5</ele><time>2026-05-03T09:23:20.232Z</time></trkpt><trkpt lat="45.3928613" lon="10.5515806"><ele>111.0</ele><time>2026-05-03T09:23:21.232Z</time></trkpt><trkpt lat="45.3927341" lon="10.5514942"><ele>110.5</ele><time>2026-05-03T09:23:22.232Z</time></trkpt><trkpt lat="45.3925779" lon="10.5514139"><ele>110.0</ele><time>2026-05-03T09:23:23.232Z</time></trkpt><trkpt lat="45.3924046" lon="10.5513514"><ele>110.0</ele><time>2026-05-03T09:23:24.232Z</time></trkpt><trkpt lat="45.3922281" lon="10.5512691"><ele>110.0</ele><time>2026-05-03T09:23:25.232Z</time></trkpt><trkpt lat="45.3920632" lon="10.5512013"><ele>110.0</ele><time>2026-05-03T09:23:26.232Z</time></trkpt><trkpt lat="45.3919047" lon="10.5511176"><ele>112.0</ele><time>2026-05-03T09:23:27.233Z</time></trkpt><trkpt lat="45.3917483" lon="10.5510555"><ele>114.0</ele><time>2026-05-03T09:23:28.232Z</time></trkpt><trkpt lat="45.3915922" lon="10.5510043"><ele>116.0</ele><time>2026-05-03T09:23:29.232Z</time></trkpt><trkpt lat="45.3914401" lon="10.5509432"><ele>116.75</ele><time>2026-05-03T09:23:30.232Z</time></trkpt><trkpt lat="45.3912928" lon="10.5508855"><ele>117.5</ele><time>2026-05-03T09:23:31.232Z</time></trkpt><trkpt lat="45.3911586" lon="10.550817"><ele>118.25</ele><time>2026-05-03T09:23:32.232Z</time></trkpt><trkpt lat="45.3910274" lon="10.5507558"><ele>119.0</ele><time>2026-05-03T09:23:33.232Z</time></trkpt><trkpt lat="45.3909196" lon="10.5507118"><ele>118.99999999999999</ele><time>2026-05-03T09:23:34.232Z</time></trkpt><trkpt lat="45.3908241" lon="10.550668"><ele>119.0</ele><time>2026-05-03T09:23:35.232Z</time></trkpt><trkpt lat="45.3907576" lon="10.5506181"><ele>119.0</ele><time>2026-05-03T09:23:36.232Z</time></trkpt><trkpt lat="45.3906977" lon="10.5505655"><ele>119.0</ele><time>2026-05-03T09:23:37.232Z</time></trkpt><trkpt lat="45.3906537" lon="10.5504744"><ele>118.99999999999999</ele><time>2026-05-03T09:23:38.232Z</time></trkpt><trkpt lat="45.3906257" lon="10.5503577"><ele>119.0</ele><time>2026-05-03T09:23:39.232Z</time></trkpt><trkpt lat="45.3905949" lon="10.5502148"><ele>120.0</ele><time>2026-05-03T09:23:40.232Z</time></trkpt><trkpt lat="45.39056" lon="10.550079"><ele>121.0</ele><time>2026-05-03T09:23:41.232Z</time></trkpt><trkpt lat="45.3905181" lon="10.5499253"><ele>122.0</ele><time>2026-05-03T09:23:42.233Z</time></trkpt><trkpt lat="45.3904729" lon="10.5497502"><ele>123.0</ele><time>2026-05-03T09:23:43.232Z</time></trkpt><trkpt lat="45.3904278" lon="10.5495688"><ele>123.5</ele><time>2026-05-03T09:23:44.232Z</time></trkpt><trkpt lat="45.3903792" lon="10.5493709"><ele>124.0</ele><time>2026-05-03T09:23:45.232Z</time></trkpt><trkpt lat="45.3903294" lon="10.5491874"><ele>124.5</ele><time>2026-05-03T09:23:46.232Z</time></trkpt><trkpt lat="45.3902812" lon="10.5490104"><ele>125.0</ele><time>2026-05-03T09:23:47.232Z</time></trkpt><trkpt lat="45.3902357" lon="10.5488329"><ele>123.75</ele><time>2026-05-03T09:23:48.232Z</time></trkpt><trkpt lat="45.3901888" lon="10.5486645"><ele>122.5</ele><time>2026-05-03T09:23:49.232Z</time></trkpt><trkpt lat="45.3901374" lon="10.548481"><ele>121.25</ele><time>2026-05-03T09:23:50.233Z</time></trkpt><trkpt lat="45.3900832" lon="10.548279"><ele>120.0</ele><time>2026-05-03T09:23:51.232Z</time></trkpt><trkpt lat="45.3900237" lon="10.5480672"><ele>120.0</ele><time>2026-05-03T09:23:52.232Z</time></trkpt><trkpt lat="45.389966" lon="10.5478461"><ele>120.0</ele><time>2026-05-03T09:23:53.232Z</time></trkpt><trkpt lat="45.3899053" lon="10.5476278"><ele>120.0</ele><time>2026-05-03T09:23:54.232Z</time></trkpt><trkpt lat="45.3898419" lon="10.5474175"><ele>120.0</ele><time>2026-05-03T09:23:55.232Z</time></trkpt><trkpt lat="45.3897763" lon="10.5472085"><ele>120.0</ele><time>2026-05-03T09:23:56.232Z</time></trkpt><trkpt lat="45.3897132" lon="10.5470064"><ele>120.0</ele><time>2026-05-03T09:23:57.233Z</time></trkpt><trkpt lat="45.3896515" lon="10.546807"><ele>119.75</ele><time>2026-05-03T09:23:58.233Z</time></trkpt><trkpt lat="45.3895859" lon="10.5466066"><ele>119.5</ele><time>2026-05-03T09:23:59.232Z</time></trkpt><trkpt lat="45.3895182" lon="10.5464139"><ele>119.25</ele><time>2026-05-03T09:24:00.232Z</time></trkpt><trkpt lat="45.3894582" lon="10.5462352"><ele>119.0</ele><time>2026-05-03T09:24:01.232Z</time></trkpt><trkpt lat="45.3894082" lon="10.5460694"><ele>120.5</ele><time>2026-05-03T09:24:02.232Z</time></trkpt><trkpt lat="45.3893591" lon="10.545901"><ele>122.0</ele><time>2026-05-03T09:24:03.232Z</time></trkpt><trkpt lat="45.3893036" lon="10.545749"><ele>123.5</ele><time>2026-05-03T09:24:04.232Z</time></trkpt><trkpt lat="45.3892515" lon="10.545609"><ele>125.0</ele><time>2026-05-03T09:24:05.233Z</time></trkpt><trkpt lat="45.3891972" lon="10.5454779"><ele>125.83333333333333</ele><time>2026-05-03T09:24:06.232Z</time></trkpt><trkpt lat="45.3891546" lon="10.5453605"><ele>126.66666666666666</ele><time>2026-05-03T09:24:07.232Z</time></trkpt><trkpt lat="45.3891213" lon="10.5452625"><ele>127.5</ele><time>2026-05-03T09:24:08.232Z</time></trkpt><trkpt lat="45.389094" lon="10.5451761"><ele>128.33333333333334</ele><time>2026-05-03T09:24:09.233Z</time></trkpt><trkpt lat="45.3890583" lon="10.5450588"><ele>129.16666666666669</ele><time>2026-05-03T09:24:11.232Z</time></trkpt><trkpt lat="45.3890066" lon="10.545004"><ele>130.0</ele><time>2026-05-03T09:24:14.232Z</time></trkpt><trkpt lat="45.3889196" lon="10.5450891"><ele>129.4</ele><time>2026-05-03T09:24:17.232Z</time></trkpt><trkpt lat="45.3888333" lon="10.5452186"><ele>128.8</ele><time>2026-05-03T09:24:19.232Z</time></trkpt><trkpt lat="45.3887788" lon="10.5452984"><ele>128.2</ele><time>2026-05-03T09:24:20.232Z</time></trkpt><trkpt lat="45.3887141" lon="10.5453924"><ele>127.6</ele><time>2026-05-03T09:24:21.232Z</time></trkpt><trkpt lat="45.38864" lon="10.5455019"><ele>127.0</ele><time>2026-05-03T09:24:22.232Z</time></trkpt><trkpt lat="45.3885549" lon="10.5455954"><ele>126.19999999999999</ele><time>2026-05-03T09:24:23.233Z</time></trkpt><trkpt lat="45.388486" lon="10.5457071"><ele>125.39999999999999</ele><time>2026-05-03T09:24:24.232Z</time></trkpt><trkpt lat="45.3884161" lon="10.5458066"><ele>124.60000000000001</ele><time>2026-05-03T09:24:25.232Z</time></trkpt><trkpt lat="45.3883516" lon="10.545914"><ele>123.80000000000001</ele><time>2026-05-03T09:24:26.233Z</time></trkpt><trkpt lat="45.38827" lon="10.545997"><ele>123.0</ele><time>2026-05-03T09:24:27.232Z</time></trkpt><trkpt lat="45.3881851" lon="10.5460811"><ele>123.0</ele><time>2026-05-03T09:24:28.232Z</time></trkpt><trkpt lat="45.3881077" lon="10.5461735"><ele>123.00000000000001</ele><time>2026-05-03T09:24:29.232Z</time></trkpt><trkpt lat="45.3880258" lon="10.5462587"><ele>123.00000000000001</ele><time>2026-05-03T09:24:30.232Z</time></trkpt><trkpt lat="45.3879595" lon="10.5463475"><ele>123.0</ele><time>2026-05-03T09:24:31.233Z</time></trkpt><trkpt lat="45.3878878" lon="10.5464321"><ele>123.0</ele><time>2026-05-03T09:24:32.232Z</time></trkpt><trkpt lat="45.3878122" lon="10.5465011"><ele>123.2</ele><time>2026-05-03T09:24:33.233Z</time></trkpt><trkpt lat="45.3877368" lon="10.546565"><ele>123.4</ele><time>2026-05-03T09:24:34.232Z</time></trkpt><trkpt lat="45.3876584" lon="10.5466217"><ele>123.60000000000001</ele><time>2026-05-03T09:24:35.232Z</time></trkpt><trkpt lat="45.3875825" lon="10.5466746"><ele>123.80000000000001</ele><time>2026-05-03T09:24:36.232Z</time></trkpt><trkpt lat="45.3875194" lon="10.5467298"><ele>124.0</ele><time>2026-05-03T09:24:37.232Z</time></trkpt><trkpt lat="45.3874165" lon="10.5468174"><ele>124.0</ele><time>2026-05-03T09:24:39.232Z</time></trkpt><trkpt lat="45.3873267" lon="10.5468974"><ele>124.0</ele><time>2026-05-03T09:24:41.232Z</time></trkpt><trkpt lat="45.3872408" lon="10.5469859"><ele>124.0</ele><time>2026-05-03T09:24:43.232Z</time></trkpt><trkpt lat="45.3871343" lon="10.5470809"><ele>124.0</ele><time>2026-05-03T09:24:45.232Z</time></trkpt><trkpt lat="45.3870731" lon="10.547134"><ele>124.0</ele><time>2026-05-03T09:24:46.232Z</time></trkpt><trkpt lat="45.3870096" lon="10.5471963"><ele>124.2</ele><time>2026-05-03T09:24:47.232Z</time></trkpt><trkpt lat="45.3869382" lon="10.5472689"><ele>124.4</ele><time>2026-05-03T09:24:48.232Z</time></trkpt><trkpt lat="45.3868595" lon="10.5473542"><ele>124.6</ele><time>2026-05-03T09:24:49.233Z</time></trkpt><trkpt lat="45.3867816" lon="10.5474366"><ele>124.8</ele><time>2026-05-03T09:24:50.232Z</time></trkpt><trkpt lat="45.3867104" lon="10.5475106"><ele>125.0</ele><time>2026-05-03T09:24:51.232Z</time></trkpt><trkpt lat="45.3866403" lon="10.5475908"><ele>125.0</ele><time>2026-05-03T09:24:52.232Z</time></trkpt><trkpt lat="45.3865708" lon="10.5476782"><ele>125.0</ele><time>2026-05-03T09:24:53.232Z</time></trkpt><trkpt lat="45.3864991" lon="10.5477522"><ele>125.0</ele><time>2026-05-03T09:24:54.232Z</time></trkpt><trkpt lat="45.3864192" lon="10.5478267"><ele>125.0</ele><time>2026-05-03T09:24:55.232Z</time></trkpt><trkpt lat="45.3863305" lon="10.5479075"><ele>125.0</ele><time>2026-05-03T09:24:56.232Z</time></trkpt><trkpt lat="45.3862448" lon="10.5479856"><ele>125.0</ele><time>2026-05-03T09:24:57.233Z</time></trkpt><trkpt lat="45.3861609" lon="10.5480682"><ele>125.0</ele><time>2026-05-03T09:24:58.232Z</time></trkpt><trkpt lat="45.3860799" lon="10.5481385"><ele>125.0</ele><time>2026-05-03T09:24:59.232Z</time></trkpt><trkpt lat="45.3859875" lon="10.548197"><ele>125.0</ele><time>2026-05-03T09:25:00.232Z</time></trkpt><trkpt lat="45.3859051" lon="10.5482488"><ele>125.0</ele><time>2026-05-03T09:25:01.232Z</time></trkpt><trkpt lat="45.3858252" lon="10.5483137"><ele>125.0</ele><time>2026-05-03T09:25:02.233Z</time></trkpt><trkpt lat="45.3857504" lon="10.5483791"><ele>125.0</ele><time>2026-05-03T09:25:03.232Z</time></trkpt><trkpt lat="45.3856759" lon="10.5484665"><ele>125.0</ele><time>2026-05-03T09:25:04.232Z</time></trkpt><trkpt lat="45.3855971" lon="10.5485714"><ele>125.0</ele><time>2026-05-03T09:25:05.232Z</time></trkpt><trkpt lat="45.3855257" lon="10.5486801"><ele>125.0</ele><time>2026-05-03T09:25:06.232Z</time></trkpt><trkpt lat="45.3854611" lon="10.5487889"><ele>125.66666666666666</ele><time>2026-05-03T09:25:07.232Z</time></trkpt><trkpt lat="45.3853883" lon="10.5488842"><ele>126.33333333333333</ele><time>2026-05-03T09:25:08.232Z</time></trkpt><trkpt lat="45.3853307" lon="10.5489719"><ele>127.0</ele><time>2026-05-03T09:25:09.233Z</time></trkpt><trkpt lat="45.385271" lon="10.5490536"><ele>127.66666666666666</ele><time>2026-05-03T09:25:10.232Z</time></trkpt><trkpt lat="45.3852153" lon="10.5491129"><ele>128.33333333333334</ele><time>2026-05-03T09:25:11.232Z</time></trkpt><trkpt lat="45.3851222" lon="10.5491997"><ele>129.0</ele><time>2026-05-03T09:25:13.232Z</time></trkpt><trkpt lat="45.3850291" lon="10.5492125"><ele>129.0</ele><time>2026-05-03T09:25:15.232Z</time></trkpt><trkpt lat="45.384926" lon="10.5491786"><ele>129.0</ele><time>2026-05-03T09:25:17.232Z</time></trkpt><trkpt lat="45.3848539" lon="10.5491714"><ele>129.0</ele><time>2026-05-03T09:25:19.233Z</time></trkpt><trkpt lat="45.3847372" lon="10.5491507"><ele>129.0</ele><time>2026-05-03T09:25:21.232Z</time></trkpt><trkpt lat="45.3846462" lon="10.5491203"><ele>129.0</ele><time>2026-05-03T09:25:22.232Z</time></trkpt><trkpt lat="45.3845709" lon="10.5490741"><ele>129.0</ele><time>2026-05-03T09:25:23.232Z</time></trkpt><trkpt lat="45.3844891" lon="10.5490044"><ele>129.0</ele><time>2026-05-03T09:25:24.233Z</time></trkpt><trkpt lat="45.3844299" lon="10.5489404"><ele>129.0</ele><time>2026-05-03T09:25:25.232Z</time></trkpt><trkpt lat="45.3843606" lon="10.548875"><ele>129.0</ele><time>2026-05-03T09:25:26.232Z</time></trkpt><trkpt lat="45.3842834" lon="10.5488332"><ele>129.0</ele><time>2026-05-03T09:25:27.232Z</time></trkpt><trkpt lat="45.384212" lon="10.5488207"><ele>129.0</ele><time>2026-05-03T09:25:28.233Z</time></trkpt><trkpt lat="45.3841298" lon="10.5487845"><ele>127.33333333333333</ele><time>2026-05-03T09:25:29.232Z</time></trkpt><trkpt lat="45.3840304" lon="10.548707"><ele>125.66666666666666</ele><time>2026-05-03T09:25:31.232Z</time></trkpt><trkpt lat="45.3839844" lon="10.5485964"><ele>124.0</ele><time>2026-05-03T09:25:33.232Z</time></trkpt><trkpt lat="45.383929" lon="10.5485059"><ele>122.33333333333333</ele><time>2026-05-03T09:25:36.232Z</time></trkpt><trkpt lat="45.3838861" lon="10.5484366"><ele>120.66666666666666</ele><time>2026-05-03T09:25:39.232Z</time></trkpt><trkpt lat="45.3838286" lon="10.5483552"><ele>119.0</ele><time>2026-05-03T09:25:42.232Z</time></trkpt><trkpt lat="45.383782" lon="10.5482938"><ele>118.80000000000001</ele><time>2026-05-03T09:25:44.232Z</time></trkpt><trkpt lat="45.3837117" lon="10.5482072"><ele>118.60000000000001</ele><time>2026-05-03T09:25:46.232Z</time></trkpt><trkpt lat="45.3836161" lon="10.5480891"><ele>118.4</ele><time>2026-05-03T09:25:48.232Z</time></trkpt><trkpt lat="45.3835555" lon="10.5480053"><ele>118.2</ele><time>2026-05-03T09:25:49.232Z</time></trkpt><trkpt lat="45.3834797" lon="10.5479032"><ele>118.0</ele><time>2026-05-03T09:25:50.232Z</time></trkpt><trkpt lat="45.3834021" lon="10.5477872"><ele>117.5</ele><time>2026-05-03T09:25:51.233Z</time></trkpt><trkpt lat="45.3833296" lon="10.5476649"><ele>117.0</ele><time>2026-05-03T09:25:52.232Z</time></trkpt><trkpt lat="45.383254" lon="10.5475015"><ele>116.5</ele><time>2026-05-03T09:25:53.232Z</time></trkpt><trkpt lat="45.3831896" lon="10.5473329"><ele>116.0</ele><time>2026-05-03T09:25:54.232Z</time></trkpt><trkpt lat="45.3831383" lon="10.547179"><ele>115.75</ele><time>2026-05-03T09:25:55.232Z</time></trkpt><trkpt lat="45.3830894" lon="10.547027"><ele>115.5</ele><time>2026-05-03T09:25:56.232Z</time></trkpt><trkpt lat="45.3830405" lon="10.5468775"><ele>115.25</ele><time>2026-05-03T09:25:57.232Z</time></trkpt><trkpt lat="45.3829914" lon="10.5467292"><ele>115.0</ele><time>2026-05-03T09:25:58.232Z</time></trkpt><trkpt lat="45.3829354" lon="10.5465842"><ele>115.2</ele><time>2026-05-03T09:25:59.232Z</time></trkpt><trkpt lat="45.3828856" lon="10.546449"><ele>115.4</ele><time>2026-05-03T09:26:00.232Z</time></trkpt><trkpt lat="45.3828384" lon="10.5463114"><ele>115.6</ele><time>2026-05-03T09:26:01.232Z</time></trkpt><trkpt lat="45.3827964" lon="10.5461884"><ele>115.8</ele><time>2026-05-03T09:26:02.232Z</time></trkpt><trkpt lat="45.3827551" lon="10.54608"><ele>116.0</ele><time>2026-05-03T09:26:03.232Z</time></trkpt><trkpt lat="45.3827219" lon="10.5459975"><ele>116.0</ele><time>2026-05-03T09:26:04.233Z</time></trkpt><trkpt lat="45.3826493" lon="10.5458698"><ele>116.0</ele><time>2026-05-03T09:26:06.232Z</time></trkpt><trkpt lat="45.3825883" lon="10.5457614"><ele>116.0</ele><time>2026-05-03T09:26:08.232Z</time></trkpt><trkpt lat="45.3825268" lon="10.5456481"><ele>116.0</ele><time>2026-05-03T09:26:10.232Z</time></trkpt><trkpt lat="45.3824501" lon="10.5455265"><ele>116.0</ele><time>2026-05-03T09:26:12.232Z</time></trkpt><trkpt lat="45.3824102" lon="10.5454559"><ele>115.99999999999999</ele><time>2026-05-03T09:26:13.232Z</time></trkpt><trkpt lat="45.382364" lon="10.5453862"><ele>116.0</ele><time>2026-05-03T09:26:14.232Z</time></trkpt><trkpt lat="45.3823143" lon="10.5453069"><ele>116.0</ele><time>2026-05-03T09:26:15.233Z</time></trkpt><trkpt lat="45.3822582" lon="10.5452208"><ele>116.0</ele><time>2026-05-03T09:26:16.233Z</time></trkpt><trkpt lat="45.3821965" lon="10.5451288"><ele>115.99999999999999</ele><time>2026-05-03T09:26:17.232Z</time></trkpt><trkpt lat="45.3821366" lon="10.5450355"><ele>116.0</ele><time>2026-05-03T09:26:18.232Z</time></trkpt><trkpt lat="45.3820884" lon="10.5449552"><ele>115.99999999999999</ele><time>2026-05-03T09:26:19.232Z</time></trkpt><trkpt lat="45.3820287" lon="10.5448775"><ele>116.0</ele><time>2026-05-03T09:26:20.232Z</time></trkpt><trkpt lat="45.3819726" lon="10.5447998"><ele>116.0</ele><time>2026-05-03T09:26:21.232Z</time></trkpt><trkpt lat="45.3819302" lon="10.5447301"><ele>116.0</ele><time>2026-05-03T09:26:22.232Z</time></trkpt><trkpt lat="45.3818464" lon="10.5446291"><ele>115.99999999999999</ele><time>2026-05-03T09:26:24.233Z</time></trkpt><trkpt lat="45.3817654" lon="10.5446043"><ele>116.0</ele><time>2026-05-03T09:26:26.233Z</time></trkpt><trkpt lat="45.3816767" lon="10.5445041"><ele>115.83333333333333</ele><time>2026-05-03T09:26:28.232Z</time></trkpt><trkpt lat="45.3816338" lon="10.5444261"><ele>115.66666666666666</ele><time>2026-05-03T09:26:29.232Z</time></trkpt><trkpt lat="45.3816064" lon="10.5443414"><ele>115.5</ele><time>2026-05-03T09:26:30.232Z</time></trkpt><trkpt lat="45.3815546" lon="10.544255"><ele>115.33333333333334</ele><time>2026-05-03T09:26:31.232Z</time></trkpt><trkpt lat="45.3815083" lon="10.5441492"><ele>115.16666666666667</ele><time>2026-05-03T09:26:32.232Z</time></trkpt><trkpt lat="45.3814809" lon="10.5440477"><ele>115.0</ele><time>2026-05-03T09:26:33.232Z</time></trkpt><trkpt lat="45.3814953" lon="10.5439197"><ele>115.00000000000001</ele><time>2026-05-03T09:26:34.232Z</time></trkpt><trkpt lat="45.3814803" lon="10.5437897"><ele>115.0</ele><time>2026-05-03T09:26:35.232Z</time></trkpt><trkpt lat="45.3814754" lon="10.5436583"><ele>115.0</ele><time>2026-05-03T09:26:36.233Z</time></trkpt><trkpt lat="45.381468" lon="10.543533"><ele>115.0</ele><time>2026-05-03T09:26:37.232Z</time></trkpt><trkpt lat="45.3814578" lon="10.5434214"><ele>115.00000000000001</ele><time>2026-05-03T09:26:38.233Z</time></trkpt><trkpt lat="45.3814552" lon="10.5433123"><ele>115.0</ele><time>2026-05-03T09:26:39.232Z</time></trkpt><trkpt lat="45.3814443" lon="10.54321"><ele>114.66666666666667</ele><time>2026-05-03T09:26:40.232Z</time></trkpt><trkpt lat="45.3814326" lon="10.543108"><ele>114.33333333333334</ele><time>2026-05-03T09:26:41.233Z</time></trkpt><trkpt lat="45.3814236" lon="10.5429963"><ele>114.0</ele><time>2026-05-03T09:26:42.232Z</time></trkpt><trkpt lat="45.3814107" lon="10.5428949"><ele>113.66666666666666</ele><time>2026-05-03T09:26:43.232Z</time></trkpt><trkpt lat="45.3813969" lon="10.5427864"><ele>113.33333333333333</ele><time>2026-05-03T09:26:44.233Z</time></trkpt><trkpt lat="45.381393" lon="10.5426964"><ele>113.0</ele><time>2026-05-03T09:26:45.232Z</time></trkpt><trkpt lat="45.3813859" lon="10.542576"><ele>113.66666666666666</ele><time>2026-05-03T09:26:46.232Z</time></trkpt><trkpt lat="45.3813698" lon="10.542443"><ele>114.33333333333333</ele><time>2026-05-03T09:26:47.232Z</time></trkpt><trkpt lat="45.3813631" lon="10.5423185"><ele>115.0</ele><time>2026-05-03T09:26:48.233Z</time></trkpt><trkpt lat="45.3813626" lon="10.5422248"><ele>115.66666666666666</ele><time>2026-05-03T09:26:49.232Z</time></trkpt><trkpt lat="45.3813522" lon="10.5421274"><ele>116.33333333333333</ele><time>2026-05-03T09:26:50.232Z</time></trkpt><trkpt lat="45.3813388" lon="10.5419928"><ele>117.0</ele><time>2026-05-03T09:26:52.232Z</time></trkpt><trkpt lat="45.3812736" lon="10.541849"><ele>119.16666666666667</ele><time>2026-05-03T09:26:54.232Z</time></trkpt><trkpt lat="45.3812164" lon="10.5418027"><ele>121.33333333333334</ele><time>2026-05-03T09:26:55.232Z</time></trkpt><trkpt lat="45.3811177" lon="10.5417674"><ele>123.5</ele><time>2026-05-03T09:26:57.232Z</time></trkpt><trkpt lat="45.3810556" lon="10.5417457"><ele>125.66666666666667</ele><time>2026-05-03T09:26:58.232Z</time></trkpt><trkpt lat="45.3809297" lon="10.5417216"><ele>127.83333333333334</ele><time>2026-05-03T09:27:00.232Z</time></trkpt><trkpt lat="45.3808478" lon="10.5417302"><ele>130.0</ele><time>2026-05-03T09:27:02.232Z</time></trkpt><trkpt lat="45.3807401" lon="10.5417346"><ele>130.0</ele><time>2026-05-03T09:27:04.232Z</time></trkpt><trkpt lat="45.3806746" lon="10.5417226"><ele>130.0</ele><time>2026-05-03T09:27:05.232Z</time></trkpt><trkpt lat="45.3805826" lon="10.5418194"><ele>130.0</ele><time>2026-05-03T09:27:06.232Z</time></trkpt><trkpt lat="45.3805198" lon="10.5418585"><ele>130.0</ele><time>2026-05-03T09:27:07.233Z</time></trkpt><trkpt lat="45.3804505" lon="10.541988"><ele>130.0</ele><time>2026-05-03T09:27:08.232Z</time></trkpt><trkpt lat="45.380393" lon="10.5420335"><ele>130.0</ele><time>2026-05-03T09:27:09.233Z</time></trkpt><trkpt lat="45.3802808" lon="10.5420885"><ele>128.25</ele><time>2026-05-03T09:27:11.232Z</time></trkpt><trkpt lat="45.3801826" lon="10.5421293"><ele>126.5</ele><time>2026-05-03T09:27:13.232Z</time></trkpt><trkpt lat="45.3800881" lon="10.5422274"><ele>124.75</ele><time>2026-05-03T09:27:15.233Z</time></trkpt><trkpt lat="45.3799582" lon="10.5423555"><ele>123.0</ele><time>2026-05-03T09:27:17.232Z</time></trkpt><trkpt lat="45.3798522" lon="10.5424718"><ele>123.0</ele><time>2026-05-03T09:27:19.232Z</time></trkpt><trkpt lat="45.3798171" lon="10.5425513"><ele>123.0</ele><time>2026-05-03T09:27:20.232Z</time></trkpt><trkpt lat="45.3797666" lon="10.5426418"><ele>123.0</ele><time>2026-05-03T09:27:21.232Z</time></trkpt><trkpt lat="45.3797059" lon="10.5427302"><ele>123.0</ele><time>2026-05-03T09:27:22.232Z</time></trkpt><trkpt lat="45.3796431" lon="10.5428508"><ele>123.0</ele><time>2026-05-03T09:27:23.232Z</time></trkpt><trkpt lat="45.3795889" lon="10.5429537"><ele>123.0</ele><time>2026-05-03T09:27:24.232Z</time></trkpt><trkpt lat="45.3795457" lon="10.5430256"><ele>124.83333333333333</ele><time>2026-05-03T09:27:25.232Z</time></trkpt><trkpt lat="45.3795101" lon="10.5431057"><ele>126.66666666666666</ele><time>2026-05-03T09:27:26.232Z</time></trkpt><trkpt lat="45.3794868" lon="10.543211"><ele>128.5</ele><time>2026-05-03T09:27:27.232Z</time></trkpt><trkpt lat="45.3794552" lon="10.5433338"><ele>130.33333333333331</ele><time>2026-05-03T09:27:32.232Z</time></trkpt><trkpt lat="45.3794423" lon="10.5434271"><ele>132.16666666666666</ele><time>2026-05-03T09:27:33.232Z</time></trkpt><trkpt lat="45.379389" lon="10.5435913"><ele>134.0</ele><time>2026-05-03T09:27:35.233Z</time></trkpt><trkpt lat="45.3793509" lon="10.5436841"><ele>133.8</ele><time>2026-05-03T09:27:36.233Z</time></trkpt><trkpt lat="45.3793136" lon="10.5437769"><ele>133.60000000000002</ele><time>2026-05-03T09:27:37.232Z</time></trkpt><trkpt lat="45.379261" lon="10.5439102"><ele>133.4</ele><time>2026-05-03T09:27:39.232Z</time></trkpt><trkpt lat="45.3792287" lon="10.5440234"><ele>133.20000000000002</ele><time>2026-05-03T09:27:41.232Z</time></trkpt><trkpt lat="45.3792494" lon="10.5441735"><ele>133.0</ele><time>2026-05-03T09:27:43.232Z</time></trkpt><trkpt lat="45.3792383" lon="10.5442965"><ele>133.0</ele><time>2026-05-03T09:27:45.232Z</time></trkpt><trkpt lat="45.3791927" lon="10.5443889"><ele>133.0</ele><time>2026-05-03T09:27:48.232Z</time></trkpt><trkpt lat="45.3790604" lon="10.5444093"><ele>133.0</ele><time>2026-05-03T09:27:50.232Z</time></trkpt><trkpt lat="45.3789811" lon="10.5444046"><ele>133.0</ele><time>2026-05-03T09:27:51.232Z</time></trkpt><trkpt lat="45.3788685" lon="10.5444041"><ele>133.0</ele><time>2026-05-03T09:27:52.232Z</time></trkpt><trkpt lat="45.3787824" lon="10.5443882"><ele>135.0</ele><time>2026-05-03T09:27:53.232Z</time></trkpt><trkpt lat="45.3786946" lon="10.544382"><ele>137.0</ele><time>2026-05-03T09:27:54.232Z</time></trkpt><trkpt lat="45.3786061" lon="10.5443646"><ele>139.0</ele><time>2026-05-03T09:27:55.232Z</time></trkpt><trkpt lat="45.3785235" lon="10.5443685"><ele>141.0</ele><time>2026-05-03T09:27:56.232Z</time></trkpt><trkpt lat="45.3784409" lon="10.5443737"><ele>143.0</ele><time>2026-05-03T09:27:57.232Z</time></trkpt><trkpt lat="45.3783541" lon="10.5443888"><ele>145.0</ele><time>2026-05-03T09:27:58.233Z</time></trkpt><trkpt lat="45.3782763" lon="10.5443843"><ele>145.0</ele><time>2026-05-03T09:27:59.232Z</time></trkpt><trkpt lat="45.3782023" lon="10.5443849"><ele>145.0</ele><time>2026-05-03T09:28:00.232Z</time></trkpt><trkpt lat="45.3781193" lon="10.5444038"><ele>145.0</ele><time>2026-05-03T09:28:02.233Z</time></trkpt><trkpt lat="45.3780599" lon="10.5444354"><ele>145.0</ele><time>2026-05-03T09:28:23.232Z</time></trkpt><trkpt lat="45.3780034" lon="10.5445835"><ele>145.0</ele><time>2026-05-03T09:28:25.232Z</time></trkpt><trkpt lat="45.3779663" lon="10.5446887"><ele>145.0</ele><time>2026-05-03T09:28:26.232Z</time></trkpt><trkpt lat="45.3779285" lon="10.5447876"><ele>144.0</ele><time>2026-05-03T09:28:27.232Z</time></trkpt><trkpt lat="45.3778672" lon="10.5448959"><ele>143.0</ele><time>2026-05-03T09:28:28.232Z</time></trkpt><trkpt lat="45.3777736" lon="10.5450273"><ele>142.0</ele><time>2026-05-03T09:28:29.232Z</time></trkpt><trkpt lat="45.377683" lon="10.5451859"><ele>141.0</ele><time>2026-05-03T09:28:30.232Z</time></trkpt><trkpt lat="45.3776083" lon="10.5453866"><ele>140.0</ele><time>2026-05-03T09:28:31.232Z</time></trkpt><trkpt lat="45.3775269" lon="10.5455593"><ele>139.0</ele><time>2026-05-03T09:28:32.232Z</time></trkpt><trkpt lat="45.3774902" lon="10.5457293"><ele>138.0</ele><time>2026-05-03T09:28:33.232Z</time></trkpt><trkpt lat="45.3774312" lon="10.5458842"><ele>137.0</ele><time>2026-05-03T09:28:34.232Z</time></trkpt><trkpt lat="45.3773932" lon="10.5460008"><ele>137.0</ele><time>2026-05-03T09:28:35.232Z</time></trkpt><trkpt lat="45.377345" lon="10.5461019"><ele>137.0</ele><time>2026-05-03T09:28:36.233Z</time></trkpt><trkpt lat="45.3772812" lon="10.5461797"><ele>137.0</ele><time>2026-05-03T09:28:37.232Z</time></trkpt><trkpt lat="45.3772131" lon="10.5462442"><ele>137.0</ele><time>2026-05-03T09:28:38.232Z</time></trkpt><trkpt lat="45.377135" lon="10.5463202"><ele>137.0</ele><time>2026-05-03T09:28:39.232Z</time></trkpt><trkpt lat="45.3770483" lon="10.5463863"><ele>137.0</ele><time>2026-05-03T09:28:40.232Z</time></trkpt><trkpt lat="45.3769605" lon="10.5464675"><ele>137.66666666666666</ele><time>2026-05-03T09:28:41.232Z</time></trkpt><trkpt lat="45.37688" lon="10.5465253"><ele>138.33333333333331</ele><time>2026-05-03T09:28:42.232Z</time></trkpt><trkpt lat="45.3767957" lon="10.5465667"><ele>139.0</ele><time>2026-05-03T09:28:43.232Z</time></trkpt><trkpt lat="45.3767131" lon="10.5465901"><ele>139.66666666666666</ele><time>2026-05-03T09:28:44.232Z</time></trkpt><trkpt lat="45.3766274" lon="10.5466242"><ele>140.33333333333334</ele><time>2026-05-03T09:28:45.232Z</time></trkpt><trkpt lat="45.3765403" lon="10.5466582"><ele>141.0</ele><time>2026-05-03T09:28:46.233Z</time></trkpt><trkpt lat="45.3764441" lon="10.5466992"><ele>141.0</ele><time>2026-05-03T09:28:47.232Z</time></trkpt><trkpt lat="45.3763705" lon="10.546745"><ele>141.0</ele><time>2026-05-03T09:28:48.233Z</time></trkpt><trkpt lat="45.3762929" lon="10.5467857"><ele>141.0</ele><time>2026-05-03T09:28:49.232Z</time></trkpt><trkpt lat="45.3762088" lon="10.546843"><ele>141.0</ele><time>2026-05-03T09:28:50.232Z</time></trkpt><trkpt lat="45.3761348" lon="10.5468835"><ele>141.0</ele><time>2026-05-03T09:28:51.232Z</time></trkpt><trkpt lat="45.3760761" lon="10.5469311"><ele>141.0</ele><time>2026-05-03T09:28:52.232Z</time></trkpt><trkpt lat="45.3760125" lon="10.54698"><ele>141.4</ele><time>2026-05-03T09:28:53.232Z</time></trkpt><trkpt lat="45.375952" lon="10.547041"><ele>141.8</ele><time>2026-05-03T09:28:54.232Z</time></trkpt><trkpt lat="45.3758353" lon="10.5470831"><ele>142.20000000000002</ele><time>2026-05-03T09:28:56.232Z</time></trkpt><trkpt lat="45.3757181" lon="10.5470749"><ele>142.6</ele><time>2026-05-03T09:28:58.232Z</time></trkpt><trkpt lat="45.3756299" lon="10.5471313"><ele>143.0</ele><time>2026-05-03T09:29:00.232Z</time></trkpt><trkpt lat="45.3756125" lon="10.5472789"><ele>143.6</ele><time>2026-05-03T09:29:02.232Z</time></trkpt><trkpt lat="45.3756071" lon="10.5474298"><ele>144.20000000000002</ele><time>2026-05-03T09:29:03.232Z</time></trkpt><trkpt lat="45.3756034" lon="10.5475448"><ele>144.8</ele><time>2026-05-03T09:29:04.232Z</time></trkpt><trkpt lat="45.3756034" lon="10.5476594"><ele>145.4</ele><time>2026-05-03T09:29:05.232Z</time></trkpt><trkpt lat="45.3756323" lon="10.5478054"><ele>146.0</ele><time>2026-05-03T09:29:06.233Z</time></trkpt><trkpt lat="45.3756445" lon="10.5479503"><ele>147.2</ele><time>2026-05-03T09:29:07.232Z</time></trkpt><trkpt lat="45.3756705" lon="10.5480875"><ele>148.39999999999998</ele><time>2026-05-03T09:29:08.232Z</time></trkpt><trkpt lat="45.3756825" lon="10.5482561"><ele>149.6</ele><time>2026-05-03T09:29:09.232Z</time></trkpt><trkpt lat="45.3757081" lon="10.5484164"><ele>150.79999999999998</ele><time>2026-05-03T09:29:10.232Z</time></trkpt><trkpt lat="45.3757302" lon="10.5485605"><ele>152.0</ele><time>2026-05-03T09:29:11.232Z</time></trkpt><trkpt lat="45.375753" lon="10.5487318"><ele>152.79999999999998</ele><time>2026-05-03T09:29:12.232Z</time></trkpt><trkpt lat="45.375772" lon="10.548885"><ele>153.6</ele><time>2026-05-03T09:29:13.232Z</time></trkpt><trkpt lat="45.3758107" lon="10.5490259"><ele>154.39999999999998</ele><time>2026-05-03T09:29:14.232Z</time></trkpt><trkpt lat="45.3758419" lon="10.5491644"><ele>155.2</ele><time>2026-05-03T09:29:15.232Z</time></trkpt><trkpt lat="45.3758631" lon="10.5492971"><ele>156.0</ele><time>2026-05-03T09:29:16.232Z</time></trkpt><trkpt lat="45.3758761" lon="10.5494444"><ele>157.4</ele><time>2026-05-03T09:29:17.232Z</time></trkpt><trkpt lat="45.3758772" lon="10.5495949"><ele>158.8</ele><time>2026-05-03T09:29:18.233Z</time></trkpt><trkpt lat="45.3758995" lon="10.5497517"><ele>160.20000000000002</ele><time>2026-05-03T09:29:19.232Z</time></trkpt><trkpt lat="45.3759137" lon="10.5499151"><ele>161.6</ele><time>2026-05-03T09:29:20.232Z</time></trkpt><trkpt lat="45.3759263" lon="10.550038"><ele>163.0</ele><time>2026-05-03T09:29:21.232Z</time></trkpt><trkpt lat="45.3759251" lon="10.5501609"><ele>163.0</ele><time>2026-05-03T09:29:22.232Z</time></trkpt><trkpt lat="45.375941" lon="10.5502688"><ele>163.0</ele><time>2026-05-03T09:29:23.232Z</time></trkpt><trkpt lat="45.375949" lon="10.5503659"><ele>163.0</ele><time>2026-05-03T09:29:24.232Z</time></trkpt><trkpt lat="45.3759647" lon="10.5505307"><ele>163.0</ele><time>2026-05-03T09:29:26.232Z</time></trkpt><trkpt lat="45.3759959" lon="10.5506147"><ele>163.0</ele><time>2026-05-03T09:29:27.233Z</time></trkpt><trkpt lat="45.3760471" lon="10.5507903"><ele>163.83333333333334</ele><time>2026-05-03T09:29:29.232Z</time></trkpt><trkpt lat="45.3760688" lon="10.5508945"><ele>164.66666666666669</ele><time>2026-05-03T09:29:30.232Z</time></trkpt><trkpt lat="45.3760916" lon="10.5509902"><ele>165.5</ele><time>2026-05-03T09:29:32.232Z</time></trkpt><trkpt lat="45.3760848" lon="10.5510807"><ele>166.33333333333334</ele><time>2026-05-03T09:29:33.232Z</time></trkpt><trkpt lat="45.3760686" lon="10.5512555"><ele>167.16666666666666</ele><time>2026-05-03T09:29:35.232Z</time></trkpt><trkpt lat="45.3760565" lon="10.5513631"><ele>168.0</ele><time>2026-05-03T09:29:38.232Z</time></trkpt><trkpt lat="45.3760587" lon="10.5515167"><ele>169.0</ele><time>2026-05-03T09:29:40.232Z</time></trkpt><trkpt lat="45.3760487" lon="10.551641"><ele>170.0</ele><time>2026-05-03T09:29:41.232Z</time></trkpt><trkpt lat="45.3760445" lon="10.551821"><ele>171.0</ele><time>2026-05-03T09:29:43.232Z</time></trkpt><trkpt lat="45.3760045" lon="10.5520065"><ele>172.0</ele><time>2026-05-03T09:29:45.232Z</time></trkpt><trkpt lat="45.3759856" lon="10.5521836"><ele>172.5</ele><time>2026-05-03T09:29:47.232Z</time></trkpt><trkpt lat="45.3759678" lon="10.552341"><ele>173.0</ele><time>2026-05-03T09:29:49.232Z</time></trkpt><trkpt lat="45.375948" lon="10.5524749"><ele>173.5</ele><time>2026-05-03T09:29:51.232Z</time></trkpt><trkpt lat="45.3759386" lon="10.55259"><ele>174.0</ele><time>2026-05-03T09:29:53.232Z</time></trkpt><trkpt lat="45.3759094" lon="10.5526781"><ele>174.5</ele><time>2026-05-03T09:29:55.232Z</time></trkpt><trkpt lat="45.3758961" lon="10.5527924"><ele>175.0</ele><time>2026-05-03T09:29:57.232Z</time></trkpt><trkpt lat="45.3758821" lon="10.5529512"><ele>175.5</ele><time>2026-05-03T09:29:59.232Z</time></trkpt><trkpt lat="45.3758695" lon="10.5530665"><ele>176.0</ele><time>2026-05-03T09:30:00.233Z</time></trkpt><trkpt lat="45.3758515" lon="10.5531656"><ele>176.5</ele><time>2026-05-03T09:30:01.232Z</time></trkpt><trkpt lat="45.3758337" lon="10.5532933"><ele>177.0</ele><time>2026-05-03T09:30:02.232Z</time></trkpt><trkpt lat="45.3758168" lon="10.5534177"><ele>177.5</ele><time>2026-05-03T09:30:03.232Z</time></trkpt><trkpt lat="45.3758055" lon="10.5535291"><ele>178.0</ele><time>2026-05-03T09:30:04.233Z</time></trkpt><trkpt lat="45.3757938" lon="10.5536187"><ele>178.0</ele><time>2026-05-03T09:30:05.232Z</time></trkpt><trkpt lat="45.375777" lon="10.5537146"><ele>178.0</ele><time>2026-05-03T09:30:07.232Z</time></trkpt><trkpt lat="45.3756808" lon="10.553714"><ele>178.0</ele><time>2026-05-03T09:31:04.232Z</time></trkpt><trkpt lat="45.3755993" lon="10.5536399"><ele>178.0</ele><time>2026-05-03T09:31:06.232Z</time></trkpt><trkpt lat="45.3755132" lon="10.5535705"><ele>178.0</ele><time>2026-05-03T09:31:07.232Z</time></trkpt><trkpt lat="45.3754675" lon="10.5534775"><ele>178.0</ele><time>2026-05-03T09:31:09.232Z</time></trkpt><trkpt lat="45.3754447" lon="10.5533728"><ele>178.0</ele><time>2026-05-03T09:31:15.232Z</time></trkpt><trkpt lat="45.3754439" lon="10.5532495"><ele>178.0</ele><time>2026-05-03T09:31:18.232Z</time></trkpt><trkpt lat="45.3754519" lon="10.5531349"><ele>178.0</ele><time>2026-05-03T09:31:20.232Z</time></trkpt><trkpt lat="45.3754814" lon="10.5529884"><ele>178.0</ele><time>2026-05-03T09:31:22.232Z</time></trkpt><trkpt lat="45.3755117" lon="10.5528489"><ele>178.0</ele><time>2026-05-03T09:31:24.232Z</time></trkpt><trkpt lat="45.375555" lon="10.5527031"><ele>177.4</ele><time>2026-05-03T09:31:26.232Z</time></trkpt><trkpt lat="45.375565" lon="10.5525541"><ele>176.8</ele><time>2026-05-03T09:31:28.232Z</time></trkpt><trkpt lat="45.3755775" lon="10.5524408"><ele>176.2</ele><time>2026-05-03T09:31:30.232Z</time></trkpt><trkpt lat="45.3755693" lon="10.5523192"><ele>175.6</ele><time>2026-05-03T09:31:32.232Z</time></trkpt><trkpt lat="45.3755541" lon="10.5521282"><ele>175.0</ele><time>2026-05-03T09:31:34.232Z</time></trkpt><trkpt lat="45.3755408" lon="10.5520357"><ele>174.83333333333334</ele><time>2026-05-03T09:31:35.232Z</time></trkpt><trkpt lat="45.3755417" lon="10.5518589"><ele>174.66666666666669</ele><time>2026-05-03T09:31:37.232Z</time></trkpt><trkpt lat="45.3755454" lon="10.5517623"><ele>174.5</ele><time>2026-05-03T09:31:38.233Z</time></trkpt><trkpt lat="45.3755287" lon="10.5516632"><ele>174.33333333333334</ele><time>2026-05-03T09:31:39.232Z</time></trkpt><trkpt lat="45.375531" lon="10.5515638"><ele>174.16666666666666</ele><time>2026-05-03T09:31:40.232Z</time></trkpt><trkpt lat="45.375532" lon="10.5514658"><ele>174.0</ele><time>2026-05-03T09:31:41.232Z</time></trkpt><trkpt lat="45.3755171" lon="10.5513331"><ele>174.0</ele><time>2026-05-03T09:31:43.232Z</time></trkpt><trkpt lat="45.3755219" lon="10.5512033"><ele>174.0</ele><time>2026-05-03T09:31:45.232Z</time></trkpt><trkpt lat="45.3755085" lon="10.5510525"><ele>174.0</ele><time>2026-05-03T09:31:47.232Z</time></trkpt><trkpt lat="45.3754914" lon="10.5509289"><ele>174.0</ele><time>2026-05-03T09:31:49.232Z</time></trkpt><trkpt lat="45.3754766" lon="10.5507767"><ele>174.0</ele><time>2026-05-03T09:31:51.233Z</time></trkpt><trkpt lat="45.3754692" lon="10.5506045"><ele>174.0</ele><time>2026-05-03T09:31:53.233Z</time></trkpt><trkpt lat="45.3754562" lon="10.5505141"><ele>174.0</ele><time>2026-05-03T09:31:54.232Z</time></trkpt><trkpt lat="45.3754367" lon="10.5503579"><ele>174.0</ele><time>2026-05-03T09:31:56.232Z</time></trkpt><trkpt lat="45.3754274" lon="10.5501959"><ele>174.0</ele><time>2026-05-03T09:31:58.232Z</time></trkpt><trkpt lat="45.3754102" lon="10.550064"><ele>174.0</ele><time>2026-05-03T09:32:00.233Z</time></trkpt><trkpt lat="45.3753855" lon="10.5499639"><ele>173.5</ele><time>2026-05-03T09:32:01.232Z</time></trkpt><trkpt lat="45.3753537" lon="10.5498781"><ele>173.0</ele><time>2026-05-03T09:32:02.232Z</time></trkpt><trkpt lat="45.3753396" lon="10.5497811"><ele>172.5</ele><time>2026-05-03T09:32:03.232Z</time></trkpt><trkpt lat="45.3753179" lon="10.5496968"><ele>172.0</ele><time>2026-05-03T09:32:04.232Z</time></trkpt><trkpt lat="45.3752676" lon="10.5495165"><ele>171.5</ele><time>2026-05-03T09:32:06.232Z</time></trkpt><trkpt lat="45.375232" lon="10.549377"><ele>171.0</ele><time>2026-05-03T09:32:08.232Z</time></trkpt><trkpt lat="45.3751964" lon="10.549264"><ele>170.4</ele><time>2026-05-03T09:32:10.232Z</time></trkpt><trkpt lat="45.3751813" lon="10.5491398"><ele>169.8</ele><time>2026-05-03T09:32:12.232Z</time></trkpt><trkpt lat="45.3751509" lon="10.5490104"><ele>169.20000000000002</ele><time>2026-05-03T09:32:14.232Z</time></trkpt><trkpt lat="45.3751231" lon="10.5488878"><ele>168.60000000000002</ele><time>2026-05-03T09:32:16.232Z</time></trkpt><trkpt lat="45.3751095" lon="10.5487741"><ele>168.0</ele><time>2026-05-03T09:32:18.233Z</time></trkpt><trkpt lat="45.3750918" lon="10.5486306"><ele>166.66666666666666</ele><time>2026-05-03T09:32:20.232Z</time></trkpt><trkpt lat="45.3750675" lon="10.5484871"><ele>165.33333333333334</ele><time>2026-05-03T09:32:22.232Z</time></trkpt><trkpt lat="45.3750453" lon="10.5483853"><ele>164.0</ele><time>2026-05-03T09:32:24.232Z</time></trkpt><trkpt lat="45.3750288" lon="10.5482691"><ele>162.66666666666669</ele><time>2026-05-03T09:32:26.232Z</time></trkpt><trkpt lat="45.3750056" lon="10.5481588"><ele>161.33333333333334</ele><time>2026-05-03T09:32:29.232Z</time></trkpt><trkpt lat="45.3749952" lon="10.548057"><ele>160.0</ele><time>2026-05-03T09:32:33.233Z</time></trkpt><trkpt lat="45.3749786" lon="10.5479393"><ele>159.5</ele><time>2026-05-03T09:32:37.232Z</time></trkpt><trkpt lat="45.3749749" lon="10.5478163"><ele>159.0</ele><time>2026-05-03T09:32:40.232Z</time></trkpt><trkpt lat="45.3749752" lon="10.5477052"><ele>158.5</ele><time>2026-05-03T09:32:42.232Z</time></trkpt><trkpt lat="45.3749808" lon="10.5475945"><ele>158.0</ele><time>2026-05-03T09:32:44.232Z</time></trkpt><trkpt lat="45.3749957" lon="10.5474767"><ele>157.5</ele><time>2026-05-03T09:32:46.232Z</time></trkpt><trkpt lat="45.3749891" lon="10.5473625"><ele>157.0</ele><time>2026-05-03T09:32:48.232Z</time></trkpt><trkpt lat="45.3749331" lon="10.5473109"><ele>157.0</ele><time>2026-05-03T09:32:51.232Z</time></trkpt><trkpt lat="45.3748823" lon="10.5472566"><ele>157.0</ele><time>2026-05-03T09:32:53.232Z</time></trkpt><trkpt lat="45.3748374" lon="10.547166"><ele>157.0</ele><time>2026-05-03T09:32:55.233Z</time></trkpt><trkpt lat="45.3748129" lon="10.5470573"><ele>157.0</ele><time>2026-05-03T09:32:57.233Z</time></trkpt><trkpt lat="45.3747215" lon="10.5470109"><ele>157.0</ele><time>2026-05-03T09:32:59.232Z</time></trkpt><trkpt lat="45.3746402" lon="10.5470285"><ele>157.0</ele><time>2026-05-03T09:33:01.232Z</time></trkpt><trkpt lat="45.374554" lon="10.5470408"><ele>155.5</ele><time>2026-05-03T09:33:03.232Z</time></trkpt><trkpt lat="45.3744792" lon="10.5470569"><ele>154.0</ele><time>2026-05-03T09:33:05.233Z</time></trkpt><trkpt lat="45.374384" lon="10.547031"><ele>152.5</ele><time>2026-05-03T09:33:08.232Z</time></trkpt><trkpt lat="45.374325" lon="10.5469483"><ele>151.0</ele><time>2026-05-03T09:33:10.233Z</time></trkpt><trkpt lat="45.3742596" lon="10.5468795"><ele>149.5</ele><time>2026-05-03T09:33:13.232Z</time></trkpt><trkpt lat="45.3741789" lon="10.5468495"><ele>148.0</ele><time>2026-05-03T09:33:17.232Z</time></trkpt><trkpt lat="45.3741093" lon="10.5467833"><ele>147.33333333333334</ele><time>2026-05-03T09:33:20.232Z</time></trkpt><trkpt lat="45.374043" lon="10.5467141"><ele>146.66666666666669</ele><time>2026-05-03T09:33:22.232Z</time></trkpt><trkpt lat="45.3739666" lon="10.5466728"><ele>146.0</ele><time>2026-05-03T09:33:24.233Z</time></trkpt><trkpt lat="45.3738883" lon="10.5466554"><ele>145.33333333333334</ele><time>2026-05-03T09:33:26.232Z</time></trkpt><trkpt lat="45.3738258" lon="10.5466885"><ele>144.66666666666666</ele><time>2026-05-03T09:33:27.232Z</time></trkpt><trkpt lat="45.3737525" lon="10.5466539"><ele>144.0</ele><time>2026-05-03T09:33:29.232Z</time></trkpt><trkpt lat="45.3736782" lon="10.5466124"><ele>141.66666666666666</ele><time>2026-05-03T09:33:31.232Z</time></trkpt><trkpt lat="45.3736011" lon="10.54658"><ele>139.33333333333334</ele><time>2026-05-03T09:33:33.233Z</time></trkpt><trkpt lat="45.3735304" lon="10.5466387"><ele>137.0</ele><time>2026-05-03T09:33:37.232Z</time></trkpt><trkpt lat="45.3734862" lon="10.5467762"><ele>134.66666666666669</ele><time>2026-05-03T09:33:39.232Z</time></trkpt><trkpt lat="45.3734064" lon="10.5468449"><ele>132.33333333333334</ele><time>2026-05-03T09:33:41.232Z</time></trkpt><trkpt lat="45.3733507" lon="10.5469018"><ele>130.0</ele><time>2026-05-03T09:33:43.232Z</time></trkpt><trkpt lat="45.3733567" lon="10.5470163"><ele>131.8</ele><time>2026-05-03T09:33:46.232Z</time></trkpt><trkpt lat="45.3733625" lon="10.5471483"><ele>133.6</ele><time>2026-05-03T09:33:48.232Z</time></trkpt><trkpt lat="45.373357" lon="10.5473033"><ele>135.4</ele><time>2026-05-03T09:33:50.232Z</time></trkpt><trkpt lat="45.3733626" lon="10.5474357"><ele>137.2</ele><time>2026-05-03T09:33:52.232Z</time></trkpt><trkpt lat="45.3733498" lon="10.5475895"><ele>139.0</ele><time>2026-05-03T09:33:54.233Z</time></trkpt><trkpt lat="45.3733244" lon="10.547748"><ele>139.0</ele><time>2026-05-03T09:33:56.232Z</time></trkpt><trkpt lat="45.3733017" lon="10.5478758"><ele>139.0</ele><time>2026-05-03T09:33:58.232Z</time></trkpt><trkpt lat="45.3732961" lon="10.5479983"><ele>139.0</ele><time>2026-05-03T09:34:01.232Z</time></trkpt><trkpt lat="45.3732788" lon="10.5481491"><ele>139.0</ele><time>2026-05-03T09:34:03.232Z</time></trkpt><trkpt lat="45.3732604" lon="10.5482409"><ele>139.0</ele><time>2026-05-03T09:34:04.232Z</time></trkpt><trkpt lat="45.3732537" lon="10.5483315"><ele>139.0</ele><time>2026-05-03T09:34:05.232Z</time></trkpt><trkpt lat="45.3732268" lon="10.5484966"><ele>140.5</ele><time>2026-05-03T09:34:07.233Z</time></trkpt><trkpt lat="45.3732129" lon="10.5486207"><ele>142.0</ele><time>2026-05-03T09:34:09.232Z</time></trkpt><trkpt lat="45.3732088" lon="10.5487329"><ele>143.5</ele><time>2026-05-03T09:34:11.232Z</time></trkpt><trkpt lat="45.3731945" lon="10.5488692"><ele>145.0</ele><time>2026-05-03T09:34:13.232Z</time></trkpt><trkpt lat="45.3731822" lon="10.5489671"><ele>146.5</ele><time>2026-05-03T09:34:15.232Z</time></trkpt><trkpt lat="45.3731607" lon="10.5490645"><ele>148.0</ele><time>2026-05-03T09:34:17.232Z</time></trkpt><trkpt lat="45.373073" lon="10.5490811"><ele>147.57142857142858</ele><time>2026-05-03T09:34:19.232Z</time></trkpt><trkpt lat="45.372988" lon="10.5490783"><ele>147.14285714285714</ele><time>2026-05-03T09:34:21.232Z</time></trkpt><trkpt lat="45.3729121" lon="10.5490833"><ele>146.71428571428572</ele><time>2026-05-03T09:34:23.232Z</time></trkpt><trkpt lat="45.3728707" lon="10.5491692"><ele>146.28571428571428</ele><time>2026-05-03T09:34:26.232Z</time></trkpt><trkpt lat="45.3728738" lon="10.5492691"><ele>145.85714285714286</ele><time>2026-05-03T09:34:28.232Z</time></trkpt><trkpt lat="45.3728952" lon="10.5493635"><ele>145.42857142857144</ele><time>2026-05-03T09:34:32.232Z</time></trkpt><trkpt lat="45.3728685" lon="10.5494485"><ele>145.0</ele><time>2026-05-03T09:34:35.232Z</time></trkpt><trkpt lat="45.3728086" lon="10.5495335"><ele>145.0</ele><time>2026-05-03T09:34:38.233Z</time></trkpt><trkpt lat="45.3727649" lon="10.5496205"><ele>145.0</ele><time>2026-05-03T09:34:42.233Z</time></trkpt><trkpt lat="45.3727687" lon="10.5495098"><ele>145.0</ele><time>2026-05-03T09:34:50.232Z</time></trkpt><trkpt lat="45.372734" lon="10.549424"><ele>145.0</ele><time>2026-05-03T09:34:54.232Z</time></trkpt><trkpt lat="45.3726672" lon="10.5494072"><ele>145.0</ele><time>2026-05-03T09:34:58.232Z</time></trkpt><trkpt lat="45.3725955" lon="10.5493778"><ele>145.0</ele><time>2026-05-03T09:35:03.233Z</time></trkpt><trkpt lat="45.372533" lon="10.5493134"><ele>145.0</ele><time>2026-05-03T09:35:06.232Z</time></trkpt><trkpt lat="45.3725154" lon="10.5492034"><ele>145.0</ele><time>2026-05-03T09:35:09.232Z</time></trkpt><trkpt lat="45.3725275" lon="10.5490842"><ele>145.0</ele><time>2026-05-03T09:35:11.232Z</time></trkpt><trkpt lat="45.372544" lon="10.5489542"><ele>145.0</ele><time>2026-05-03T09:35:13.232Z</time></trkpt><trkpt lat="45.3725519" lon="10.5488277"><ele>145.0</ele><time>2026-05-03T09:35:15.232Z</time></trkpt><trkpt lat="45.372507" lon="10.5487143"><ele>145.0</ele><time>2026-05-03T09:35:17.232Z</time></trkpt><trkpt lat="45.3724057" lon="10.548576"><ele>143.16666666666669</ele><time>2026-05-03T09:35:19.232Z</time></trkpt><trkpt lat="45.3723544" lon="10.5485009"><ele>141.33333333333334</ele><time>2026-05-03T09:35:20.232Z</time></trkpt><trkpt lat="45.3723061" lon="10.548425"><ele>139.5</ele><time>2026-05-03T09:35:21.232Z</time></trkpt><trkpt lat="45.3722589" lon="10.5483576"><ele>137.66666666666666</ele><time>2026-05-03T09:35:22.233Z</time></trkpt><trkpt lat="45.3721961" lon="10.5482233"><ele>135.83333333333331</ele><time>2026-05-03T09:35:24.232Z</time></trkpt><trkpt lat="45.372164" lon="10.5481443"><ele>134.0</ele><time>2026-05-03T09:35:26.232Z</time></trkpt><trkpt lat="45.3720811" lon="10.5481343"><ele>132.8</ele><time>2026-05-03T09:35:29.233Z</time></trkpt><trkpt lat="45.3719787" lon="10.5481458"><ele>131.60000000000002</ele><time>2026-05-03T09:35:31.233Z</time></trkpt><trkpt lat="45.3718626" lon="10.5481601"><ele>130.4</ele><time>2026-05-03T09:35:33.232Z</time></trkpt><trkpt lat="45.3717929" lon="10.5481597"><ele>129.20000000000002</ele><time>2026-05-03T09:35:34.232Z</time></trkpt><trkpt lat="45.3717042" lon="10.5481654"><ele>128.0</ele><time>2026-05-03T09:35:35.232Z</time></trkpt><trkpt lat="45.3716173" lon="10.5481726"><ele>128.0</ele><time>2026-05-03T09:35:36.232Z</time></trkpt><trkpt lat="45.3715205" lon="10.548174"><ele>128.0</ele><time>2026-05-03T09:35:37.232Z</time></trkpt><trkpt lat="45.3714264" lon="10.5481534"><ele>128.0</ele><time>2026-05-03T09:35:38.232Z</time></trkpt><trkpt lat="45.3713344" lon="10.5481463"><ele>128.0</ele><time>2026-05-03T09:35:39.232Z</time></trkpt><trkpt lat="45.3712325" lon="10.54814"><ele>128.0</ele><time>2026-05-03T09:35:40.232Z</time></trkpt><trkpt lat="45.3711319" lon="10.5481398"><ele>127.80000000000001</ele><time>2026-05-03T09:35:41.232Z</time></trkpt><trkpt lat="45.3710184" lon="10.5481419"><ele>127.60000000000001</ele><time>2026-05-03T09:35:42.232Z</time></trkpt><trkpt lat="45.370919" lon="10.5481504"><ele>127.39999999999999</ele><time>2026-05-03T09:35:43.232Z</time></trkpt><trkpt lat="45.3708087" lon="10.5481649"><ele>127.19999999999999</ele><time>2026-05-03T09:35:44.232Z</time></trkpt><trkpt lat="45.3707105" lon="10.5481704"><ele>127.0</ele><time>2026-05-03T09:35:45.232Z</time></trkpt><trkpt lat="45.370624" lon="10.5481662"><ele>127.0</ele><time>2026-05-03T09:35:46.232Z</time></trkpt><trkpt lat="45.3705341" lon="10.5481603"><ele>126.99999999999999</ele><time>2026-05-03T09:35:47.232Z</time></trkpt><trkpt lat="45.3704312" lon="10.5481209"><ele>126.99999999999999</ele><time>2026-05-03T09:35:48.232Z</time></trkpt><trkpt lat="45.3703239" lon="10.5480697"><ele>127.0</ele><time>2026-05-03T09:35:49.232Z</time></trkpt><trkpt lat="45.3702158" lon="10.5480123"><ele>127.0</ele><time>2026-05-03T09:35:50.232Z</time></trkpt><trkpt lat="45.370116" lon="10.5479656"><ele>126.8</ele><time>2026-05-03T09:35:51.232Z</time></trkpt><trkpt lat="45.3700156" lon="10.5479369"><ele>126.6</ele><time>2026-05-03T09:35:52.232Z</time></trkpt><trkpt lat="45.3699335" lon="10.5479279"><ele>126.39999999999999</ele><time>2026-05-03T09:35:53.232Z</time></trkpt><trkpt lat="45.3698395" lon="10.5479296"><ele>126.19999999999999</ele><time>2026-05-03T09:35:54.232Z</time></trkpt><trkpt lat="45.3697356" lon="10.5479166"><ele>126.0</ele><time>2026-05-03T09:35:55.232Z</time></trkpt><trkpt lat="45.369625" lon="10.5479296"><ele>125.0</ele><time>2026-05-03T09:35:56.232Z</time></trkpt><trkpt lat="45.3694877" lon="10.5479237"><ele>124.0</ele><time>2026-05-03T09:35:57.232Z</time></trkpt><trkpt lat="45.3693756" lon="10.5479452"><ele>123.0</ele><time>2026-05-03T09:35:58.232Z</time></trkpt><trkpt lat="45.3692603" lon="10.547958"><ele>122.0</ele><time>2026-05-03T09:35:59.232Z</time></trkpt><trkpt lat="45.3691606" lon="10.5479797"><ele>121.99999999999999</ele><time>2026-05-03T09:36:00.232Z</time></trkpt><trkpt lat="45.3690538" lon="10.5479992"><ele>122.0</ele><time>2026-05-03T09:36:01.232Z</time></trkpt><trkpt lat="45.3689917" lon="10.5480269"><ele>122.0</ele><time>2026-05-03T09:36:02.232Z</time></trkpt><trkpt lat="45.3689224" lon="10.5480806"><ele>122.0</ele><time>2026-05-03T09:36:04.232Z</time></trkpt><trkpt lat="45.3688597" lon="10.548149"><ele>121.99999999999999</ele><time>2026-05-03T09:36:06.232Z</time></trkpt><trkpt lat="45.3688496" lon="10.5482459"><ele>122.0</ele><time>2026-05-03T09:36:07.232Z</time></trkpt><trkpt lat="45.3688473" lon="10.5484184"><ele>122.66666666666666</ele><time>2026-05-03T09:36:09.232Z</time></trkpt><trkpt lat="45.3688458" lon="10.5485188"><ele>123.33333333333333</ele><time>2026-05-03T09:36:10.232Z</time></trkpt><trkpt lat="45.3688538" lon="10.5486365"><ele>124.0</ele><time>2026-05-03T09:36:11.232Z</time></trkpt><trkpt lat="45.3688811" lon="10.5487191"><ele>124.66666666666666</ele><time>2026-05-03T09:36:12.233Z</time></trkpt><trkpt lat="45.3689616" lon="10.5488222"><ele>125.33333333333333</ele><time>2026-05-03T09:36:13.232Z</time></trkpt><trkpt lat="45.3690016" lon="10.5489128"><ele>126.0</ele><time>2026-05-03T09:36:14.233Z</time></trkpt><trkpt lat="45.3690644" lon="10.5490389"><ele>126.0</ele><time>2026-05-03T09:36:16.233Z</time></trkpt><trkpt lat="45.3691449" lon="10.549185"><ele>126.0</ele><time>2026-05-03T09:36:18.232Z</time></trkpt><trkpt lat="45.3691824" lon="10.5492615"><ele>126.0</ele><time>2026-05-03T09:36:19.233Z</time></trkpt><trkpt lat="45.369224" lon="10.54933"><ele>126.0</ele><time>2026-05-03T09:36:20.232Z</time></trkpt><trkpt lat="45.3692716" lon="10.5494282"><ele>126.0</ele><time>2026-05-03T09:36:21.233Z</time></trkpt><trkpt lat="45.3693297" lon="10.5495831"><ele>126.16666666666667</ele><time>2026-05-03T09:36:23.232Z</time></trkpt><trkpt lat="45.369368" lon="10.5496679"><ele>126.33333333333334</ele><time>2026-05-03T09:36:24.232Z</time></trkpt><trkpt lat="45.3694096" lon="10.5497497"><ele>126.5</ele><time>2026-05-03T09:36:25.232Z</time></trkpt><trkpt lat="45.3694784" lon="10.5498567"><ele>126.66666666666667</ele><time>2026-05-03T09:36:27.232Z</time></trkpt><trkpt lat="45.3695466" lon="10.5499718"><ele>126.83333333333334</ele><time>2026-05-03T09:36:29.232Z</time></trkpt><trkpt lat="45.3695974" lon="10.5500591"><ele>127.0</ele><time>2026-05-03T09:36:31.233Z</time></trkpt><trkpt lat="45.3696611" lon="10.5501635"><ele>127.83333333333334</ele><time>2026-05-03T09:36:33.233Z</time></trkpt><trkpt lat="45.3697124" lon="10.5502583"><ele>128.66666666666669</ele><time>2026-05-03T09:36:34.233Z</time></trkpt><trkpt lat="45.3697611" lon="10.5503352"><ele>129.5</ele><time>2026-05-03T09:36:35.232Z</time></trkpt><trkpt lat="45.3698043" lon="10.5504227"><ele>130.33333333333334</ele><time>2026-05-03T09:36:36.232Z</time></trkpt><trkpt lat="45.3698459" lon="10.5505024"><ele>131.16666666666666</ele><time>2026-05-03T09:36:37.232Z</time></trkpt><trkpt lat="45.3698919" lon="10.5505895"><ele>132.0</ele><time>2026-05-03T09:36:38.232Z</time></trkpt><trkpt lat="45.3699392" lon="10.5506755"><ele>132.2</ele><time>2026-05-03T09:36:39.232Z</time></trkpt><trkpt lat="45.3699953" lon="10.5508503"><ele>132.39999999999998</ele><time>2026-05-03T09:36:41.232Z</time></trkpt><trkpt lat="45.3700064" lon="10.5509444"><ele>132.60000000000002</ele><time>2026-05-03T09:36:42.232Z</time></trkpt><trkpt lat="45.370044" lon="10.5510935"><ele>132.8</ele><time>2026-05-03T09:36:43.232Z</time></trkpt><trkpt lat="45.3700662" lon="10.5512372"><ele>133.0</ele><time>2026-05-03T09:36:44.232Z</time></trkpt><trkpt lat="45.3700878" lon="10.5513681"><ele>133.0</ele><time>2026-05-03T09:36:45.232Z</time></trkpt><trkpt lat="45.3701" lon="10.551518"><ele>133.0</ele><time>2026-05-03T09:36:46.232Z</time></trkpt><trkpt lat="45.3701279" lon="10.5516616"><ele>133.0</ele><time>2026-05-03T09:36:47.232Z</time></trkpt><trkpt lat="45.3701494" lon="10.5517994"><ele>133.0</ele><time>2026-05-03T09:36:48.232Z</time></trkpt><trkpt lat="45.3701689" lon="10.5519259"><ele>133.0</ele><time>2026-05-03T09:36:49.232Z</time></trkpt><trkpt lat="45.3701774" lon="10.552055"><ele>132.83333333333334</ele><time>2026-05-03T09:36:50.232Z</time></trkpt><trkpt lat="45.3701841" lon="10.5521565"><ele>132.66666666666669</ele><time>2026-05-03T09:36:51.233Z</time></trkpt><trkpt lat="45.3701934" lon="10.5522619"><ele>132.5</ele><time>2026-05-03T09:36:52.232Z</time></trkpt><trkpt lat="45.3701965" lon="10.5523575"><ele>132.33333333333334</ele><time>2026-05-03T09:36:53.232Z</time></trkpt><trkpt lat="45.3701915" lon="10.5524708"><ele>132.16666666666666</ele><time>2026-05-03T09:36:55.232Z</time></trkpt><trkpt lat="45.3700728" lon="10.5525121"><ele>132.0</ele><time>2026-05-03T09:37:01.232Z</time></trkpt><trkpt lat="45.3699874" lon="10.5525114"><ele>132.0</ele><time>2026-05-03T09:37:02.232Z</time></trkpt><trkpt lat="45.3698805" lon="10.5525073"><ele>132.0</ele><time>2026-05-03T09:37:03.233Z</time></trkpt><trkpt lat="45.3697706" lon="10.552481"><ele>132.0</ele><time>2026-05-03T09:37:04.232Z</time></trkpt><trkpt lat="45.3696483" lon="10.5524539"><ele>132.0</ele><time>2026-05-03T09:37:05.233Z</time></trkpt><trkpt lat="45.3695176" lon="10.5523962"><ele>131.25</ele><time>2026-05-03T09:37:06.232Z</time></trkpt><trkpt lat="45.3693816" lon="10.5523306"><ele>130.5</ele><time>2026-05-03T09:37:07.232Z</time></trkpt><trkpt lat="45.3692389" lon="10.5522572"><ele>129.75</ele><time>2026-05-03T09:37:08.232Z</time></trkpt><trkpt lat="45.3691017" lon="10.5521967"><ele>129.0</ele><time>2026-05-03T09:37:09.232Z</time></trkpt><trkpt lat="45.3689694" lon="10.5521356"><ele>128.75</ele><time>2026-05-03T09:37:10.232Z</time></trkpt><trkpt lat="45.3688361" lon="10.5520791"><ele>128.5</ele><time>2026-05-03T09:37:11.232Z</time></trkpt><trkpt lat="45.3687075" lon="10.5520394"><ele>128.25</ele><time>2026-05-03T09:37:12.232Z</time></trkpt><trkpt lat="45.3685774" lon="10.5520238"><ele>128.0</ele><time>2026-05-03T09:37:13.232Z</time></trkpt><trkpt lat="45.368449" lon="10.5520296"><ele>127.75</ele><time>2026-05-03T09:37:14.232Z</time></trkpt><trkpt lat="45.3683214" lon="10.5520503"><ele>127.5</ele><time>2026-05-03T09:37:15.233Z</time></trkpt><trkpt lat="45.3681947" lon="10.5520766"><ele>127.25</ele><time>2026-05-03T09:37:16.233Z</time></trkpt><trkpt lat="45.3680675" lon="10.5521159"><ele>127.0</ele><time>2026-05-03T09:37:17.232Z</time></trkpt><trkpt lat="45.3679399" lon="10.5521345"><ele>126.25</ele><time>2026-05-03T09:37:18.232Z</time></trkpt><trkpt lat="45.3678107" lon="10.552137"><ele>125.5</ele><time>2026-05-03T09:37:19.233Z</time></trkpt><trkpt lat="45.367684" lon="10.5521227"><ele>124.75</ele><time>2026-05-03T09:37:20.232Z</time></trkpt><trkpt lat="45.3675606" lon="10.5520818"><ele>124.0</ele><time>2026-05-03T09:37:21.232Z</time></trkpt><trkpt lat="45.3674424" lon="10.5520227"><ele>124.0</ele><time>2026-05-03T09:37:22.233Z</time></trkpt><trkpt lat="45.3673233" lon="10.5519505"><ele>124.0</ele><time>2026-05-03T09:37:23.232Z</time></trkpt><trkpt lat="45.3672021" lon="10.5518645"><ele>124.0</ele><time>2026-05-03T09:37:24.232Z</time></trkpt><trkpt lat="45.3670863" lon="10.5517521"><ele>124.0</ele><time>2026-05-03T09:37:25.232Z</time></trkpt><trkpt lat="45.3669722" lon="10.5516288"><ele>123.0</ele><time>2026-05-03T09:37:26.232Z</time></trkpt><trkpt lat="45.3668635" lon="10.551506"><ele>122.0</ele><time>2026-05-03T09:37:27.232Z</time></trkpt><trkpt lat="45.3667613" lon="10.5513899"><ele>121.0</ele><time>2026-05-03T09:37:28.232Z</time></trkpt><trkpt lat="45.3666651" lon="10.5512798"><ele>120.0</ele><time>2026-05-03T09:37:29.232Z</time></trkpt><trkpt lat="45.3665814" lon="10.5511802"><ele>119.6</ele><time>2026-05-03T09:37:30.232Z</time></trkpt><trkpt lat="45.3665166" lon="10.5511041"><ele>119.2</ele><time>2026-05-03T09:37:31.232Z</time></trkpt><trkpt lat="45.3664661" lon="10.5510456"><ele>118.80000000000001</ele><time>2026-05-03T09:37:32.232Z</time></trkpt><trkpt lat="45.366397" lon="10.5509635"><ele>118.4</ele><time>2026-05-03T09:37:34.232Z</time></trkpt><trkpt lat="45.3662816" lon="10.5508174"><ele>118.0</ele><time>2026-05-03T09:37:42.232Z</time></trkpt><trkpt lat="45.3662388" lon="10.5507361"><ele>117.5</ele><time>2026-05-03T09:37:43.232Z</time></trkpt><trkpt lat="45.3661686" lon="10.5506562"><ele>117.0</ele><time>2026-05-03T09:37:44.232Z</time></trkpt><trkpt lat="45.3660808" lon="10.550574"><ele>116.5</ele><time>2026-05-03T09:37:45.232Z</time></trkpt><trkpt lat="45.3659812" lon="10.550474"><ele>116.0</ele><time>2026-05-03T09:37:46.232Z</time></trkpt><trkpt lat="45.365869" lon="10.5503637"><ele>115.75</ele><time>2026-05-03T09:37:47.232Z</time></trkpt><trkpt lat="45.3657479" lon="10.5502603"><ele>115.5</ele><time>2026-05-03T09:37:48.232Z</time></trkpt><trkpt lat="45.3656311" lon="10.550157"><ele>115.25</ele><time>2026-05-03T09:37:49.232Z</time></trkpt><trkpt lat="45.3655232" lon="10.5500655"><ele>115.0</ele><time>2026-05-03T09:37:50.232Z</time></trkpt><trkpt lat="45.3654178" lon="10.5499801"><ele>114.6</ele><time>2026-05-03T09:37:51.232Z</time></trkpt><trkpt lat="45.3653277" lon="10.5498978"><ele>114.2</ele><time>2026-05-03T09:37:52.232Z</time></trkpt><trkpt lat="45.3652534" lon="10.5498322"><ele>113.80000000000001</ele><time>2026-05-03T09:37:53.232Z</time></trkpt><trkpt lat="45.3651971" lon="10.5497744"><ele>113.4</ele><time>2026-05-03T09:37:54.232Z</time></trkpt><trkpt lat="45.3651082" lon="10.5496813"><ele>113.0</ele><time>2026-05-03T09:37:56.232Z</time></trkpt><trkpt lat="45.3650561" lon="10.5495566"><ele>113.0</ele><time>2026-05-03T09:37:58.232Z</time></trkpt><trkpt lat="45.3649978" lon="10.5494846"><ele>113.00000000000001</ele><time>2026-05-03T09:38:01.232Z</time></trkpt><trkpt lat="45.3649076" lon="10.5494858"><ele>113.00000000000001</ele><time>2026-05-03T09:38:06.232Z</time></trkpt><trkpt lat="45.3648541" lon="10.5496273"><ele>113.0</ele><time>2026-05-03T09:38:08.232Z</time></trkpt><trkpt lat="45.364806" lon="10.5497481"><ele>113.0</ele><time>2026-05-03T09:38:09.232Z</time></trkpt><trkpt lat="45.3647536" lon="10.5498681"><ele>112.25</ele><time>2026-05-03T09:38:10.232Z</time></trkpt><trkpt lat="45.3646906" lon="10.550019"><ele>111.5</ele><time>2026-05-03T09:38:11.232Z</time></trkpt><trkpt lat="45.3646217" lon="10.5501858"><ele>110.75</ele><time>2026-05-03T09:38:12.232Z</time></trkpt><trkpt lat="45.364558" lon="10.5503547"><ele>110.0</ele><time>2026-05-03T09:38:13.232Z</time></trkpt><trkpt lat="45.3644989" lon="10.5505179"><ele>109.75</ele><time>2026-05-03T09:38:14.232Z</time></trkpt><trkpt lat="45.3644352" lon="10.5506727"><ele>109.5</ele><time>2026-05-03T09:38:15.232Z</time></trkpt><trkpt lat="45.3643726" lon="10.550823"><ele>109.25</ele><time>2026-05-03T09:38:16.232Z</time></trkpt><trkpt lat="45.3643048" lon="10.5509471"><ele>109.0</ele><time>2026-05-03T09:38:17.233Z</time></trkpt><trkpt lat="45.3642471" lon="10.5510725"><ele>109.0</ele><time>2026-05-03T09:38:18.232Z</time></trkpt><trkpt lat="45.3641932" lon="10.551212"><ele>109.0</ele><time>2026-05-03T09:38:19.232Z</time></trkpt><trkpt lat="45.3641609" lon="10.5513136"><ele>109.0</ele><time>2026-05-03T09:38:20.232Z</time></trkpt><trkpt lat="45.3641354" lon="10.5514151"><ele>109.0</ele><time>2026-05-03T09:38:21.232Z</time></trkpt><trkpt lat="45.3641315" lon="10.5515657"><ele>109.0</ele><time>2026-05-03T09:38:23.232Z</time></trkpt><trkpt lat="45.3641901" lon="10.5516892"><ele>109.0</ele><time>2026-05-03T09:38:25.232Z</time></trkpt><trkpt lat="45.3642066" lon="10.5518013"><ele>109.0</ele><time>2026-05-03T09:38:27.232Z</time></trkpt><trkpt lat="45.3641699" lon="10.5518966"><ele>109.0</ele><time>2026-05-03T09:38:29.233Z</time></trkpt><trkpt lat="45.3641797" lon="10.5520053"><ele>109.0</ele><time>2026-05-03T09:47:15.233Z</time></trkpt><trkpt lat="45.3642618" lon="10.5520632"><ele>109.0</ele><time>2026-05-03T09:47:18.232Z</time></trkpt><trkpt lat="45.3645316" lon="10.5521509"><ele>108.0</ele><time>2026-05-03T09:47:30.752Z</time></trkpt><trkpt lat="45.3645846" lon="10.5521996"><ele>108.0</ele><time>2026-05-03T09:47:36.331Z</time></trkpt><trkpt lat="45.3644957" lon="10.5519761"><ele>109.0</ele><time>2026-05-03T09:51:53.616Z</time></trkpt><trkpt lat="45.3644592" lon="10.5520644"><ele>108.0</ele><time>2026-05-03T09:52:54.232Z</time></trkpt><trkpt lat="45.3644521" lon="10.5521568"><ele>108.0</ele><time>2026-05-03T09:52:57.232Z</time></trkpt></trkseg></trk></gpx>